<?xml version='1.0' encoding='UTF-8'?><gpx version="1.1" creator="JPX - https://github.com/jenetics/jpx" xmlns="http://www.topografix.com/GPX/1/1"><trk><trkseg><trkpt lat="45.10364271495439" lon="8.317845297858982"><ele>149.0</ele><time>2026-05-01T07:35:03Z</time></trkpt><trkpt lat="45.103612432670744" lon="8.317747966518715"><ele>149.0</ele><time>2026-05-01T07:35:08Z</time></trkpt><trkpt lat="45.10354174784919" lon="8.317748205417931"><ele>149.0</ele><time>2026-05-01T07:38:12Z</time></trkpt><trkpt lat="45.10346815773833" lon="8.317747234648763"><ele>149.0</ele><time>2026-05-01T07:38:16Z</time></trkpt><trkpt lat="45.10340398982482" lon="8.317713354332238"><ele>149.0</ele><time>2026-05-01T07:38:19Z</time></trkpt><trkpt lat="45.103330271604655" lon="8.31768006428132"><ele>149.0</ele><time>2026-05-01T07:38:23Z</time></trkpt><trkpt lat="45.1032658482439" lon="8.317656580453905"><ele>149.0</ele><time>2026-05-01T07:38:26Z</time></trkpt><trkpt lat="45.103198146659466" lon="8.317641231720255"><ele>149.33333333333331</ele><time>2026-05-01T07:38:30Z</time></trkpt><trkpt lat="45.10311962560791" lon="8.317610359325972"><ele>149.66666666666666</ele><time>2026-05-01T07:38:34Z</time></trkpt><trkpt lat="45.10305440980488" lon="8.317573685873912"><ele>150.0</ele><time>2026-05-01T07:38:38Z</time></trkpt><trkpt lat="45.10299420243012" lon="8.317530843751605"><ele>150.33333333333334</ele><time>2026-05-01T07:38:42Z</time></trkpt><trkpt lat="45.10298077106874" lon="8.317422431787653"><ele>150.66666666666669</ele><time>2026-05-01T07:38:46Z</time></trkpt><trkpt lat="45.10302662935084" lon="8.317340493479799"><ele>151.0</ele><time>2026-05-01T07:38:49Z</time></trkpt><trkpt lat="45.10311038625749" lon="8.31729310084954"><ele>151.0</ele><time>2026-05-01T07:38:52Z</time></trkpt><trkpt lat="45.10318366478761" lon="8.31730216661253"><ele>151.0</ele><time>2026-05-01T07:38:55Z</time></trkpt><trkpt lat="45.1032739112309" lon="8.317330898433202"><ele>151.0</ele><time>2026-05-01T07:38:58Z</time></trkpt><trkpt lat="45.103358438119784" lon="8.317355505777908"><ele>151.0</ele><time>2026-05-01T07:39:01Z</time></trkpt><trkpt lat="45.10344061521036" lon="8.317390108387473"><ele>151.0</ele><time>2026-05-01T07:39:04Z</time></trkpt><trkpt lat="45.10352080520071" lon="8.317419626101795"><ele>151.0</ele><time>2026-05-01T07:39:07Z</time></trkpt><trkpt lat="45.10357835439886" lon="8.317459427250759"><ele>150.66666666666669</ele><time>2026-05-01T07:39:09Z</time></trkpt><trkpt lat="45.1036375866807" lon="8.317507924516404"><ele>150.33333333333334</ele><time>2026-05-01T07:39:11.001Z</time></trkpt><trkpt lat="45.103712760449945" lon="8.317584070002505"><ele>150.0</ele><time>2026-05-01T07:39:14.001Z</time></trkpt><trkpt lat="45.103781710139934" lon="8.31766378507621"><ele>149.66666666666666</ele><time>2026-05-01T07:39:17.001Z</time></trkpt><trkpt lat="45.10385629349417" lon="8.317734466495295"><ele>149.33333333333331</ele><time>2026-05-01T07:39:20.001Z</time></trkpt><trkpt lat="45.10392354441058" lon="8.317811029193921"><ele>149.0</ele><time>2026-05-01T07:39:23.001Z</time></trkpt><trkpt lat="45.10399105134336" lon="8.317875409694295"><ele>149.0</ele><time>2026-05-01T07:39:26.001Z</time></trkpt><trkpt lat="45.10404563999331" lon="8.317928295738193"><ele>149.0</ele><time>2026-05-01T07:39:29.001Z</time></trkpt><trkpt lat="45.104110114853974" lon="8.317991214466279"><ele>149.0</ele><time>2026-05-01T07:39:31.999Z</time></trkpt><trkpt lat="45.104171138588804" lon="8.318047823357212"><ele>149.0</ele><time>2026-05-01T07:39:34.999Z</time></trkpt><trkpt lat="45.10422973578963" lon="8.318110336898986"><ele>149.0</ele><time>2026-05-01T07:39:37.999Z</time></trkpt><trkpt lat="45.10429863970181" lon="8.318160360758466"><ele>149.0</ele><time>2026-05-01T07:39:40.999Z</time></trkpt><trkpt lat="45.104371329318624" lon="8.318228603696289"><ele>147.83333333333331</ele><time>2026-05-01T07:39:43.999Z</time></trkpt><trkpt lat="45.10444171653924" lon="8.318303809415026"><ele>146.66666666666666</ele><time>2026-05-01T07:39:47Z</time></trkpt><trkpt lat="45.104510641278324" lon="8.318366294871174"><ele>145.5</ele><time>2026-05-01T07:39:50Z</time></trkpt><trkpt lat="45.10458100960501" lon="8.318439476791983"><ele>144.33333333333334</ele><time>2026-05-01T07:39:53Z</time></trkpt><trkpt lat="45.10465097887757" lon="8.31850889576993"><ele>143.16666666666669</ele><time>2026-05-01T07:39:56Z</time></trkpt><trkpt lat="45.10472526971402" lon="8.318566152815379"><ele>142.0</ele><time>2026-05-01T07:39:59Z</time></trkpt><trkpt lat="45.10478669518957" lon="8.31863658093647"><ele>142.0</ele><time>2026-05-01T07:40:01Z</time></trkpt><trkpt lat="45.10484461697653" lon="8.318705935924527"><ele>142.0</ele><time>2026-05-01T07:40:03Z</time></trkpt><trkpt lat="45.104895616112934" lon="8.318796387195997"><ele>142.0</ele><time>2026-05-01T07:40:05Z</time></trkpt><trkpt lat="45.10493757551208" lon="8.318896183730303"><ele>142.0</ele><time>2026-05-01T07:40:07Z</time></trkpt><trkpt lat="45.10495845539192" lon="8.319008787240069"><ele>142.0</ele><time>2026-05-01T07:40:09Z</time></trkpt><trkpt lat="45.104945023401115" lon="8.319114777732844"><ele>142.0</ele><time>2026-05-01T07:40:11Z</time></trkpt><trkpt lat="45.10489183616328" lon="8.319190015158615"><ele>142.0</ele><time>2026-05-01T07:40:13Z</time></trkpt><trkpt lat="45.10484022614165" lon="8.319250243152661"><ele>142.0</ele><time>2026-05-01T07:40:15Z</time></trkpt><trkpt lat="45.1047683234755" lon="8.319308657498519"><ele>142.0</ele><time>2026-05-01T07:40:18Z</time></trkpt><trkpt lat="45.104707216601476" lon="8.319353976177762"><ele>142.0</ele><time>2026-05-01T07:40:21Z</time></trkpt><trkpt lat="45.10464679474794" lon="8.319404685882846"><ele>142.0</ele><time>2026-05-01T07:40:24Z</time></trkpt><trkpt lat="45.10458652949508" lon="8.319458537183436"><ele>142.0</ele><time>2026-05-01T07:40:27Z</time></trkpt><trkpt lat="45.104519199736224" lon="8.319513400705588"><ele>142.0</ele><time>2026-05-01T07:40:30Z</time></trkpt><trkpt lat="45.104456654333205" lon="8.31956520938989"><ele>142.0</ele><time>2026-05-01T07:40:33Z</time></trkpt><trkpt lat="45.10439138729981" lon="8.319615626048941"><ele>142.0</ele><time>2026-05-01T07:40:36Z</time></trkpt><trkpt lat="45.10432452283152" lon="8.319671774919739"><ele>142.0</ele><time>2026-05-01T07:40:39Z</time></trkpt><trkpt lat="45.104259895648845" lon="8.31973827873581"><ele>142.0</ele><time>2026-05-01T07:40:42Z</time></trkpt><trkpt lat="45.10418791139067" lon="8.31979771034032"><ele>142.0</ele><time>2026-05-01T07:40:45Z</time></trkpt><trkpt lat="45.10411647767365" lon="8.31986233579023"><ele>142.0</ele><time>2026-05-01T07:40:48Z</time></trkpt><trkpt lat="45.10404079987443" lon="8.31992796974145"><ele>142.66666666666669</ele><time>2026-05-01T07:40:51Z</time></trkpt><trkpt lat="45.10398501479283" lon="8.319971738684174"><ele>143.33333333333334</ele><time>2026-05-01T07:40:53Z</time></trkpt><trkpt lat="45.10390793506258" lon="8.320045324035886"><ele>144.0</ele><time>2026-05-01T07:40:56Z</time></trkpt><trkpt lat="45.103831343062296" lon="8.320106679209024"><ele>144.66666666666666</ele><time>2026-05-01T07:40:59Z</time></trkpt><trkpt lat="45.103756958909784" lon="8.32017202566565"><ele>145.33333333333331</ele><time>2026-05-01T07:41:02Z</time></trkpt><trkpt lat="45.10368601058428" lon="8.320232509094197"><ele>146.0</ele><time>2026-05-01T07:41:05Z</time></trkpt><trkpt lat="45.10361269241841" lon="8.32028474479037"><ele>146.0</ele><time>2026-05-01T07:41:08Z</time></trkpt><trkpt lat="45.10353961959859" lon="8.320351390024735"><ele>146.0</ele><time>2026-05-01T07:41:11Z</time></trkpt><trkpt lat="45.103467706037435" lon="8.32041490245169"><ele>146.0</ele><time>2026-05-01T07:41:14Z</time></trkpt><trkpt lat="45.10339713264948" lon="8.32047425474193"><ele>146.0</ele><time>2026-05-01T07:41:17Z</time></trkpt><trkpt lat="45.10332059859455" lon="8.320528212871684"><ele>146.0</ele><time>2026-05-01T07:41:20Z</time></trkpt><trkpt lat="45.10325336631442" lon="8.320590837349846"><ele>146.0</ele><time>2026-05-01T07:41:23Z</time></trkpt><trkpt lat="45.10318157885561" lon="8.320649297876761"><ele>146.5</ele><time>2026-05-01T07:41:26.001Z</time></trkpt><trkpt lat="45.103109569261996" lon="8.320696803237743"><ele>147.0</ele><time>2026-05-01T07:41:29.001Z</time></trkpt><trkpt lat="45.10304079241494" lon="8.320756287099718"><ele>147.5</ele><time>2026-05-01T07:41:32.001Z</time></trkpt><trkpt lat="45.10297180423886" lon="8.320818646083389"><ele>148.0</ele><time>2026-05-01T07:41:35.001Z</time></trkpt><trkpt lat="45.10290121247236" lon="8.320881791773669"><ele>148.5</ele><time>2026-05-01T07:41:37.999Z</time></trkpt><trkpt lat="45.10282986207702" lon="8.320952938076834"><ele>149.0</ele><time>2026-05-01T07:41:40.999Z</time></trkpt><trkpt lat="45.10274651056643" lon="8.321021357305785"><ele>149.0</ele><time>2026-05-01T07:41:43.999Z</time></trkpt><trkpt lat="45.102670628332916" lon="8.321088018548382"><ele>149.0</ele><time>2026-05-01T07:41:46.999Z</time></trkpt><trkpt lat="45.10258836822432" lon="8.321146253856298"><ele>149.0</ele><time>2026-05-01T07:41:49.999Z</time></trkpt><trkpt lat="45.10251053586036" lon="8.321222590397841"><ele>149.0</ele><time>2026-05-01T07:41:52.999Z</time></trkpt><trkpt lat="45.1024544035065" lon="8.321274269662222"><ele>149.0</ele><time>2026-05-01T07:41:54.999Z</time></trkpt><trkpt lat="45.10240012851691" lon="8.321324711430476"><ele>149.0</ele><time>2026-05-01T07:41:56.999Z</time></trkpt><trkpt lat="45.10231948667111" lon="8.32138539030907"><ele>149.0</ele><time>2026-05-01T07:41:59.999Z</time></trkpt><trkpt lat="45.10224526629193" lon="8.321443220780433"><ele>149.0</ele><time>2026-05-01T07:42:03Z</time></trkpt><trkpt lat="45.10217728475214" lon="8.321506519557957"><ele>149.0</ele><time>2026-05-01T07:42:06Z</time></trkpt><trkpt lat="45.102105352837675" lon="8.321574091485276"><ele>149.0</ele><time>2026-05-01T07:42:09Z</time></trkpt><trkpt lat="45.10203714715147" lon="8.32163420712672"><ele>149.0</ele><time>2026-05-01T07:42:12Z</time></trkpt><trkpt lat="45.10196368040797" lon="8.32169514920129"><ele>149.0</ele><time>2026-05-01T07:42:15Z</time></trkpt><trkpt lat="45.10189508240842" lon="8.32175419273585"><ele>149.0</ele><time>2026-05-01T07:42:18Z</time></trkpt><trkpt lat="45.101836762708835" lon="8.321802499324903"><ele>149.0</ele><time>2026-05-01T07:42:21Z</time></trkpt><trkpt lat="45.10176848902713" lon="8.321854115864324"><ele>149.0</ele><time>2026-05-01T07:42:24Z</time></trkpt><trkpt lat="45.101695757610855" lon="8.321927905414062"><ele>149.0</ele><time>2026-05-01T07:42:27Z</time></trkpt><trkpt lat="45.101640174280035" lon="8.321974159400986"><ele>149.0</ele><time>2026-05-01T07:42:29Z</time></trkpt><trkpt lat="45.10158436819943" lon="8.322017623010717"><ele>149.0</ele><time>2026-05-01T07:42:31Z</time></trkpt><trkpt lat="45.10150809047939" lon="8.322083747595148"><ele>148.83333333333331</ele><time>2026-05-01T07:42:34Z</time></trkpt><trkpt lat="45.1014321251982" lon="8.322149517160954"><ele>148.66666666666666</ele><time>2026-05-01T07:42:37Z</time></trkpt><trkpt lat="45.101360766102445" lon="8.322216217161516"><ele>148.5</ele><time>2026-05-01T07:42:40Z</time></trkpt><trkpt lat="45.10129238870287" lon="8.32228809537888"><ele>148.33333333333334</ele><time>2026-05-01T07:42:43Z</time></trkpt><trkpt lat="45.10122362842275" lon="8.322372557688617"><ele>148.16666666666669</ele><time>2026-05-01T07:42:46Z</time></trkpt><trkpt lat="45.101153445503044" lon="8.322452663925361"><ele>148.0</ele><time>2026-05-01T07:42:49Z</time></trkpt><trkpt lat="45.101081789398684" lon="8.322535680159586"><ele>148.66666666666669</ele><time>2026-05-01T07:42:52Z</time></trkpt><trkpt lat="45.101013073771064" lon="8.322617590782153"><ele>149.33333333333334</ele><time>2026-05-01T07:42:55Z</time></trkpt><trkpt lat="45.10094101075165" lon="8.322700158590207"><ele>150.0</ele><time>2026-05-01T07:42:58Z</time></trkpt><trkpt lat="45.100870638851205" lon="8.322784746495323"><ele>150.66666666666666</ele><time>2026-05-01T07:43:01Z</time></trkpt><trkpt lat="45.10081076842537" lon="8.322887751633482"><ele>151.33333333333331</ele><time>2026-05-01T07:43:04Z</time></trkpt><trkpt lat="45.10075317510204" lon="8.322940158597522"><ele>152.0</ele><time>2026-05-01T07:43:06Z</time></trkpt><trkpt lat="45.100708627155186" lon="8.323007297628648"><ele>152.33333333333331</ele><time>2026-05-01T07:43:08Z</time></trkpt><trkpt lat="45.100647963212445" lon="8.323096292703793"><ele>152.66666666666666</ele><time>2026-05-01T07:43:11.001Z</time></trkpt><trkpt lat="45.10058251611011" lon="8.323176616214429"><ele>153.0</ele><time>2026-05-01T07:43:14.001Z</time></trkpt><trkpt lat="45.10051785665629" lon="8.323263725854064"><ele>153.33333333333334</ele><time>2026-05-01T07:43:17.001Z</time></trkpt><trkpt lat="45.10047061682267" lon="8.323332878827722"><ele>153.66666666666669</ele><time>2026-05-01T07:43:20.001Z</time></trkpt><trkpt lat="45.10041585394032" lon="8.323414100121063"><ele>154.0</ele><time>2026-05-01T07:43:23.001Z</time></trkpt><trkpt lat="45.10034925796422" lon="8.323486513655384"><ele>154.0</ele><time>2026-05-01T07:43:26.001Z</time></trkpt><trkpt lat="45.10028869143566" lon="8.32356730396614"><ele>154.0</ele><time>2026-05-01T07:43:29.001Z</time></trkpt><trkpt lat="45.10022045571821" lon="8.323649236737525"><ele>154.0</ele><time>2026-05-01T07:43:32.001Z</time></trkpt><trkpt lat="45.1001463986855" lon="8.323718421929987"><ele>154.0</ele><time>2026-05-01T07:43:35.001Z</time></trkpt><trkpt lat="45.10007726090369" lon="8.323788947642527"><ele>154.0</ele><time>2026-05-01T07:43:38.001Z</time></trkpt><trkpt lat="45.10000891451516" lon="8.323855721123216"><ele>154.0</ele><time>2026-05-01T07:43:41.001Z</time></trkpt><trkpt lat="45.09994661141126" lon="8.32392730931869"><ele>154.66666666666669</ele><time>2026-05-01T07:43:43.999Z</time></trkpt><trkpt lat="45.09987063604952" lon="8.323991526871046"><ele>155.33333333333334</ele><time>2026-05-01T07:43:46.999Z</time></trkpt><trkpt lat="45.099808052554934" lon="8.324066667023173"><ele>156.0</ele><time>2026-05-01T07:43:49.999Z</time></trkpt><trkpt lat="45.09973671350762" lon="8.32413200461354"><ele>156.66666666666666</ele><time>2026-05-01T07:43:52.999Z</time></trkpt><trkpt lat="45.0996686734295" lon="8.32419874984766"><ele>157.33333333333331</ele><time>2026-05-01T07:43:55.999Z</time></trkpt><trkpt lat="45.0996040735169" lon="8.32425842114096"><ele>158.0</ele><time>2026-05-01T07:43:58.999Z</time></trkpt><trkpt lat="45.099529608590636" lon="8.324331644805339"><ele>158.0</ele><time>2026-05-01T07:44:02Z</time></trkpt><trkpt lat="45.09945874341597" lon="8.32438858410095"><ele>158.0</ele><time>2026-05-01T07:44:05Z</time></trkpt><trkpt lat="45.09939182297264" lon="8.32446089704674"><ele>158.0</ele><time>2026-05-01T07:44:08Z</time></trkpt><trkpt lat="45.099325013394335" lon="8.324532020732558"><ele>158.0</ele><time>2026-05-01T07:44:11Z</time></trkpt><trkpt lat="45.09924836598279" lon="8.324593309437157"><ele>158.0</ele><time>2026-05-01T07:44:14Z</time></trkpt><trkpt lat="45.09919599469564" lon="8.324662072353957"><ele>158.0</ele><time>2026-05-01T07:44:17Z</time></trkpt><trkpt lat="45.09911465084618" lon="8.324725360271623"><ele>157.66666666666666</ele><time>2026-05-01T07:44:20Z</time></trkpt><trkpt lat="45.099044918614915" lon="8.324794759353141"><ele>157.33333333333331</ele><time>2026-05-01T07:44:23Z</time></trkpt><trkpt lat="45.09897615008383" lon="8.324863095576365"><ele>157.0</ele><time>2026-05-01T07:44:26Z</time></trkpt><trkpt lat="45.09891083312863" lon="8.324932455210199"><ele>156.66666666666666</ele><time>2026-05-01T07:44:29Z</time></trkpt><trkpt lat="45.09883728064481" lon="8.32499593113902"><ele>156.33333333333334</ele><time>2026-05-01T07:44:32Z</time></trkpt><trkpt lat="45.09877363831047" lon="8.325065274488365"><ele>156.0</ele><time>2026-05-01T07:44:35Z</time></trkpt><trkpt lat="45.09870597551689" lon="8.3251308279705"><ele>156.0</ele><time>2026-05-01T07:44:38Z</time></trkpt><trkpt lat="45.09863080772165" lon="8.325201024786145"><ele>156.0</ele><time>2026-05-01T07:44:41Z</time></trkpt><trkpt lat="45.098556566422715" lon="8.325268965836699"><ele>156.0</ele><time>2026-05-01T07:44:44Z</time></trkpt><trkpt lat="45.09848736091767" lon="8.32533962056992"><ele>156.0</ele><time>2026-05-01T07:44:47Z</time></trkpt><trkpt lat="45.09842066596115" lon="8.32541396861828"><ele>156.0</ele><time>2026-05-01T07:44:50Z</time></trkpt><trkpt lat="45.09834887062516" lon="8.325485708327633"><ele>156.0</ele><time>2026-05-01T07:44:53Z</time></trkpt><trkpt lat="45.09827695761818" lon="8.325548705922621"><ele>156.66666666666666</ele><time>2026-05-01T07:44:56Z</time></trkpt><trkpt lat="45.0982090123622" lon="8.325614008375558"><ele>157.33333333333334</ele><time>2026-05-01T07:44:59.001Z</time></trkpt><trkpt lat="45.09813382776212" lon="8.325680992836899"><ele>158.0</ele><time>2026-05-01T07:45:02.001Z</time></trkpt><trkpt lat="45.098063516191566" lon="8.325754140052583"><ele>158.66666666666669</ele><time>2026-05-01T07:45:05.001Z</time></trkpt><trkpt lat="45.09799206163019" lon="8.325825833824302"><ele>159.33333333333334</ele><time>2026-05-01T07:45:08.001Z</time></trkpt><trkpt lat="45.097921283031205" lon="8.32589271605124"><ele>160.0</ele><time>2026-05-01T07:45:11.001Z</time></trkpt><trkpt lat="45.0978569346032" lon="8.32596320815342"><ele>160.0</ele><time>2026-05-01T07:45:14.001Z</time></trkpt><trkpt lat="45.09778096364059" lon="8.326026732384731"><ele>160.0</ele><time>2026-05-01T07:45:17.001Z</time></trkpt><trkpt lat="45.09771176805357" lon="8.326102342305257"><ele>160.0</ele><time>2026-05-01T07:45:20.001Z</time></trkpt><trkpt lat="45.0976393192886" lon="8.326168026170345"><ele>160.0</ele><time>2026-05-01T07:45:23.001Z</time></trkpt><trkpt lat="45.09756691883913" lon="8.326236585900881"><ele>160.0</ele><time>2026-05-01T07:45:26.001Z</time></trkpt><trkpt lat="45.09749132169972" lon="8.326309761751139"><ele>160.0</ele><time>2026-05-01T07:45:29.001Z</time></trkpt><trkpt lat="45.0974129350831" lon="8.326382559430048"><ele>160.0</ele><time>2026-05-01T07:45:32.001Z</time></trkpt><trkpt lat="45.0973452708352" lon="8.326473464613665"><ele>160.0</ele><time>2026-05-01T07:45:35.001Z</time></trkpt><trkpt lat="45.097290928847514" lon="8.326521879435704"><ele>160.0</ele><time>2026-05-01T07:45:37.001Z</time></trkpt><trkpt lat="45.09721463200233" lon="8.326597256834276"><ele>160.0</ele><time>2026-05-01T07:45:40.001Z</time></trkpt><trkpt lat="45.09713312253417" lon="8.326664060645701"><ele>160.0</ele><time>2026-05-01T07:45:43.001Z</time></trkpt><trkpt lat="45.09707999789867" lon="8.326711961284216"><ele>160.0</ele><time>2026-05-01T07:45:45.001Z</time></trkpt><trkpt lat="45.09699992622424" lon="8.326785398601434"><ele>160.0</ele><time>2026-05-01T07:45:48.001Z</time></trkpt><trkpt lat="45.09694642952432" lon="8.326838520393707"><ele>160.0</ele><time>2026-05-01T07:45:49.999Z</time></trkpt><trkpt lat="45.0968951052121" lon="8.326891636984941"><ele>160.0</ele><time>2026-05-01T07:45:51.999Z</time></trkpt><trkpt lat="45.09682024355628" lon="8.326963773355722"><ele>160.0</ele><time>2026-05-01T07:45:54.999Z</time></trkpt><trkpt lat="45.096742785003165" lon="8.327035233566665"><ele>160.0</ele><time>2026-05-01T07:45:57.999Z</time></trkpt><trkpt lat="45.09667154441345" lon="8.327113271507088"><ele>160.0</ele><time>2026-05-01T07:46:00.999Z</time></trkpt><trkpt lat="45.09659821763962" lon="8.327184253137212"><ele>160.33333333333334</ele><time>2026-05-01T07:46:03.999Z</time></trkpt><trkpt lat="45.09651984650239" lon="8.327251166837389"><ele>160.66666666666669</ele><time>2026-05-01T07:46:06.999Z</time></trkpt><trkpt lat="45.096466943163975" lon="8.327299503392613"><ele>161.0</ele><time>2026-05-01T07:46:09Z</time></trkpt><trkpt lat="45.096393011481354" lon="8.32737889005973"><ele>161.33333333333334</ele><time>2026-05-01T07:46:12Z</time></trkpt><trkpt lat="45.09631263556746" lon="8.327446334524742"><ele>161.66666666666666</ele><time>2026-05-01T07:46:15Z</time></trkpt><trkpt lat="45.096233435228356" lon="8.327506738033543"><ele>162.0</ele><time>2026-05-01T07:46:18Z</time></trkpt><trkpt lat="45.096175281672934" lon="8.327543609468155"><ele>162.0</ele><time>2026-05-01T07:46:20Z</time></trkpt><trkpt lat="45.096087905041415" lon="8.327594942620442"><ele>162.0</ele><time>2026-05-01T07:46:23Z</time></trkpt><trkpt lat="45.09602879738159" lon="8.327629145074466"><ele>162.0</ele><time>2026-05-01T07:46:25Z</time></trkpt><trkpt lat="45.09598616424111" lon="8.327700137615688"><ele>162.0</ele><time>2026-05-01T07:46:27Z</time></trkpt><trkpt lat="45.09593076365192" lon="8.327747325152005"><ele>162.0</ele><time>2026-05-01T07:46:29Z</time></trkpt><trkpt lat="45.09584881164062" lon="8.3278105954398"><ele>162.0</ele><time>2026-05-01T07:46:32Z</time></trkpt><trkpt lat="45.09579323377973" lon="8.32785711369911"><ele>162.0</ele><time>2026-05-01T07:46:34Z</time></trkpt><trkpt lat="45.095741914905695" lon="8.327910183512676"><ele>162.14285714285714</ele><time>2026-05-01T07:46:36Z</time></trkpt><trkpt lat="45.0956806591439" lon="8.327955928378115"><ele>162.28571428571428</ele><time>2026-05-01T07:46:38Z</time></trkpt><trkpt lat="45.09562226362186" lon="8.327998187739093"><ele>162.42857142857144</ele><time>2026-05-01T07:46:40Z</time></trkpt><trkpt lat="45.095566923656484" lon="8.328056832277186"><ele>162.57142857142856</ele><time>2026-05-01T07:46:42Z</time></trkpt><trkpt lat="45.095508730063905" lon="8.3280969147528"><ele>162.7142857142857</ele><time>2026-05-01T07:46:44Z</time></trkpt><trkpt lat="45.095424557842314" lon="8.328150140162478"><ele>162.85714285714286</ele><time>2026-05-01T07:46:47Z</time></trkpt><trkpt lat="45.0953447228392" lon="8.328199933198128"><ele>163.0</ele><time>2026-05-01T07:46:50Z</time></trkpt><trkpt lat="45.09527124992344" lon="8.328260329258818"><ele>163.33333333333334</ele><time>2026-05-01T07:46:53Z</time></trkpt><trkpt lat="45.09519430467035" lon="8.32831270916467"><ele>163.66666666666669</ele><time>2026-05-01T07:46:56Z</time></trkpt><trkpt lat="45.09511397606259" lon="8.328374047306857"><ele>164.0</ele><time>2026-05-01T07:46:59.001Z</time></trkpt><trkpt lat="45.09503725841271" lon="8.328442237602724"><ele>164.33333333333334</ele><time>2026-05-01T07:47:02.001Z</time></trkpt><trkpt lat="45.09495981972668" lon="8.328513631602073"><ele>164.66666666666666</ele><time>2026-05-01T07:47:05.001Z</time></trkpt><trkpt lat="45.094905328547995" lon="8.328560946988969"><ele>165.0</ele><time>2026-05-01T07:47:07.001Z</time></trkpt><trkpt lat="45.09483046413437" lon="8.328634614877378"><ele>165.0</ele><time>2026-05-01T07:47:10.001Z</time></trkpt><trkpt lat="45.09475418860463" lon="8.328708644619711"><ele>165.0</ele><time>2026-05-01T07:47:13.001Z</time></trkpt><trkpt lat="45.094673048870796" lon="8.328774100095936"><ele>165.0</ele><time>2026-05-01T07:47:16.001Z</time></trkpt><trkpt lat="45.09459047686687" lon="8.328828735659384"><ele>165.0</ele><time>2026-05-01T07:47:19.001Z</time></trkpt><trkpt lat="45.09450704847213" lon="8.328881280016967"><ele>165.0</ele><time>2026-05-01T07:47:22.001Z</time></trkpt><trkpt lat="45.094419602768745" lon="8.32892400494837"><ele>164.83333333333334</ele><time>2026-05-01T07:47:25.001Z</time></trkpt><trkpt lat="45.09433293558945" lon="8.328968098830746"><ele>164.66666666666666</ele><time>2026-05-01T07:47:28.001Z</time></trkpt><trkpt lat="45.094253586710145" lon="8.329013535224597"><ele>164.5</ele><time>2026-05-01T07:47:31.001Z</time></trkpt><trkpt lat="45.09418150841847" lon="8.32906892983748"><ele>164.33333333333331</ele><time>2026-05-01T07:47:34.001Z</time></trkpt><trkpt lat="45.0941762489456" lon="8.329198676705573"><ele>164.16666666666666</ele><time>2026-05-01T07:47:37.001Z</time></trkpt><trkpt lat="45.09419879779231" lon="8.329282372124156"><ele>164.0</ele><time>2026-05-01T07:47:39.001Z</time></trkpt><trkpt lat="45.094236149488296" lon="8.329393194438648"><ele>164.0</ele><time>2026-05-01T07:47:42.001Z</time></trkpt><trkpt lat="45.09426807558007" lon="8.329503150151641"><ele>164.0</ele><time>2026-05-01T07:47:45.001Z</time></trkpt><trkpt lat="45.094301798121535" lon="8.329609901388974"><ele>164.0</ele><time>2026-05-01T07:47:48.001Z</time></trkpt><trkpt lat="45.09433590987788" lon="8.329711267207879"><ele>164.0</ele><time>2026-05-01T07:47:51.001Z</time></trkpt><trkpt lat="45.09436221226338" lon="8.329820688499256"><ele>164.0</ele><time>2026-05-01T07:47:54.001Z</time></trkpt><trkpt lat="45.09438354787518" lon="8.329930550669994"><ele>164.0</ele><time>2026-05-01T07:47:56.999Z</time></trkpt><trkpt lat="45.094395281502464" lon="8.330044392869391"><ele>164.16666666666666</ele><time>2026-05-01T07:47:59.999Z</time></trkpt><trkpt lat="45.09439022342622" lon="8.330157506185015"><ele>164.33333333333331</ele><time>2026-05-01T07:48:02.999Z</time></trkpt><trkpt lat="45.09436321760124" lon="8.330260325906533"><ele>164.5</ele><time>2026-05-01T07:48:05.999Z</time></trkpt><trkpt lat="45.09433782247892" lon="8.33036311203476"><ele>164.66666666666666</ele><time>2026-05-01T07:48:08.999Z</time></trkpt><trkpt lat="45.094314226629656" lon="8.330464810120493"><ele>164.83333333333334</ele><time>2026-05-01T07:48:11.999Z</time></trkpt><trkpt lat="45.09429510034837" lon="8.330564315761722"><ele>165.0</ele><time>2026-05-01T07:48:14.999Z</time></trkpt><trkpt lat="45.094289461099834" lon="8.330664378047"><ele>165.57142857142858</ele><time>2026-05-01T07:48:17.999Z</time></trkpt><trkpt lat="45.09429415982376" lon="8.330766263383131"><ele>166.14285714285714</ele><time>2026-05-01T07:48:21Z</time></trkpt><trkpt lat="45.094310358631795" lon="8.330862256539522"><ele>166.71428571428572</ele><time>2026-05-01T07:48:24Z</time></trkpt><trkpt lat="45.09433484377399" lon="8.330956281537475"><ele>167.28571428571428</ele><time>2026-05-01T07:48:27Z</time></trkpt><trkpt lat="45.094375089006384" lon="8.331042916102584"><ele>167.85714285714286</ele><time>2026-05-01T07:48:30Z</time></trkpt><trkpt lat="45.094423562329524" lon="8.331120657096879"><ele>168.42857142857144</ele><time>2026-05-01T07:48:33Z</time></trkpt><trkpt lat="45.09447817473847" lon="8.331191229213118"><ele>169.0</ele><time>2026-05-01T07:48:36Z</time></trkpt><trkpt lat="45.09454208631612" lon="8.331266657804695"><ele>169.0</ele><time>2026-05-01T07:48:40Z</time></trkpt><trkpt lat="45.09459808829171" lon="8.331331146338474"><ele>169.0</ele><time>2026-05-01T07:48:43Z</time></trkpt><trkpt lat="45.09465215947442" lon="8.331394735494392"><ele>169.0</ele><time>2026-05-01T07:48:47Z</time></trkpt><trkpt lat="45.094706658002096" lon="8.331471830930871"><ele>169.0</ele><time>2026-05-01T07:48:51Z</time></trkpt><trkpt lat="45.094747080393006" lon="8.331571111744267"><ele>169.0</ele><time>2026-05-01T07:48:55Z</time></trkpt><trkpt lat="45.09478532082481" lon="8.331669021138088"><ele>169.0</ele><time>2026-05-01T07:48:59Z</time></trkpt><trkpt lat="45.09481904258632" lon="8.331766137282916"><ele>170.42857142857144</ele><time>2026-05-01T07:49:03.001Z</time></trkpt><trkpt lat="45.09484669953105" lon="8.33184685567839"><ele>171.85714285714286</ele><time>2026-05-01T07:49:06.001Z</time></trkpt><trkpt lat="45.09487369961112" lon="8.331932043953158"><ele>173.28571428571428</ele><time>2026-05-01T07:49:09.001Z</time></trkpt><trkpt lat="45.094904675675465" lon="8.33203048329304"><ele>174.71428571428572</ele><time>2026-05-01T07:49:13.001Z</time></trkpt><trkpt lat="45.09494121381747" lon="8.332133072661424"><ele>176.14285714285714</ele><time>2026-05-01T07:49:17.001Z</time></trkpt><trkpt lat="45.09497158643627" lon="8.332238936385732"><ele>177.57142857142858</ele><time>2026-05-01T07:49:21.001Z</time></trkpt><trkpt lat="45.09501969870734" lon="8.332327775538236"><ele>179.0</ele><time>2026-05-01T07:49:25.001Z</time></trkpt><trkpt lat="45.095079868543706" lon="8.332410644043089"><ele>180.33333333333331</ele><time>2026-05-01T07:49:29.001Z</time></trkpt><trkpt lat="45.095143736672114" lon="8.332479886894793"><ele>181.66666666666666</ele><time>2026-05-01T07:49:33.001Z</time></trkpt><trkpt lat="45.09521004998324" lon="8.332542864898196"><ele>183.0</ele><time>2026-05-01T07:49:37.001Z</time></trkpt><trkpt lat="45.09528591528746" lon="8.332587778973222"><ele>184.33333333333334</ele><time>2026-05-01T07:49:41.001Z</time></trkpt><trkpt lat="45.0953621261608" lon="8.332632470249427"><ele>185.66666666666669</ele><time>2026-05-01T07:49:45.001Z</time></trkpt><trkpt lat="45.09541891598726" lon="8.332710480078482"><ele>187.0</ele><time>2026-05-01T07:49:49.001Z</time></trkpt><trkpt lat="45.09546925449715" lon="8.332774853910996"><ele>187.0</ele><time>2026-05-01T07:49:52.002Z</time></trkpt><trkpt lat="45.09551364032623" lon="8.332839675285566"><ele>187.0</ele><time>2026-05-01T07:49:55.002Z</time></trkpt><trkpt lat="45.095552840525215" lon="8.332914143913467"><ele>187.0</ele><time>2026-05-01T07:49:58.002Z</time></trkpt><trkpt lat="45.09560471650212" lon="8.33297172806711"><ele>187.0</ele><time>2026-05-01T07:50:00.999Z</time></trkpt><trkpt lat="45.09568318436682" lon="8.333016569131935"><ele>187.0</ele><time>2026-05-01T07:50:04.999Z</time></trkpt><trkpt lat="45.09576237670648" lon="8.333051480880822"><ele>187.0</ele><time>2026-05-01T07:50:08.999Z</time></trkpt><trkpt lat="45.09582432255476" lon="8.333070364408048"><ele>187.0</ele><time>2026-05-01T07:50:11.999Z</time></trkpt><trkpt lat="45.09588663119988" lon="8.33308920420497"><ele>189.0</ele><time>2026-05-01T07:50:14.999Z</time></trkpt><trkpt lat="45.0959465091371" lon="8.333118363688945"><ele>191.0</ele><time>2026-05-01T07:50:17.999Z</time></trkpt><trkpt lat="45.09600240330518" lon="8.333173546855267"><ele>193.0</ele><time>2026-05-01T07:50:21Z</time></trkpt><trkpt lat="45.09605421518694" lon="8.33324028478398"><ele>195.0</ele><time>2026-05-01T07:50:24Z</time></trkpt><trkpt lat="45.09609163040257" lon="8.333346366910728"><ele>197.0</ele><time>2026-05-01T07:50:28Z</time></trkpt><trkpt lat="45.09612249001467" lon="8.33343214862203"><ele>199.0</ele><time>2026-05-01T07:50:31Z</time></trkpt><trkpt lat="45.09615779180193" lon="8.333540629804272"><ele>201.0</ele><time>2026-05-01T07:50:35Z</time></trkpt><trkpt lat="45.09616411279399" lon="8.333634669265487"><ele>201.0</ele><time>2026-05-01T07:50:38Z</time></trkpt><trkpt lat="45.096177817882165" lon="8.33375055875062"><ele>201.0</ele><time>2026-05-01T07:50:42Z</time></trkpt><trkpt lat="45.0961435990871" lon="8.333837139148276"><ele>201.0</ele><time>2026-05-01T07:50:46Z</time></trkpt><trkpt lat="45.09608207595785" lon="8.333862250336677"><ele>201.0</ele><time>2026-05-01T07:50:50Z</time></trkpt><trkpt lat="45.095997728756416" lon="8.333876433167028"><ele>201.0</ele><time>2026-05-01T07:50:54.001Z</time></trkpt><trkpt lat="45.09593369221954" lon="8.333901706591954"><ele>201.0</ele><time>2026-05-01T07:50:57.001Z</time></trkpt><trkpt lat="45.09586894447445" lon="8.333916621587395"><ele>201.0</ele><time>2026-05-01T07:51:00.001Z</time></trkpt><trkpt lat="45.09580387723895" lon="8.333947136380969"><ele>201.85714285714286</ele><time>2026-05-01T07:51:03.001Z</time></trkpt><trkpt lat="45.09574136937566" lon="8.333979967417788"><ele>202.71428571428572</ele><time>2026-05-01T07:51:06.001Z</time></trkpt><trkpt lat="45.095678686434574" lon="8.334006311004506"><ele>203.57142857142858</ele><time>2026-05-01T07:51:09.001Z</time></trkpt><trkpt lat="45.095613187162066" lon="8.33402955180169"><ele>204.42857142857144</ele><time>2026-05-01T07:51:12.001Z</time></trkpt><trkpt lat="45.0955469036909" lon="8.334051617224171"><ele>205.28571428571428</ele><time>2026-05-01T07:51:15.001Z</time></trkpt><trkpt lat="45.09548522754357" lon="8.334079296032828"><ele>206.14285714285717</ele><time>2026-05-01T07:51:18.001Z</time></trkpt><trkpt lat="45.095404412215885" lon="8.334111714996306"><ele>207.0</ele><time>2026-05-01T07:51:22.001Z</time></trkpt><trkpt lat="45.095344837907895" lon="8.334172091271009"><ele>207.0</ele><time>2026-05-01T07:51:25.001Z</time></trkpt><trkpt lat="45.09529070627488" lon="8.334259654240846"><ele>207.0</ele><time>2026-05-01T07:51:28.001Z</time></trkpt><trkpt lat="45.095223693517845" lon="8.334335688669166"><ele>207.0</ele><time>2026-05-01T07:51:31.001Z</time></trkpt><trkpt lat="45.09514382225321" lon="8.334339442011915"><ele>207.0</ele><time>2026-05-01T07:51:34.001Z</time></trkpt><trkpt lat="45.09508139604616" lon="8.334311537830258"><ele>207.0</ele><time>2026-05-01T07:51:36.001Z</time></trkpt><trkpt lat="45.09499813664541" lon="8.334288061715917"><ele>207.0</ele><time>2026-05-01T07:51:39.002Z</time></trkpt><trkpt lat="45.09490612557596" lon="8.334266211168186"><ele>207.00000000000003</ele><time>2026-05-01T07:51:42.002Z</time></trkpt><trkpt lat="45.094838567478085" lon="8.334246942621213"><ele>207.0</ele><time>2026-05-01T07:51:44.002Z</time></trkpt><trkpt lat="45.094766164798315" lon="8.334236659380775"><ele>207.0</ele><time>2026-05-01T07:51:46.002Z</time></trkpt><trkpt lat="45.09469646281046" lon="8.334212957910214"><ele>207.0</ele><time>2026-05-01T07:51:48.002Z</time></trkpt><trkpt lat="45.094626502282324" lon="8.334207527577426"><ele>207.0</ele><time>2026-05-01T07:51:50.002Z</time></trkpt><trkpt lat="45.09455900468657" lon="8.334194343253607"><ele>207.00000000000003</ele><time>2026-05-01T07:51:52.002Z</time></trkpt><trkpt lat="45.094476311961444" lon="8.334163798250259"><ele>207.0</ele><time>2026-05-01T07:51:55.002Z</time></trkpt><trkpt lat="45.09441291681278" lon="8.334132886775718"><ele>207.0</ele><time>2026-05-01T07:51:57.002Z</time></trkpt><trkpt lat="45.094326818586374" lon="8.334104701196571"><ele>207.0</ele><time>2026-05-01T07:52:00.002Z</time></trkpt><trkpt lat="45.09424246829519" lon="8.334069022063511"><ele>207.0</ele><time>2026-05-01T07:52:03.002Z</time></trkpt><trkpt lat="45.09415394695325" lon="8.334042201303294"><ele>207.0</ele><time>2026-05-01T07:52:06.002Z</time></trkpt><trkpt lat="45.09406248738835" lon="8.334015202021158"><ele>207.0</ele><time>2026-05-01T07:52:08.999Z</time></trkpt><trkpt lat="45.0939820679069" lon="8.333997323692712"><ele>207.0</ele><time>2026-05-01T07:52:11.999Z</time></trkpt><trkpt lat="45.09390052844695" lon="8.333976508182314"><ele>206.83333333333334</ele><time>2026-05-01T07:52:14.999Z</time></trkpt><trkpt lat="45.09381781501939" lon="8.333958278696503"><ele>206.66666666666669</ele><time>2026-05-01T07:52:17.999Z</time></trkpt><trkpt lat="45.093731531698104" lon="8.333937376619046"><ele>206.5</ele><time>2026-05-01T07:52:20.999Z</time></trkpt><trkpt lat="45.093649083221656" lon="8.333934646653335"><ele>206.33333333333334</ele><time>2026-05-01T07:52:24Z</time></trkpt><trkpt lat="45.09358589500418" lon="8.333954752949605"><ele>206.16666666666669</ele><time>2026-05-01T07:52:26Z</time></trkpt><trkpt lat="45.09352474028813" lon="8.333990774513916"><ele>206.0</ele><time>2026-05-01T07:52:28Z</time></trkpt><trkpt lat="45.09346234903215" lon="8.33403993122817"><ele>205.99999999999997</ele><time>2026-05-01T07:52:30Z</time></trkpt><trkpt lat="45.09339752159021" lon="8.334093542120119"><ele>206.0</ele><time>2026-05-01T07:52:32Z</time></trkpt><trkpt lat="45.093335459701706" lon="8.334145882251875"><ele>206.0</ele><time>2026-05-01T07:52:34Z</time></trkpt><trkpt lat="45.09327734565518" lon="8.334203932517385"><ele>206.0</ele><time>2026-05-01T07:52:36Z</time></trkpt><trkpt lat="45.09322089997311" lon="8.33425617742694"><ele>206.0</ele><time>2026-05-01T07:52:38Z</time></trkpt><trkpt lat="45.09316351802321" lon="8.334316909162988"><ele>205.99999999999997</ele><time>2026-05-01T07:52:40Z</time></trkpt><trkpt lat="45.09310670780752" lon="8.334369205001234"><ele>206.0</ele><time>2026-05-01T07:52:42Z</time></trkpt><trkpt lat="45.09305074098368" lon="8.334416322448611"><ele>205.42857142857142</ele><time>2026-05-01T07:52:44Z</time></trkpt><trkpt lat="45.09298497783293" lon="8.334482379892954"><ele>204.85714285714286</ele><time>2026-05-01T07:52:47Z</time></trkpt><trkpt lat="45.09293202676643" lon="8.33453569694318"><ele>204.28571428571428</ele><time>2026-05-01T07:52:50Z</time></trkpt><trkpt lat="45.09287018007226" lon="8.334597488276394"><ele>203.71428571428572</ele><time>2026-05-01T07:52:54.001Z</time></trkpt><trkpt lat="45.09281042251552" lon="8.334665503193902"><ele>203.14285714285714</ele><time>2026-05-01T07:52:58.001Z</time></trkpt><trkpt lat="45.09275137923003" lon="8.334700679865893"><ele>202.57142857142856</ele><time>2026-05-01T07:53:01.001Z</time></trkpt><trkpt lat="45.09269332926244" lon="8.33473996070368"><ele>202.0</ele><time>2026-05-01T07:53:04.001Z</time></trkpt><trkpt lat="45.0926286083494" lon="8.334776488006156"><ele>203.14285714285714</ele><time>2026-05-01T07:53:07.001Z</time></trkpt><trkpt lat="45.09256362794502" lon="8.334808649553949"><ele>204.28571428571428</ele><time>2026-05-01T07:53:10.001Z</time></trkpt><trkpt lat="45.09249381254368" lon="8.334839699910747"><ele>205.42857142857144</ele><time>2026-05-01T07:53:13.001Z</time></trkpt><trkpt lat="45.09242836982338" lon="8.334881014238109"><ele>206.57142857142856</ele><time>2026-05-01T07:53:16.001Z</time></trkpt><trkpt lat="45.09236729907652" lon="8.334911306402923"><ele>207.71428571428572</ele><time>2026-05-01T07:53:19.001Z</time></trkpt><trkpt lat="45.09230714569251" lon="8.334938654863517"><ele>208.85714285714286</ele><time>2026-05-01T07:53:22.001Z</time></trkpt><trkpt lat="45.09224713254891" lon="8.334969968196273"><ele>210.0</ele><time>2026-05-01T07:53:25.001Z</time></trkpt><trkpt lat="45.09218609270769" lon="8.334998896501984"><ele>210.85714285714286</ele><time>2026-05-01T07:53:28.001Z</time></trkpt><trkpt lat="45.09210781081708" lon="8.335018894300394"><ele>211.71428571428572</ele><time>2026-05-01T07:53:32.001Z</time></trkpt><trkpt lat="45.09202476514923" lon="8.335019271851603"><ele>212.57142857142856</ele><time>2026-05-01T07:53:36.002Z</time></trkpt><trkpt lat="45.09196139188271" lon="8.335002946711564"><ele>213.42857142857144</ele><time>2026-05-01T07:53:39.002Z</time></trkpt><trkpt lat="45.091892146621475" lon="8.334982162318077"><ele>214.28571428571428</ele><time>2026-05-01T07:53:42.002Z</time></trkpt><trkpt lat="45.09181016567302" lon="8.334968070969781"><ele>215.14285714285714</ele><time>2026-05-01T07:53:46.002Z</time></trkpt><trkpt lat="45.09174411756645" lon="8.334951200782639"><ele>216.0</ele><time>2026-05-01T07:53:49.002Z</time></trkpt><trkpt lat="45.09166271556591" lon="8.33492795277234"><ele>216.0</ele><time>2026-05-01T07:53:53.002Z</time></trkpt><trkpt lat="45.091600893648476" lon="8.334910673494365"><ele>216.0</ele><time>2026-05-01T07:53:56.002Z</time></trkpt><trkpt lat="45.09153855129696" lon="8.33489254592137"><ele>216.0</ele><time>2026-05-01T07:53:59.002Z</time></trkpt><trkpt lat="45.09145501042256" lon="8.334871011018656"><ele>216.0</ele><time>2026-05-01T07:54:03.002Z</time></trkpt><trkpt lat="45.091385652510795" lon="8.33484616501407"><ele>216.0</ele><time>2026-05-01T07:54:06.002Z</time></trkpt><trkpt lat="45.091313347437044" lon="8.33482898190329"><ele>216.0</ele><time>2026-05-01T07:54:09.002Z</time></trkpt><trkpt lat="45.09124074837644" lon="8.334809553355276"><ele>216.0</ele><time>2026-05-01T07:54:12.002Z</time></trkpt><trkpt lat="45.09116912124779" lon="8.334790728403862"><ele>216.33333333333334</ele><time>2026-05-01T07:54:15Z</time></trkpt><trkpt lat="45.09109222561275" lon="8.33478412257165"><ele>216.66666666666669</ele><time>2026-05-01T07:54:18Z</time></trkpt><trkpt lat="45.091014339002555" lon="8.334772900163394"><ele>217.0</ele><time>2026-05-01T07:54:21Z</time></trkpt><trkpt lat="45.09093854694688" lon="8.334754929642562"><ele>217.33333333333334</ele><time>2026-05-01T07:54:24Z</time></trkpt><trkpt lat="45.09086422868317" lon="8.334711953987487"><ele>217.66666666666669</ele><time>2026-05-01T07:54:27Z</time></trkpt><trkpt lat="45.090790889139726" lon="8.33467335456089"><ele>218.0</ele><time>2026-05-01T07:54:30Z</time></trkpt><trkpt lat="45.090721605328184" lon="8.334625357994538"><ele>218.28571428571428</ele><time>2026-05-01T07:54:33Z</time></trkpt><trkpt lat="45.09065584687684" lon="8.334570828193415"><ele>218.57142857142858</ele><time>2026-05-01T07:54:36Z</time></trkpt><trkpt lat="45.09060044440044" lon="8.334525057827245"><ele>218.85714285714283</ele><time>2026-05-01T07:54:39Z</time></trkpt><trkpt lat="45.09053250225592" lon="8.334469861426317"><ele>219.14285714285714</ele><time>2026-05-01T07:54:43Z</time></trkpt><trkpt lat="45.09047085111294" lon="8.334411589562967"><ele>219.42857142857142</ele><time>2026-05-01T07:54:47Z</time></trkpt><trkpt lat="45.09041048080582" lon="8.334341640906281"><ele>219.7142857142857</ele><time>2026-05-01T07:54:52Z</time></trkpt><trkpt lat="45.09035712907101" lon="8.33429424014585"><ele>220.0</ele><time>2026-05-01T07:54:56.001Z</time></trkpt><trkpt lat="45.090302972340965" lon="8.334240240797037"><ele>219.99999999999997</ele><time>2026-05-01T07:55:00.001Z</time></trkpt><trkpt lat="45.090241688978224" lon="8.334191031688846"><ele>220.0</ele><time>2026-05-01T07:55:04.001Z</time></trkpt><trkpt lat="45.09016733499408" lon="8.334149946658957"><ele>220.0</ele><time>2026-05-01T07:55:08.001Z</time></trkpt><trkpt lat="45.09009458799746" lon="8.334117593051689"><ele>220.0</ele><time>2026-05-01T07:55:12.001Z</time></trkpt><trkpt lat="45.09002135104293" lon="8.334070083603338"><ele>219.99999999999997</ele><time>2026-05-01T07:55:16.001Z</time></trkpt><trkpt lat="45.089944553897" lon="8.334033446405803"><ele>220.0</ele><time>2026-05-01T07:55:19.001Z</time></trkpt><trkpt lat="45.089877538117726" lon="8.333994694749503"><ele>219.16666666666666</ele><time>2026-05-01T07:55:22.001Z</time></trkpt><trkpt lat="45.089803718835334" lon="8.333953724163925"><ele>218.33333333333331</ele><time>2026-05-01T07:55:25.001Z</time></trkpt><trkpt lat="45.08973808319881" lon="8.333922453149263"><ele>217.5</ele><time>2026-05-01T07:55:27.001Z</time></trkpt><trkpt lat="45.08967174391025" lon="8.333889828222581"><ele>216.66666666666669</ele><time>2026-05-01T07:55:29.001Z</time></trkpt><trkpt lat="45.08958751443006" lon="8.333845782579694"><ele>215.83333333333334</ele><time>2026-05-01T07:55:31.001Z</time></trkpt><trkpt lat="45.08949865731273" lon="8.333809454897956"><ele>215.0</ele><time>2026-05-01T07:55:33.002Z</time></trkpt><trkpt lat="45.08940660240658" lon="8.333763336330893"><ele>214.6</ele><time>2026-05-01T07:55:35.002Z</time></trkpt><trkpt lat="45.08931516292291" lon="8.333719488635408"><ele>214.2</ele><time>2026-05-01T07:55:37.002Z</time></trkpt><trkpt lat="45.08922388035137" lon="8.33367810950497"><ele>213.8</ele><time>2026-05-01T07:55:39.002Z</time></trkpt><trkpt lat="45.089127247190845" lon="8.333636226086131"><ele>213.4</ele><time>2026-05-01T07:55:41.002Z</time></trkpt><trkpt lat="45.08903416477518" lon="8.333594022183787"><ele>213.0</ele><time>2026-05-01T07:55:43.002Z</time></trkpt><trkpt lat="45.08894452909425" lon="8.333538735607661"><ele>212.0</ele><time>2026-05-01T07:55:45.002Z</time></trkpt><trkpt lat="45.08885455605591" lon="8.333473950773303"><ele>211.0</ele><time>2026-05-01T07:55:47.002Z</time></trkpt><trkpt lat="45.088796321931525" lon="8.333405467875135"><ele>210.0</ele><time>2026-05-01T07:55:49.002Z</time></trkpt><trkpt lat="45.088734295750534" lon="8.333360940385178"><ele>209.0</ele><time>2026-05-01T07:55:52.002Z</time></trkpt><trkpt lat="45.08867098944286" lon="8.333428720199283"><ele>208.0</ele><time>2026-05-01T07:55:55.002Z</time></trkpt><trkpt lat="45.08865748337155" lon="8.33352335288791"><ele>207.0</ele><time>2026-05-01T07:55:57.002Z</time></trkpt><trkpt lat="45.08862720854921" lon="8.333630681660487"><ele>207.0</ele><time>2026-05-01T07:56:00.002Z</time></trkpt><trkpt lat="45.0886143402859" lon="8.333750979792955"><ele>207.0</ele><time>2026-05-01T07:56:03.002Z</time></trkpt><trkpt lat="45.08860625729586" lon="8.333860780761393"><ele>207.0</ele><time>2026-05-01T07:56:06.002Z</time></trkpt><trkpt lat="45.08861042724499" lon="8.33399075843169"><ele>207.0</ele><time>2026-05-01T07:56:09.002Z</time></trkpt><trkpt lat="45.088612430803586" lon="8.334109151013362"><ele>207.0</ele><time>2026-05-01T07:56:12.002Z</time></trkpt><trkpt lat="45.088610449234565" lon="8.334220599104555"><ele>207.0</ele><time>2026-05-01T07:56:15.003Z</time></trkpt><trkpt lat="45.0886202355727" lon="8.334349440137844"><ele>206.5</ele><time>2026-05-01T07:56:18.003Z</time></trkpt><trkpt lat="45.08862810243319" lon="8.334473950031779"><ele>206.0</ele><time>2026-05-01T07:56:21Z</time></trkpt><trkpt lat="45.08863695789045" lon="8.33459025478777"><ele>205.5</ele><time>2026-05-01T07:56:24Z</time></trkpt><trkpt lat="45.08864772830535" lon="8.334718058147882"><ele>205.0</ele><time>2026-05-01T07:56:27Z</time></trkpt><trkpt lat="45.088651053354376" lon="8.334841816419193"><ele>204.5</ele><time>2026-05-01T07:56:30Z</time></trkpt><trkpt lat="45.08865475818717" lon="8.334933001212452"><ele>204.0</ele><time>2026-05-01T07:56:32Z</time></trkpt><trkpt lat="45.08867512576739" lon="8.3350511568017"><ele>203.66666666666666</ele><time>2026-05-01T07:56:35Z</time></trkpt><trkpt lat="45.08869460320634" lon="8.335164550540249"><ele>203.33333333333331</ele><time>2026-05-01T07:56:38Z</time></trkpt><trkpt lat="45.08872120914907" lon="8.335262816352385"><ele>203.0</ele><time>2026-05-01T07:56:41Z</time></trkpt><trkpt lat="45.08874546163999" lon="8.335353342711887"><ele>202.66666666666666</ele><time>2026-05-01T07:56:44Z</time></trkpt><trkpt lat="45.08877431434701" lon="8.335456391491835"><ele>202.33333333333331</ele><time>2026-05-01T07:56:47Z</time></trkpt><trkpt lat="45.08880538151719" lon="8.335545233353383"><ele>202.0</ele><time>2026-05-01T07:56:50Z</time></trkpt><trkpt lat="45.088756867003646" lon="8.335457720179054"><ele>201.99999999999997</ele><time>2026-05-01T07:57:48.002Z</time></trkpt><trkpt lat="45.08873120628346" lon="8.335369601850966"><ele>202.0</ele><time>2026-05-01T07:57:51.002Z</time></trkpt><trkpt lat="45.08870849878017" lon="8.335255233707365"><ele>202.0</ele><time>2026-05-01T07:57:54.002Z</time></trkpt><trkpt lat="45.08868762249496" lon="8.335137772766343"><ele>202.0</ele><time>2026-05-01T07:57:57.002Z</time></trkpt><trkpt lat="45.088659545895446" lon="8.335021735461867"><ele>201.99999999999997</ele><time>2026-05-01T07:58:00.002Z</time></trkpt><trkpt lat="45.088645648184304" lon="8.334911446858449"><ele>202.0</ele><time>2026-05-01T07:58:03.002Z</time></trkpt><trkpt lat="45.08862964270488" lon="8.334787211704654"><ele>202.33333333333331</ele><time>2026-05-01T07:58:06.002Z</time></trkpt><trkpt lat="45.08861895734167" lon="8.334671893971146"><ele>202.66666666666666</ele><time>2026-05-01T07:58:09.002Z</time></trkpt><trkpt lat="45.08861384934066" lon="8.334550899588788"><ele>203.0</ele><time>2026-05-01T07:58:12.002Z</time></trkpt><trkpt lat="45.08861031135692" lon="8.334426231851301"><ele>203.33333333333331</ele><time>2026-05-01T07:58:15.002Z</time></trkpt><trkpt lat="45.088608782973836" lon="8.334335947838088"><ele>203.66666666666666</ele><time>2026-05-01T07:58:17.002Z</time></trkpt><trkpt lat="45.088607019977395" lon="8.334231716114694"><ele>204.0</ele><time>2026-05-01T07:58:19.003Z</time></trkpt><trkpt lat="45.088605652023105" lon="8.334131572097345"><ele>204.0</ele><time>2026-05-01T07:58:21.003Z</time></trkpt><trkpt lat="45.088605352828615" lon="8.334030957441431"><ele>204.0</ele><time>2026-05-01T07:58:23.003Z</time></trkpt><trkpt lat="45.08860839140645" lon="8.333939694221037"><ele>204.0</ele><time>2026-05-01T07:58:24.999Z</time></trkpt><trkpt lat="45.08860703877122" lon="8.333850300164087"><ele>204.0</ele><time>2026-05-01T07:58:26.999Z</time></trkpt><trkpt lat="45.088610940936675" lon="8.333759150788868"><ele>204.0</ele><time>2026-05-01T07:58:28.999Z</time></trkpt><trkpt lat="45.08862852293479" lon="8.3336331726225"><ele>204.0</ele><time>2026-05-01T07:58:31.999Z</time></trkpt><trkpt lat="45.08865701541013" lon="8.333531830709232"><ele>204.0</ele><time>2026-05-01T07:58:34.999Z</time></trkpt><trkpt lat="45.088669268186166" lon="8.33340650781786"><ele>204.5</ele><time>2026-05-01T07:58:56Z</time></trkpt><trkpt lat="45.08869893958111" lon="8.333308272480972"><ele>205.0</ele><time>2026-05-01T07:59:00Z</time></trkpt><trkpt lat="45.088727454254766" lon="8.333226311556386"><ele>205.5</ele><time>2026-05-01T07:59:03Z</time></trkpt><trkpt lat="45.08874274437134" lon="8.333133179547888"><ele>206.0</ele><time>2026-05-01T07:59:06Z</time></trkpt><trkpt lat="45.08874196334191" lon="8.333021798961695"><ele>206.5</ele><time>2026-05-01T07:59:09.001Z</time></trkpt><trkpt lat="45.088733871397764" lon="8.332906672447416"><ele>207.0</ele><time>2026-05-01T07:59:12.001Z</time></trkpt><trkpt lat="45.08872157292686" lon="8.332776916840988"><ele>207.16666666666666</ele><time>2026-05-01T07:59:15.001Z</time></trkpt><trkpt lat="45.08871317677673" lon="8.332687647350093"><ele>207.33333333333331</ele><time>2026-05-01T07:59:17.001Z</time></trkpt><trkpt lat="45.08870104036094" lon="8.332569572496412"><ele>207.5</ele><time>2026-05-01T07:59:20.001Z</time></trkpt><trkpt lat="45.08869449546326" lon="8.332664780653833"><ele>207.66666666666666</ele><time>2026-05-01T08:01:25.001Z</time></trkpt><trkpt lat="45.08871193177774" lon="8.332775215554062"><ele>207.83333333333331</ele><time>2026-05-01T08:01:28.001Z</time></trkpt><trkpt lat="45.08872620201699" lon="8.332888946222347"><ele>208.0</ele><time>2026-05-01T08:01:31.001Z</time></trkpt><trkpt lat="45.08873296737663" lon="8.333010250136702"><ele>207.83333333333331</ele><time>2026-05-01T08:01:34.001Z</time></trkpt><trkpt lat="45.08874032730113" lon="8.333129644283733"><ele>207.66666666666666</ele><time>2026-05-01T08:01:37.001Z</time></trkpt><trkpt lat="45.08872384296497" lon="8.33324142083295"><ele>207.5</ele><time>2026-05-01T08:01:40.001Z</time></trkpt><trkpt lat="45.08869752013563" lon="8.333332279316911"><ele>207.33333333333331</ele><time>2026-05-01T08:01:43.001Z</time></trkpt><trkpt lat="45.0886421188369" lon="8.3334036145391"><ele>207.16666666666666</ele><time>2026-05-01T08:01:48.002Z</time></trkpt><trkpt lat="45.08858065954276" lon="8.333465248389782"><ele>207.0</ele><time>2026-05-01T08:02:00.002Z</time></trkpt><trkpt lat="45.08851724582311" lon="8.33354461083769"><ele>207.0</ele><time>2026-05-01T08:02:03.002Z</time></trkpt><trkpt lat="45.08845530742527" lon="8.33363710940739"><ele>207.0</ele><time>2026-05-01T08:02:06.002Z</time></trkpt><trkpt lat="45.0883997039201" lon="8.333723110600138"><ele>207.0</ele><time>2026-05-01T08:02:08.002Z</time></trkpt><trkpt lat="45.088335948758115" lon="8.333819841727934"><ele>207.0</ele><time>2026-05-01T08:02:10.002Z</time></trkpt><trkpt lat="45.08828440593192" lon="8.33392769407643"><ele>207.0</ele><time>2026-05-01T08:02:12.002Z</time></trkpt><trkpt lat="45.08823439664101" lon="8.334040880299757"><ele>204.2</ele><time>2026-05-01T08:02:14.002Z</time></trkpt><trkpt lat="45.0881900243964" lon="8.33415286766829"><ele>201.39999999999998</ele><time>2026-05-01T08:02:16.002Z</time></trkpt><trkpt lat="45.08811903497273" lon="8.334241278224583"><ele>198.60000000000002</ele><time>2026-05-01T08:02:18.003Z</time></trkpt><trkpt lat="45.08802469325465" lon="8.334268702017118"><ele>195.8</ele><time>2026-05-01T08:02:20.003Z</time></trkpt><trkpt lat="45.087941747309266" lon="8.334290061564113"><ele>193.0</ele><time>2026-05-01T08:02:22.003Z</time></trkpt><trkpt lat="45.08784901513269" lon="8.334311672731102"><ele>193.0</ele><time>2026-05-01T08:02:24.003Z</time></trkpt><trkpt lat="45.087739983118645" lon="8.334340297341745"><ele>193.0</ele><time>2026-05-01T08:02:26.003Z</time></trkpt><trkpt lat="45.08761659001223" lon="8.33437439099223"><ele>193.0</ele><time>2026-05-01T08:02:28.003Z</time></trkpt><trkpt lat="45.08749333254877" lon="8.33441013663573"><ele>193.0</ele><time>2026-05-01T08:02:30.003Z</time></trkpt><trkpt lat="45.08738147296414" lon="8.334441884784129"><ele>190.8</ele><time>2026-05-01T08:02:32.003Z</time></trkpt><trkpt lat="45.087274971581074" lon="8.334467789753816"><ele>188.60000000000002</ele><time>2026-05-01T08:02:34.003Z</time></trkpt><trkpt lat="45.087174199069764" lon="8.334483962369674"><ele>186.39999999999998</ele><time>2026-05-01T08:02:36.003Z</time></trkpt><trkpt lat="45.087066653294954" lon="8.334510945031761"><ele>184.2</ele><time>2026-05-01T08:02:38Z</time></trkpt><trkpt lat="45.08696145860089" lon="8.33453880027301"><ele>182.0</ele><time>2026-05-01T08:02:40Z</time></trkpt><trkpt lat="45.08686185070397" lon="8.334563313248907"><ele>182.0</ele><time>2026-05-01T08:02:42Z</time></trkpt><trkpt lat="45.086769110518205" lon="8.33458874154934"><ele>182.0</ele><time>2026-05-01T08:02:44Z</time></trkpt><trkpt lat="45.08668859194839" lon="8.334620533034945"><ele>182.0</ele><time>2026-05-01T08:02:46Z</time></trkpt><trkpt lat="45.0866075290728" lon="8.334667133534381"><ele>182.0</ele><time>2026-05-01T08:02:49Z</time></trkpt><trkpt lat="45.08658041552771" lon="8.334757589662413"><ele>182.0</ele><time>2026-05-01T08:02:51Z</time></trkpt><trkpt lat="45.086583839121325" lon="8.334854074162557"><ele>182.0</ele><time>2026-05-01T08:02:53Z</time></trkpt><trkpt lat="45.086584697363676" lon="8.33496294315719"><ele>180.66666666666666</ele><time>2026-05-01T08:02:56Z</time></trkpt><trkpt lat="45.08658570234264" lon="8.335068475737177"><ele>179.33333333333331</ele><time>2026-05-01T08:02:59Z</time></trkpt><trkpt lat="45.086581381289605" lon="8.335203241091719"><ele>178.0</ele><time>2026-05-01T08:03:02Z</time></trkpt><trkpt lat="45.0865819415518" lon="8.335321159539928"><ele>176.66666666666666</ele><time>2026-05-01T08:03:04Z</time></trkpt><trkpt lat="45.0865794821367" lon="8.335435748414506"><ele>175.33333333333334</ele><time>2026-05-01T08:03:06Z</time></trkpt><trkpt lat="45.086581831152955" lon="8.335559289898493"><ele>174.0</ele><time>2026-05-01T08:03:08Z</time></trkpt><trkpt lat="45.08657375991002" lon="8.33568398776865"><ele>173.33333333333334</ele><time>2026-05-01T08:03:10.001Z</time></trkpt><trkpt lat="45.08656466407014" lon="8.335804592471872"><ele>172.66666666666666</ele><time>2026-05-01T08:03:12.001Z</time></trkpt><trkpt lat="45.08655435243361" lon="8.335917458750972"><ele>172.0</ele><time>2026-05-01T08:03:14.001Z</time></trkpt><trkpt lat="45.086552520075855" lon="8.336015058276105"><ele>171.33333333333331</ele><time>2026-05-01T08:03:16.001Z</time></trkpt><trkpt lat="45.08654757072926" lon="8.336115455914895"><ele>170.66666666666666</ele><time>2026-05-01T08:03:18.001Z</time></trkpt><trkpt lat="45.08655009505652" lon="8.336206173651643"><ele>170.0</ele><time>2026-05-01T08:03:20.001Z</time></trkpt><trkpt lat="45.086558083604736" lon="8.33631973962262"><ele>170.0</ele><time>2026-05-01T08:03:23.001Z</time></trkpt><trkpt lat="45.086596466337255" lon="8.33640976829417"><ele>170.0</ele><time>2026-05-01T08:03:27.001Z</time></trkpt><trkpt lat="45.08658145836101" lon="8.33651259336718"><ele>170.0</ele><time>2026-05-01T08:03:30.001Z</time></trkpt><trkpt lat="45.08656525590891" lon="8.336598911108238"><ele>170.0</ele><time>2026-05-01T08:03:34.001Z</time></trkpt><trkpt lat="45.0865730205149" lon="8.336695314232015"><ele>170.0</ele><time>2026-05-01T08:03:39.001Z</time></trkpt><trkpt lat="45.08658687615721" lon="8.33681360856612"><ele>170.0</ele><time>2026-05-01T08:03:43.002Z</time></trkpt><trkpt lat="45.08659455556993" lon="8.336919786883746"><ele>170.0</ele><time>2026-05-01T08:03:46.002Z</time></trkpt><trkpt lat="45.08659331592302" lon="8.337009381518358"><ele>169.33333333333331</ele><time>2026-05-01T08:03:48.002Z</time></trkpt><trkpt lat="45.086602114065414" lon="8.3371058416867"><ele>168.66666666666666</ele><time>2026-05-01T08:03:50.002Z</time></trkpt><trkpt lat="45.086602194050926" lon="8.337211024402047"><ele>168.0</ele><time>2026-05-01T08:03:52.002Z</time></trkpt><trkpt lat="45.086600880105536" lon="8.337326001213286"><ele>167.33333333333334</ele><time>2026-05-01T08:03:54.002Z</time></trkpt><trkpt lat="45.08659974920027" lon="8.337444678105404"><ele>166.66666666666669</ele><time>2026-05-01T08:03:56.002Z</time></trkpt><trkpt lat="45.08661318540086" lon="8.337565892019091"><ele>166.0</ele><time>2026-05-01T08:03:58.002Z</time></trkpt><trkpt lat="45.08659132359018" lon="8.337650620627963"><ele>166.0</ele><time>2026-05-01T08:04:00.002Z</time></trkpt><trkpt lat="45.086524762837094" lon="8.337687635094635"><ele>166.0</ele><time>2026-05-01T08:04:02.002Z</time></trkpt><trkpt lat="45.08642992222749" lon="8.337685419570441"><ele>166.0</ele><time>2026-05-01T08:04:04.002Z</time></trkpt><trkpt lat="45.0863223434109" lon="8.33772028753675"><ele>166.0</ele><time>2026-05-01T08:04:06.002Z</time></trkpt><trkpt lat="45.08624809815248" lon="8.337738274798722"><ele>166.0</ele><time>2026-05-01T08:04:07.002Z</time></trkpt><trkpt lat="45.086173929755795" lon="8.337761116330709"><ele>166.0</ele><time>2026-05-01T08:04:08.002Z</time></trkpt><trkpt lat="45.08610307491624" lon="8.337799148874236"><ele>166.0</ele><time>2026-05-01T08:04:09.002Z</time></trkpt><trkpt lat="45.08602305793468" lon="8.337833434600812"><ele>166.0</ele><time>2026-05-01T08:04:10.002Z</time></trkpt><trkpt lat="45.085931460973995" lon="8.337865535716581"><ele>166.0</ele><time>2026-05-01T08:04:11.002Z</time></trkpt><trkpt lat="45.08584791262254" lon="8.33790075030546"><ele>166.0</ele><time>2026-05-01T08:04:12.002Z</time></trkpt><trkpt lat="45.08575888356631" lon="8.33793796295367"><ele>166.0</ele><time>2026-05-01T08:04:13.002Z</time></trkpt><trkpt lat="45.08566419409213" lon="8.337966360993443"><ele>165.5</ele><time>2026-05-01T08:04:14.002Z</time></trkpt><trkpt lat="45.08557296284671" lon="8.337991835501198"><ele>165.0</ele><time>2026-05-01T08:04:15.003Z</time></trkpt><trkpt lat="45.08548756335255" lon="8.338020446455195"><ele>164.5</ele><time>2026-05-01T08:04:16.003Z</time></trkpt><trkpt lat="45.08540700168989" lon="8.33804442931499"><ele>164.0</ele><time>2026-05-01T08:04:17.003Z</time></trkpt><trkpt lat="45.08533458809805" lon="8.33807004901386"><ele>163.5</ele><time>2026-05-01T08:04:18.003Z</time></trkpt><trkpt lat="45.085274064775064" lon="8.33809473026513"><ele>163.0</ele><time>2026-05-01T08:04:19.003Z</time></trkpt><trkpt lat="45.08515735726853" lon="8.338111725931213"><ele>162.60000000000002</ele><time>2026-05-01T08:04:21.003Z</time></trkpt><trkpt lat="45.08504251475352" lon="8.338110802247698"><ele>162.20000000000002</ele><time>2026-05-01T08:04:23.003Z</time></trkpt><trkpt lat="45.0849402810387" lon="8.338108524263465"><ele>161.8</ele><time>2026-05-01T08:04:25.003Z</time></trkpt><trkpt lat="45.084845825849676" lon="8.338109458254712"><ele>161.4</ele><time>2026-05-01T08:04:27.003Z</time></trkpt><trkpt lat="45.08476682966611" lon="8.3381095132951"><ele>161.0</ele><time>2026-05-01T08:04:29.003Z</time></trkpt><trkpt lat="45.08470129211564" lon="8.338104617789407"><ele>161.0</ele><time>2026-05-01T08:04:31.003Z</time></trkpt><trkpt lat="45.084620630695376" lon="8.33810265263903"><ele>161.0</ele><time>2026-05-01T08:04:34.003Z</time></trkpt><trkpt lat="45.084529965461286" lon="8.338100429196917"><ele>161.0</ele><time>2026-05-01T08:04:37.003Z</time></trkpt><trkpt lat="45.084449058460706" lon="8.338096805024975"><ele>161.0</ele><time>2026-05-01T08:04:40.003Z</time></trkpt><trkpt lat="45.08436740865057" lon="8.338090339509804"><ele>161.0</ele><time>2026-05-01T08:04:43Z</time></trkpt><trkpt lat="45.08428516785983" lon="8.33807474081494"><ele>161.0</ele><time>2026-05-01T08:04:46Z</time></trkpt><trkpt lat="45.08419522451156" lon="8.338046628222576"><ele>161.28571428571428</ele><time>2026-05-01T08:04:49Z</time></trkpt><trkpt lat="45.08413402930372" lon="8.338024126851073"><ele>161.57142857142856</ele><time>2026-05-01T08:04:51Z</time></trkpt><trkpt lat="45.08407238713959" lon="8.338000242819707"><ele>161.85714285714286</ele><time>2026-05-01T08:04:53Z</time></trkpt><trkpt lat="45.08401273181335" lon="8.337967251138284"><ele>162.14285714285714</ele><time>2026-05-01T08:04:55Z</time></trkpt><trkpt lat="45.083948357665335" lon="8.337933788625461"><ele>162.42857142857142</ele><time>2026-05-01T08:04:57Z</time></trkpt><trkpt lat="45.08388706477741" lon="8.337907385768885"><ele>162.71428571428572</ele><time>2026-05-01T08:04:59Z</time></trkpt><trkpt lat="45.08382547709895" lon="8.337875972804786"><ele>163.0</ele><time>2026-05-01T08:05:01Z</time></trkpt><trkpt lat="45.08376118894188" lon="8.337842839248896"><ele>163.0</ele><time>2026-05-01T08:05:03Z</time></trkpt><trkpt lat="45.083701269678606" lon="8.337810356990955"><ele>163.0</ele><time>2026-05-01T08:05:05Z</time></trkpt><trkpt lat="45.08364175042998" lon="8.337772530826646"><ele>163.0</ele><time>2026-05-01T08:05:07.001Z</time></trkpt><trkpt lat="45.08358540726952" lon="8.33773211092144"><ele>163.0</ele><time>2026-05-01T08:05:09.001Z</time></trkpt><trkpt lat="45.08350212473079" lon="8.337674145999877"><ele>163.0</ele><time>2026-05-01T08:05:12.001Z</time></trkpt><trkpt lat="45.083416320571445" lon="8.337612150449337"><ele>163.0</ele><time>2026-05-01T08:05:15.001Z</time></trkpt><trkpt lat="45.08335903153985" lon="8.337572763138846"><ele>163.0</ele><time>2026-05-01T08:05:17.001Z</time></trkpt><trkpt lat="45.0833043527693" lon="8.337523968316496"><ele>163.16666666666669</ele><time>2026-05-01T08:05:19.001Z</time></trkpt><trkpt lat="45.08322043531607" lon="8.337460196797688"><ele>163.33333333333334</ele><time>2026-05-01T08:05:22.001Z</time></trkpt><trkpt lat="45.08314059948947" lon="8.337397502073202"><ele>163.5</ele><time>2026-05-01T08:05:25.001Z</time></trkpt><trkpt lat="45.083064592904144" lon="8.33733659867825"><ele>163.66666666666666</ele><time>2026-05-01T08:05:28.001Z</time></trkpt><trkpt lat="45.08298806411023" lon="8.33728876543476"><ele>163.83333333333331</ele><time>2026-05-01T08:05:31.001Z</time></trkpt><trkpt lat="45.08291421755882" lon="8.337235328924505"><ele>164.0</ele><time>2026-05-01T08:05:34.001Z</time></trkpt><trkpt lat="45.08284552003753" lon="8.337186173175121"><ele>163.99999999999997</ele><time>2026-05-01T08:05:37.001Z</time></trkpt><trkpt lat="45.08278477261602" lon="8.337154260880723"><ele>164.0</ele><time>2026-05-01T08:05:40.001Z</time></trkpt><trkpt lat="45.082723051994016" lon="8.337177049257134"><ele>164.0</ele><time>2026-05-01T08:05:43.002Z</time></trkpt><trkpt lat="45.082689071903275" lon="8.33726271249623"><ele>164.0</ele><time>2026-05-01T08:05:46.002Z</time></trkpt><trkpt lat="45.08266951921986" lon="8.337374943689348"><ele>164.0</ele><time>2026-05-01T08:05:49.002Z</time></trkpt><trkpt lat="45.08261641370668" lon="8.337453598795337"><ele>163.99999999999997</ele><time>2026-05-01T08:05:53.002Z</time></trkpt><trkpt lat="45.08254861852243" lon="8.337429420642874"><ele>164.0</ele><time>2026-05-01T08:05:56.002Z</time></trkpt><trkpt lat="45.08248728107069" lon="8.337384961979177"><ele>164.85714285714283</ele><time>2026-05-01T08:05:58.002Z</time></trkpt><trkpt lat="45.08242938961802" lon="8.33733496655668"><ele>165.71428571428572</ele><time>2026-05-01T08:06:01.002Z</time></trkpt><trkpt lat="45.08235944674186" lon="8.337286226063862"><ele>166.57142857142856</ele><time>2026-05-01T08:06:05.002Z</time></trkpt><trkpt lat="45.08230562014266" lon="8.337235660446192"><ele>167.42857142857142</ele><time>2026-05-01T08:06:08.002Z</time></trkpt><trkpt lat="45.08223690410284" lon="8.33719262873162"><ele>168.28571428571428</ele><time>2026-05-01T08:06:11.002Z</time></trkpt><trkpt lat="45.082165079732754" lon="8.337166375729371"><ele>169.14285714285714</ele><time>2026-05-01T08:06:14.002Z</time></trkpt><trkpt lat="45.0820937684165" lon="8.33712008338803"><ele>170.0</ele><time>2026-05-01T08:06:17.003Z</time></trkpt><trkpt lat="45.08203505849013" lon="8.337078457009788"><ele>170.0</ele><time>2026-05-01T08:06:25.003Z</time></trkpt><trkpt lat="45.08195989356428" lon="8.337047650362335"><ele>170.0</ele><time>2026-05-01T08:06:37.003Z</time></trkpt><trkpt lat="45.08191218306763" lon="8.336985907452238"><ele>170.0</ele><time>2026-05-01T08:06:42.003Z</time></trkpt><trkpt lat="45.08185297210508" lon="8.33693164741228"><ele>170.0</ele><time>2026-05-01T08:06:46.003Z</time></trkpt><trkpt lat="45.08179190314149" lon="8.336877932414145"><ele>170.0</ele><time>2026-05-01T08:06:50.001Z</time></trkpt><trkpt lat="45.081719136115744" lon="8.336819078216141"><ele>170.0</ele><time>2026-05-01T08:06:54.001Z</time></trkpt><trkpt lat="45.08164390027688" lon="8.336784702036516"><ele>170.0</ele><time>2026-05-01T08:06:57.001Z</time></trkpt><trkpt lat="45.081578894022506" lon="8.336745635655753"><ele>171.33333333333331</ele><time>2026-05-01T08:07:00.001Z</time></trkpt><trkpt lat="45.081488017275916" lon="8.336682995215606"><ele>172.66666666666666</ele><time>2026-05-01T08:07:03.001Z</time></trkpt><trkpt lat="45.081417513316154" lon="8.336645669593377"><ele>174.0</ele><time>2026-05-01T08:07:07.001Z</time></trkpt><trkpt lat="45.0813553947978" lon="8.336600586441394"><ele>175.33333333333334</ele><time>2026-05-01T08:07:10.001Z</time></trkpt><trkpt lat="45.08128775874999" lon="8.336561101754686"><ele>176.66666666666669</ele><time>2026-05-01T08:07:13.001Z</time></trkpt><trkpt lat="45.08121212658322" lon="8.336526186308802"><ele>178.0</ele><time>2026-05-01T08:07:16.001Z</time></trkpt><trkpt lat="45.08115106733292" lon="8.33647356500507"><ele>177.99999999999997</ele><time>2026-05-01T08:07:19.001Z</time></trkpt><trkpt lat="45.081086094033594" lon="8.33641568913362"><ele>178.0</ele><time>2026-05-01T08:07:22.001Z</time></trkpt><trkpt lat="45.08101281562227" lon="8.336352459760297"><ele>178.0</ele><time>2026-05-01T08:07:25.001Z</time></trkpt><trkpt lat="45.08095968708309" lon="8.33630306829583"><ele>178.0</ele><time>2026-05-01T08:07:28.001Z</time></trkpt><trkpt lat="45.080889448204395" lon="8.336262661633242"><ele>178.0</ele><time>2026-05-01T08:07:31.001Z</time></trkpt><trkpt lat="45.08082587080071" lon="8.336212611438736"><ele>177.99999999999997</ele><time>2026-05-01T08:07:34.001Z</time></trkpt><trkpt lat="45.080753954843615" lon="8.33618506619059"><ele>178.0</ele><time>2026-05-01T08:07:37.001Z</time></trkpt><trkpt lat="45.080676508083016" lon="8.336160230218244"><ele>177.16666666666669</ele><time>2026-05-01T08:07:40.001Z</time></trkpt><trkpt lat="45.0806063471993" lon="8.336126835898364"><ele>176.33333333333334</ele><time>2026-05-01T08:07:43.001Z</time></trkpt><trkpt lat="45.080535067620865" lon="8.336095253290779"><ele>175.5</ele><time>2026-05-01T08:07:46.001Z</time></trkpt><trkpt lat="45.08046641877454" lon="8.336060415307173"><ele>174.66666666666666</ele><time>2026-05-01T08:07:49.001Z</time></trkpt><trkpt lat="45.08038796700989" lon="8.336023796573699"><ele>173.83333333333331</ele><time>2026-05-01T08:07:52.001Z</time></trkpt><trkpt lat="45.08030641531048" lon="8.335974629597533"><ele>173.0</ele><time>2026-05-01T08:07:55.002Z</time></trkpt><trkpt lat="45.08022258136009" lon="8.335928874467621"><ele>173.0</ele><time>2026-05-01T08:07:58.002Z</time></trkpt><trkpt lat="45.08014702335544" lon="8.335889101048028"><ele>173.0</ele><time>2026-05-01T08:08:01.002Z</time></trkpt><trkpt lat="45.080075329656275" lon="8.335834550457978"><ele>173.0</ele><time>2026-05-01T08:08:04.002Z</time></trkpt><trkpt lat="45.08000636576309" lon="8.335780507526664"><ele>173.0</ele><time>2026-05-01T08:08:07.002Z</time></trkpt><trkpt lat="45.079932242749415" lon="8.335738632753861"><ele>173.0</ele><time>2026-05-01T08:08:10.002Z</time></trkpt><trkpt lat="45.07986722364246" lon="8.335708272453507"><ele>173.0</ele><time>2026-05-01T08:08:13.002Z</time></trkpt><trkpt lat="45.079795815588575" lon="8.335666934068595"><ele>172.66666666666666</ele><time>2026-05-01T08:08:16.002Z</time></trkpt><trkpt lat="45.079732114762976" lon="8.335626199545695"><ele>172.33333333333331</ele><time>2026-05-01T08:08:19.002Z</time></trkpt><trkpt lat="45.07966611617858" lon="8.33559593811897"><ele>172.0</ele><time>2026-05-01T08:08:22.002Z</time></trkpt><trkpt lat="45.079590366771086" lon="8.335548996434834"><ele>171.66666666666666</ele><time>2026-05-01T08:08:26.002Z</time></trkpt><trkpt lat="45.079515167039546" lon="8.335510540984757"><ele>171.33333333333334</ele><time>2026-05-01T08:08:29.002Z</time></trkpt><trkpt lat="45.0794450348375" lon="8.335476485264552"><ele>171.0</ele><time>2026-05-01T08:08:32.003Z</time></trkpt><trkpt lat="45.07937470348225" lon="8.335438131148015"><ele>171.0</ele><time>2026-05-01T08:08:35.003Z</time></trkpt><trkpt lat="45.079305235991875" lon="8.335395747815934"><ele>171.0</ele><time>2026-05-01T08:08:38.003Z</time></trkpt><trkpt lat="45.07922868372719" lon="8.335353467211336"><ele>171.0</ele><time>2026-05-01T08:08:41.003Z</time></trkpt><trkpt lat="45.07915760398204" lon="8.335311064226957"><ele>171.0</ele><time>2026-05-01T08:08:44.003Z</time></trkpt><trkpt lat="45.079075449403426" lon="8.335264858015952"><ele>171.0</ele><time>2026-05-01T08:08:47.003Z</time></trkpt><trkpt lat="45.078997725860354" lon="8.33522392924139"><ele>171.0</ele><time>2026-05-01T08:08:50.003Z</time></trkpt><trkpt lat="45.078921924548446" lon="8.335182699651208"><ele>171.33333333333334</ele><time>2026-05-01T08:08:53.003Z</time></trkpt><trkpt lat="45.07884448059796" lon="8.335138028824025"><ele>171.66666666666666</ele><time>2026-05-01T08:08:56Z</time></trkpt><trkpt lat="45.078763232064" lon="8.335084011904552"><ele>172.0</ele><time>2026-05-01T08:08:59Z</time></trkpt><trkpt lat="45.07870482596854" lon="8.33504877546878"><ele>172.33333333333331</ele><time>2026-05-01T08:09:02Z</time></trkpt><trkpt lat="45.078624962365254" lon="8.335008800366612"><ele>172.66666666666666</ele><time>2026-05-01T08:09:06Z</time></trkpt><trkpt lat="45.07855187964264" lon="8.33499287389324"><ele>173.0</ele><time>2026-05-01T08:09:09Z</time></trkpt><trkpt lat="45.078480387090515" lon="8.33498342064751"><ele>173.0</ele><time>2026-05-01T08:09:12Z</time></trkpt><trkpt lat="45.07841282288136" lon="8.334961252539761"><ele>173.0</ele><time>2026-05-01T08:09:15.001Z</time></trkpt><trkpt lat="45.07835899530299" lon="8.334888531708291"><ele>173.0</ele><time>2026-05-01T08:09:19.001Z</time></trkpt><trkpt lat="45.07829234554835" lon="8.334905816879246"><ele>173.0</ele><time>2026-05-01T08:09:28.001Z</time></trkpt><trkpt lat="45.07822429181962" lon="8.334899864663337"><ele>173.0</ele><time>2026-05-01T08:09:36.001Z</time></trkpt><trkpt lat="45.078138204693076" lon="8.334885470433152"><ele>173.0</ele><time>2026-05-01T08:09:49.001Z</time></trkpt><trkpt lat="45.078068315229" lon="8.334860973808944"><ele>173.0</ele><time>2026-05-01T08:09:53.001Z</time></trkpt><trkpt lat="45.078002253213455" lon="8.334835742763572"><ele>174.5</ele><time>2026-05-01T08:09:57.002Z</time></trkpt><trkpt lat="45.07792868127946" lon="8.33480997081195"><ele>176.0</ele><time>2026-05-01T08:10:01.002Z</time></trkpt><trkpt lat="45.07785244873355" lon="8.334785519175078"><ele>177.5</ele><time>2026-05-01T08:10:05.002Z</time></trkpt><trkpt lat="45.0777773136198" lon="8.33475752602358"><ele>179.0</ele><time>2026-05-01T08:10:09.002Z</time></trkpt><trkpt lat="45.07769671514242" lon="8.33473023222951"><ele>180.5</ele><time>2026-05-01T08:10:13.002Z</time></trkpt><trkpt lat="45.07762615503179" lon="8.334717169852835"><ele>182.0</ele><time>2026-05-01T08:10:16.002Z</time></trkpt><trkpt lat="45.07755380667906" lon="8.33469163368694"><ele>182.0</ele><time>2026-05-01T08:10:19.002Z</time></trkpt><trkpt lat="45.077478494170734" lon="8.334670774413969"><ele>182.0</ele><time>2026-05-01T08:10:22.002Z</time></trkpt><trkpt lat="45.077407099919895" lon="8.334643219878833"><ele>182.0</ele><time>2026-05-01T08:10:25.002Z</time></trkpt><trkpt lat="45.07733951703986" lon="8.334621462643113"><ele>182.0</ele><time>2026-05-01T08:10:28.002Z</time></trkpt><trkpt lat="45.077268811681364" lon="8.334604660839675"><ele>182.0</ele><time>2026-05-01T08:10:31.002Z</time></trkpt><trkpt lat="45.07719670585026" lon="8.334581156020565"><ele>182.0</ele><time>2026-05-01T08:10:34.003Z</time></trkpt><trkpt lat="45.07711795170381" lon="8.334561221900277"><ele>182.0</ele><time>2026-05-01T08:10:37.003Z</time></trkpt><trkpt lat="45.077036929917185" lon="8.334536365204674"><ele>181.42857142857142</ele><time>2026-05-01T08:10:40.003Z</time></trkpt><trkpt lat="45.076967989507565" lon="8.334522431929798"><ele>180.85714285714286</ele><time>2026-05-01T08:10:43.003Z</time></trkpt><trkpt lat="45.076889241395506" lon="8.334527515971956"><ele>180.28571428571428</ele><time>2026-05-01T08:10:47.003Z</time></trkpt><trkpt lat="45.07681466327502" lon="8.33451427036923"><ele>179.71428571428572</ele><time>2026-05-01T08:10:50.003Z</time></trkpt><trkpt lat="45.076748356476585" lon="8.334520973431314"><ele>179.14285714285714</ele><time>2026-05-01T08:10:53.003Z</time></trkpt><trkpt lat="45.07666938103631" lon="8.33453603061997"><ele>178.57142857142856</ele><time>2026-05-01T08:10:56.003Z</time></trkpt><trkpt lat="45.07660301035424" lon="8.334565602514358"><ele>178.0</ele><time>2026-05-01T08:10:59.003Z</time></trkpt><trkpt lat="45.07653345728957" lon="8.334559643183217"><ele>177.66666666666669</ele><time>2026-05-01T08:11:02Z</time></trkpt><trkpt lat="45.07644746872982" lon="8.334577694802169"><ele>177.33333333333334</ele><time>2026-05-01T08:11:06Z</time></trkpt><trkpt lat="45.07636358709132" lon="8.334573527513855"><ele>177.0</ele><time>2026-05-01T08:11:09Z</time></trkpt><trkpt lat="45.076286866722455" lon="8.334589582542197"><ele>176.66666666666666</ele><time>2026-05-01T08:11:12Z</time></trkpt><trkpt lat="45.07621128867487" lon="8.334580030323327"><ele>176.33333333333331</ele><time>2026-05-01T08:11:15Z</time></trkpt><trkpt lat="45.07612224948585" lon="8.334585198411707"><ele>176.0</ele><time>2026-05-01T08:11:18Z</time></trkpt><trkpt lat="45.076043866163076" lon="8.334585908645062"><ele>176.0</ele><time>2026-05-01T08:11:21Z</time></trkpt><trkpt lat="45.07595804059195" lon="8.334587153703927"><ele>176.0</ele><time>2026-05-01T08:11:24Z</time></trkpt><trkpt lat="45.07587689817121" lon="8.334588336719474"><ele>176.0</ele><time>2026-05-01T08:11:27Z</time></trkpt><trkpt lat="45.07580654157783" lon="8.334586310616425"><ele>176.0</ele><time>2026-05-01T08:11:29Z</time></trkpt><trkpt lat="45.0757298467963" lon="8.334592273901732"><ele>176.0</ele><time>2026-05-01T08:11:32.001Z</time></trkpt><trkpt lat="45.075654777042004" lon="8.334595049810638"><ele>176.0</ele><time>2026-05-01T08:11:35.001Z</time></trkpt><trkpt lat="45.07557359976517" lon="8.334592892760698"><ele>176.42857142857144</ele><time>2026-05-01T08:11:39.001Z</time></trkpt><trkpt lat="45.07550890044991" lon="8.334589189296992"><ele>176.85714285714286</ele><time>2026-05-01T08:11:43.001Z</time></trkpt><trkpt lat="45.075429260357616" lon="8.334590570510839"><ele>177.28571428571428</ele><time>2026-05-01T08:11:47.001Z</time></trkpt><trkpt lat="45.0753596279049" lon="8.334587022923182"><ele>177.71428571428572</ele><time>2026-05-01T08:11:51.001Z</time></trkpt><trkpt lat="45.075284311962356" lon="8.334575059267516"><ele>178.14285714285714</ele><time>2026-05-01T08:11:55.001Z</time></trkpt><trkpt lat="45.075212882685925" lon="8.334572495663389"><ele>178.57142857142858</ele><time>2026-05-01T08:11:59.001Z</time></trkpt><trkpt lat="45.0751320740374" lon="8.33456321140503"><ele>179.0</ele><time>2026-05-01T08:12:03.001Z</time></trkpt><trkpt lat="45.0750687017954" lon="8.334557891376372"><ele>179.00000000000003</ele><time>2026-05-01T08:12:06.001Z</time></trkpt><trkpt lat="45.074986475735315" lon="8.334547230250445"><ele>179.0</ele><time>2026-05-01T08:12:10.001Z</time></trkpt><trkpt lat="45.074910484380574" lon="8.334525399384454"><ele>179.0</ele><time>2026-05-01T08:12:14.002Z</time></trkpt><trkpt lat="45.07484652144835" lon="8.33451911306118"><ele>179.0</ele><time>2026-05-01T08:12:17.002Z</time></trkpt><trkpt lat="45.07478363766286" lon="8.334499443328175"><ele>179.0</ele><time>2026-05-01T08:12:20.002Z</time></trkpt><trkpt lat="45.0747187733357" lon="8.334480965564772"><ele>179.00000000000003</ele><time>2026-05-01T08:12:24.002Z</time></trkpt><trkpt lat="45.07465320693857" lon="8.33447244840637"><ele>179.0</ele><time>2026-05-01T08:12:28.002Z</time></trkpt><trkpt lat="45.07459971892096" lon="8.334530712572965"><ele>179.00000000000003</ele><time>2026-05-01T08:12:33.002Z</time></trkpt><trkpt lat="45.07458816823731" lon="8.33463125662024"><ele>179.0</ele><time>2026-05-01T08:12:39.002Z</time></trkpt><trkpt lat="45.07454767931688" lon="8.334714543321288"><ele>179.0</ele><time>2026-05-01T08:12:44.002Z</time></trkpt><trkpt lat="45.0745176870352" lon="8.334799838012067"><ele>179.0</ele><time>2026-05-01T08:12:48.003Z</time></trkpt><trkpt lat="45.074480499583004" lon="8.334878470311514"><ele>179.0</ele><time>2026-05-01T08:12:52.003Z</time></trkpt><trkpt lat="45.07444268612787" lon="8.33495423551205"><ele>179.00000000000003</ele><time>2026-05-01T08:12:56.003Z</time></trkpt><trkpt lat="45.07440763857876" lon="8.335043286361188"><ele>179.0</ele><time>2026-05-01T08:13:00.003Z</time></trkpt><trkpt lat="45.07437073544318" lon="8.335129932594366"><ele>178.71428571428572</ele><time>2026-05-01T08:13:04.003Z</time></trkpt><trkpt lat="45.07434067158439" lon="8.335215955232142"><ele>178.42857142857144</ele><time>2026-05-01T08:13:07.999Z</time></trkpt><trkpt lat="45.07429483349168" lon="8.335293671439572"><ele>178.14285714285717</ele><time>2026-05-01T08:13:56.001Z</time></trkpt><trkpt lat="45.07425863694698" lon="8.33538410302268"><ele>177.85714285714286</ele><time>2026-05-01T08:14:00.001Z</time></trkpt><trkpt lat="45.07421714224272" lon="8.33547230720075"><ele>177.57142857142856</ele><time>2026-05-01T08:14:04.001Z</time></trkpt><trkpt lat="45.074173806556686" lon="8.335570939719798"><ele>177.2857142857143</ele><time>2026-05-01T08:14:09.001Z</time></trkpt><trkpt lat="45.07413020346878" lon="8.335654058136567"><ele>177.0</ele><time>2026-05-01T08:14:13.001Z</time></trkpt><trkpt lat="45.0740824665458" lon="8.335721332115169"><ele>177.57142857142858</ele><time>2026-05-01T08:14:16.001Z</time></trkpt><trkpt lat="45.07406698942137" lon="8.335828564336767"><ele>178.14285714285714</ele><time>2026-05-01T08:14:20.001Z</time></trkpt><trkpt lat="45.07402761346601" lon="8.335919079347484"><ele>178.71428571428572</ele><time>2026-05-01T08:14:24.002Z</time></trkpt><trkpt lat="45.07399438684222" lon="8.336007835105141"><ele>179.28571428571428</ele><time>2026-05-01T08:14:28.002Z</time></trkpt><trkpt lat="45.07393581731033" lon="8.336051208008161"><ele>179.85714285714283</ele><time>2026-05-01T08:15:42Z</time></trkpt><trkpt lat="45.07391116343647" lon="8.336148623509567"><ele>180.42857142857142</ele><time>2026-05-01T08:15:46Z</time></trkpt><trkpt lat="45.073868301271894" lon="8.336241177631832"><ele>181.0</ele><time>2026-05-01T08:16:06.001Z</time></trkpt><trkpt lat="45.073846579709254" lon="8.336328694441733"><ele>181.57142857142856</ele><time>2026-05-01T08:16:11.001Z</time></trkpt><trkpt lat="45.073813726581385" lon="8.336426785496165"><ele>182.14285714285714</ele><time>2026-05-01T08:16:17.001Z</time></trkpt><trkpt lat="45.07380270967129" lon="8.336530517482226"><ele>182.71428571428572</ele><time>2026-05-01T08:16:22.001Z</time></trkpt><trkpt lat="45.07379911873362" lon="8.336640866549377"><ele>183.28571428571428</ele><time>2026-05-01T08:16:27.001Z</time></trkpt><trkpt lat="45.07380410323935" lon="8.33673335725094"><ele>183.85714285714286</ele><time>2026-05-01T08:16:31.002Z</time></trkpt><trkpt lat="45.073813688746654" lon="8.336833712479809"><ele>184.42857142857142</ele><time>2026-05-01T08:16:35.002Z</time></trkpt><trkpt lat="45.07381843121042" lon="8.336930098979577"><ele>185.0</ele><time>2026-05-01T08:16:39.002Z</time></trkpt><trkpt lat="45.073797847662306" lon="8.337028347389158"><ele>185.0</ele><time>2026-05-01T08:16:43.002Z</time></trkpt><trkpt lat="45.07378250846803" lon="8.337128942201815"><ele>185.0</ele><time>2026-05-01T08:16:47.002Z</time></trkpt><trkpt lat="45.07375838876893" lon="8.337234464498984"><ele>185.0</ele><time>2026-05-01T08:16:51.002Z</time></trkpt><trkpt lat="45.073729201115306" lon="8.337324350517335"><ele>185.0</ele><time>2026-05-01T08:16:57.002Z</time></trkpt><trkpt lat="45.073696364267306" lon="8.33741791466324"><ele>185.0</ele><time>2026-05-01T08:17:31Z</time></trkpt><trkpt lat="45.07364715871894" lon="8.33751864282468"><ele>185.0</ele><time>2026-05-01T08:17:35Z</time></trkpt><trkpt lat="45.0736060394857" lon="8.337605715689172"><ele>185.85714285714283</ele><time>2026-05-01T08:17:39Z</time></trkpt><trkpt lat="45.07354452037929" lon="8.337692554510076"><ele>186.71428571428572</ele><time>2026-05-01T08:17:43Z</time></trkpt><trkpt lat="45.07349279234531" lon="8.33776510076687"><ele>187.57142857142856</ele><time>2026-05-01T08:17:47.001Z</time></trkpt><trkpt lat="45.07344759506664" lon="8.33783162675213"><ele>188.42857142857142</ele><time>2026-05-01T08:17:50.001Z</time></trkpt><trkpt lat="45.07339418403746" lon="8.337924528113403"><ele>189.28571428571428</ele><time>2026-05-01T08:17:54.001Z</time></trkpt><trkpt lat="45.07337097297737" lon="8.338011764047918"><ele>190.14285714285714</ele><time>2026-05-01T08:17:59.001Z</time></trkpt><trkpt lat="45.07334480052041" lon="8.338100059563459"><ele>191.0</ele><time>2026-05-01T08:18:03.001Z</time></trkpt><trkpt lat="45.07331387681205" lon="8.338202017092836"><ele>191.14285714285714</ele><time>2026-05-01T08:18:08.001Z</time></trkpt><trkpt lat="45.07329410820773" lon="8.33829417110568"><ele>191.28571428571428</ele><time>2026-05-01T08:18:13.001Z</time></trkpt><trkpt lat="45.07325993716414" lon="8.338370868375774"><ele>191.42857142857142</ele><time>2026-05-01T08:18:16.001Z</time></trkpt><trkpt lat="45.07323848670543" lon="8.33845985935129"><ele>191.57142857142856</ele><time>2026-05-01T08:18:20.002Z</time></trkpt><trkpt lat="45.073211373057184" lon="8.338541703634855"><ele>191.71428571428572</ele><time>2026-05-01T08:18:24.002Z</time></trkpt><trkpt lat="45.0731905524622" lon="8.338646247598119"><ele>191.85714285714283</ele><time>2026-05-01T08:18:28.002Z</time></trkpt><trkpt lat="45.07316806909748" lon="8.338730532135456"><ele>192.0</ele><time>2026-05-01T08:18:31.002Z</time></trkpt><trkpt lat="45.07314410195886" lon="8.338837748268558"><ele>192.16666666666666</ele><time>2026-05-01T08:18:35.002Z</time></trkpt><trkpt lat="45.07311566380173" lon="8.33894675255277"><ele>192.33333333333331</ele><time>2026-05-01T08:18:39.002Z</time></trkpt><trkpt lat="45.07309773924764" lon="8.339039022615815"><ele>192.5</ele><time>2026-05-01T08:18:42.002Z</time></trkpt><trkpt lat="45.073065656509996" lon="8.339147387937317"><ele>192.66666666666666</ele><time>2026-05-01T08:18:46.002Z</time></trkpt><trkpt lat="45.07303059395898" lon="8.339264710042281"><ele>192.83333333333331</ele><time>2026-05-01T08:18:51.002Z</time></trkpt><trkpt lat="45.073005783433224" lon="8.339347715294087"><ele>193.0</ele><time>2026-05-01T08:18:54.003Z</time></trkpt><trkpt lat="45.07296533496842" lon="8.339438184234792"><ele>192.99999999999997</ele><time>2026-05-01T08:18:58.003Z</time></trkpt><trkpt lat="45.07293041501775" lon="8.339531734007638"><ele>193.0</ele><time>2026-05-01T08:19:02.003Z</time></trkpt><trkpt lat="45.072894435395774" lon="8.339622476648161"><ele>193.0</ele><time>2026-05-01T08:19:06.003Z</time></trkpt><trkpt lat="45.07286782972008" lon="8.3397127620623"><ele>193.0</ele><time>2026-05-01T08:19:10.003Z</time></trkpt><trkpt lat="45.07282338195233" lon="8.33980959535944"><ele>192.99999999999997</ele><time>2026-05-01T08:19:14.003Z</time></trkpt><trkpt lat="45.07278381947061" lon="8.339899484531461"><ele>193.0</ele><time>2026-05-01T08:19:18.003Z</time></trkpt><trkpt lat="45.07274602055393" lon="8.339996310662379"><ele>194.16666666666666</ele><time>2026-05-01T08:19:22.003Z</time></trkpt><trkpt lat="45.07272103376707" lon="8.340091219644265"><ele>195.33333333333331</ele><time>2026-05-01T08:19:26.002Z</time></trkpt><trkpt lat="45.07268392643739" lon="8.340195289458464"><ele>196.5</ele><time>2026-05-01T08:19:30.002Z</time></trkpt><trkpt lat="45.07266688636839" lon="8.34028873961428"><ele>197.66666666666669</ele><time>2026-05-01T08:19:34.001Z</time></trkpt><trkpt lat="45.072650225000466" lon="8.340385200370163"><ele>198.83333333333334</ele><time>2026-05-01T08:20:03.001Z</time></trkpt><trkpt lat="45.07263409656372" lon="8.340511911384262"><ele>200.0</ele><time>2026-05-01T08:20:06.002Z</time></trkpt><trkpt lat="45.072622280851974" lon="8.340620378021042"><ele>200.6</ele><time>2026-05-01T08:20:08.002Z</time></trkpt><trkpt lat="45.07260265925642" lon="8.340741831477274"><ele>201.2</ele><time>2026-05-01T08:20:10.002Z</time></trkpt><trkpt lat="45.07261110825192" lon="8.340891238915265"><ele>201.8</ele><time>2026-05-01T08:20:12.002Z</time></trkpt><trkpt lat="45.07263390311204" lon="8.34103998009472"><ele>202.4</ele><time>2026-05-01T08:20:14.002Z</time></trkpt><trkpt lat="45.07265039875694" lon="8.341201981287892"><ele>203.0</ele><time>2026-05-01T08:20:16.002Z</time></trkpt><trkpt lat="45.07264770746441" lon="8.341292783509966"><ele>204.0</ele><time>2026-05-01T08:20:17.002Z</time></trkpt><trkpt lat="45.0726571097633" lon="8.341442606272915"><ele>205.0</ele><time>2026-05-01T08:20:19.002Z</time></trkpt><trkpt lat="45.07264982032826" lon="8.341567970701858"><ele>206.0</ele><time>2026-05-01T08:20:21.002Z</time></trkpt><trkpt lat="45.0726466238172" lon="8.341718581669808"><ele>207.0</ele><time>2026-05-01T08:20:23.002Z</time></trkpt><trkpt lat="45.07265990620407" lon="8.341875595257072"><ele>208.0</ele><time>2026-05-01T08:20:25.002Z</time></trkpt><trkpt lat="45.072673956309856" lon="8.342025225872092"><ele>207.99999999999997</ele><time>2026-05-01T08:20:27.002Z</time></trkpt><trkpt lat="45.072677091671935" lon="8.34214844666225"><ele>208.0</ele><time>2026-05-01T08:20:29.002Z</time></trkpt><trkpt lat="45.072671084782556" lon="8.342258281066947"><ele>208.0</ele><time>2026-05-01T08:20:32.002Z</time></trkpt><trkpt lat="45.07266187428883" lon="8.342358773003959"><ele>208.0</ele><time>2026-05-01T08:20:36.002Z</time></trkpt><trkpt lat="45.07266470254745" lon="8.34246801389289"><ele>207.99999999999997</ele><time>2026-05-01T08:20:40.002Z</time></trkpt><trkpt lat="45.07266659797737" lon="8.342560611582334"><ele>208.0</ele><time>2026-05-01T08:20:43.002Z</time></trkpt><trkpt lat="45.072666855873564" lon="8.342662961449326"><ele>208.57142857142856</ele><time>2026-05-01T08:20:46.002Z</time></trkpt><trkpt lat="45.07266501343428" lon="8.34277800840212"><ele>209.14285714285717</ele><time>2026-05-01T08:20:50.003Z</time></trkpt><trkpt lat="45.07266074068212" lon="8.342876942349683"><ele>209.71428571428572</ele><time>2026-05-01T08:20:53.003Z</time></trkpt><trkpt lat="45.07265771971965" lon="8.3429774693166"><ele>210.28571428571428</ele><time>2026-05-01T08:20:56.003Z</time></trkpt><trkpt lat="45.07265176927849" lon="8.343092811160147"><ele>210.85714285714283</ele><time>2026-05-01T08:21:00.003Z</time></trkpt><trkpt lat="45.07264070926331" lon="8.343182092443834"><ele>211.42857142857144</ele><time>2026-05-01T08:21:03.003Z</time></trkpt><trkpt lat="45.07263598535778" lon="8.34327796696949"><ele>212.0</ele><time>2026-05-01T08:21:06.003Z</time></trkpt><trkpt lat="45.07261701123076" lon="8.343365715394107"><ele>213.00000000000003</ele><time>2026-05-01T08:21:09.003Z</time></trkpt><trkpt lat="45.072618434793384" lon="8.34348187868191"><ele>214.0</ele><time>2026-05-01T08:21:13.003Z</time></trkpt><trkpt lat="45.07261023198595" lon="8.343585160906912"><ele>215.0</ele><time>2026-05-01T08:21:16.003Z</time></trkpt><trkpt lat="45.07260708923107" lon="8.343700044815016"><ele>216.0</ele><time>2026-05-01T08:21:20.003Z</time></trkpt><trkpt lat="45.07261129327616" lon="8.343811830352537"><ele>217.00000000000003</ele><time>2026-05-01T08:21:24.003Z</time></trkpt><trkpt lat="45.072641633761734" lon="8.343912887079085"><ele>218.0</ele><time>2026-05-01T08:21:28.004Z</time></trkpt><trkpt lat="45.072667423595455" lon="8.34399472654735"><ele>219.0</ele><time>2026-05-01T08:21:31.002Z</time></trkpt><trkpt lat="45.07270245412356" lon="8.344086604217859"><ele>220.0</ele><time>2026-05-01T08:21:35.002Z</time></trkpt><trkpt lat="45.07274334263075" lon="8.344169182818403"><ele>221.0</ele><time>2026-05-01T08:21:39.002Z</time></trkpt><trkpt lat="45.07279088192881" lon="8.344253077815404"><ele>222.0</ele><time>2026-05-01T08:21:43.002Z</time></trkpt><trkpt lat="45.07282097296782" lon="8.344331472852794"><ele>223.0</ele><time>2026-05-01T08:21:47.001Z</time></trkpt><trkpt lat="45.0728557733021" lon="8.34441910463387"><ele>224.00000000000003</ele><time>2026-05-01T08:21:50.001Z</time></trkpt><trkpt lat="45.07289028881368" lon="8.344509450256705"><ele>225.00000000000003</ele><time>2026-05-01T08:21:55.001Z</time></trkpt><trkpt lat="45.07292119692421" lon="8.344589453898047"><ele>225.00000000000003</ele><time>2026-05-01T08:21:58.001Z</time></trkpt><trkpt lat="45.072949788357704" lon="8.34469917211291"><ele>225.0</ele><time>2026-05-01T08:22:02.001Z</time></trkpt><trkpt lat="45.072942152018875" lon="8.344814499300016"><ele>225.00000000000003</ele><time>2026-05-01T08:22:06.001Z</time></trkpt><trkpt lat="45.072926173857425" lon="8.344905597549715"><ele>225.00000000000003</ele><time>2026-05-01T08:22:09.001Z</time></trkpt><trkpt lat="45.07293778084689" lon="8.345007251691506"><ele>225.0</ele><time>2026-05-01T08:22:13.001Z</time></trkpt><trkpt lat="45.072904300408794" lon="8.345089200561096"><ele>225.00000000000003</ele><time>2026-05-01T08:22:17.001Z</time></trkpt><trkpt lat="45.07286916602035" lon="8.345187064023797"><ele>225.00000000000003</ele><time>2026-05-01T08:22:21.002Z</time></trkpt><trkpt lat="45.072839871800696" lon="8.345303853693233"><ele>226.14285714285717</ele><time>2026-05-01T08:22:25.002Z</time></trkpt><trkpt lat="45.072800354906036" lon="8.345401004561698"><ele>227.28571428571428</ele><time>2026-05-01T08:22:28.002Z</time></trkpt><trkpt lat="45.072769731700944" lon="8.34548930469807"><ele>228.42857142857144</ele><time>2026-05-01T08:22:32.002Z</time></trkpt><trkpt lat="45.072741775996214" lon="8.34557090948412"><ele>229.57142857142858</ele><time>2026-05-01T08:22:35.002Z</time></trkpt><trkpt lat="45.07270574490597" lon="8.345662369364115"><ele>230.71428571428572</ele><time>2026-05-01T08:22:38.002Z</time></trkpt><trkpt lat="45.07266968391937" lon="8.345746177093002"><ele>231.85714285714286</ele><time>2026-05-01T08:22:42.002Z</time></trkpt><trkpt lat="45.072622410514946" lon="8.3458198547772"><ele>233.0</ele><time>2026-05-01T08:22:46.002Z</time></trkpt><trkpt lat="45.07257616491478" lon="8.34589653221585"><ele>234.00000000000003</ele><time>2026-05-01T08:22:51.002Z</time></trkpt><trkpt lat="45.07253264406967" lon="8.34596291001092"><ele>235.0</ele><time>2026-05-01T08:22:57.002Z</time></trkpt><trkpt lat="45.07247773136789" lon="8.346013535595144"><ele>236.0</ele><time>2026-05-01T08:23:03.002Z</time></trkpt><trkpt lat="45.0724003967861" lon="8.346049183716174"><ele>237.0</ele><time>2026-05-01T08:23:07.002Z</time></trkpt><trkpt lat="45.07233324783974" lon="8.34610735268288"><ele>238.00000000000003</ele><time>2026-05-01T08:23:09.002Z</time></trkpt><trkpt lat="45.072239452642904" lon="8.3461705346248"><ele>239.0</ele><time>2026-05-01T08:23:11.003Z</time></trkpt><trkpt lat="45.07217372185039" lon="8.346202569249566"><ele>240.00000000000003</ele><time>2026-05-01T08:23:12.003Z</time></trkpt><trkpt lat="45.0720938555027" lon="8.346201412665506"><ele>241.0</ele><time>2026-05-01T08:23:13.003Z</time></trkpt><trkpt lat="45.07202338633493" lon="8.346247255326652"><ele>242.0</ele><time>2026-05-01T08:23:14.003Z</time></trkpt><trkpt lat="45.07195573246608" lon="8.346290364070201"><ele>243.0</ele><time>2026-05-01T08:23:15.003Z</time></trkpt><trkpt lat="45.07184513888272" lon="8.346377030157955"><ele>244.00000000000003</ele><time>2026-05-01T08:23:17.003Z</time></trkpt><trkpt lat="45.07178771109454" lon="8.346414745072988"><ele>245.0</ele><time>2026-05-01T08:23:18.003Z</time></trkpt><trkpt lat="45.07167851388921" lon="8.346469472919372"><ele>242.75</ele><time>2026-05-01T08:23:20.003Z</time></trkpt><trkpt lat="45.07158082473438" lon="8.346518407661389"><ele>240.5</ele><time>2026-05-01T08:23:22.003Z</time></trkpt><trkpt lat="45.07147892231649" lon="8.346589741013627"><ele>238.25</ele><time>2026-05-01T08:23:24.003Z</time></trkpt><trkpt lat="45.071366776454475" lon="8.34666182482011"><ele>236.0</ele><time>2026-05-01T08:23:26.003Z</time></trkpt><trkpt lat="45.0712696543732" lon="8.346753874652107"><ele>236.0</ele><time>2026-05-01T08:23:28.003Z</time></trkpt><trkpt lat="45.071183601142664" lon="8.3468667050902"><ele>236.00000000000003</ele><time>2026-05-01T08:23:30.003Z</time></trkpt><trkpt lat="45.071095545140686" lon="8.346961860610195"><ele>236.00000000000003</ele><time>2026-05-01T08:23:32.003Z</time></trkpt><trkpt lat="45.07102071109471" lon="8.34705153967219"><ele>236.0</ele><time>2026-05-01T08:23:34.003Z</time></trkpt><trkpt lat="45.07097473259378" lon="8.347153364922558"><ele>236.0</ele><time>2026-05-01T08:23:36.003Z</time></trkpt><trkpt lat="45.070940094053746" lon="8.347248893237152"><ele>237.66666666666669</ele><time>2026-05-01T08:23:38.001Z</time></trkpt><trkpt lat="45.07090398228856" lon="8.347362566100115"><ele>239.33333333333334</ele><time>2026-05-01T08:23:41.001Z</time></trkpt><trkpt lat="45.07088485772519" lon="8.34745365213595"><ele>241.0</ele><time>2026-05-01T08:23:43.001Z</time></trkpt><trkpt lat="45.070869148262766" lon="8.347582847769239"><ele>242.66666666666669</ele><time>2026-05-01T08:23:46.001Z</time></trkpt><trkpt lat="45.0708412121487" lon="8.34766510672796"><ele>244.33333333333334</ele><time>2026-05-01T08:23:48.001Z</time></trkpt><trkpt lat="45.07081995713133" lon="8.347768083383782"><ele>246.0</ele><time>2026-05-01T08:23:50.001Z</time></trkpt><trkpt lat="45.07079588234338" lon="8.347885879827906"><ele>244.83333333333334</ele><time>2026-05-01T08:23:52.001Z</time></trkpt><trkpt lat="45.07076948571364" lon="8.34801711409913"><ele>243.66666666666669</ele><time>2026-05-01T08:23:54.001Z</time></trkpt><trkpt lat="45.07074414404018" lon="8.348150231669662"><ele>242.5</ele><time>2026-05-01T08:23:56.001Z</time></trkpt><trkpt lat="45.07072474560108" lon="8.348255256222679"><ele>241.33333333333334</ele><time>2026-05-01T08:23:58.001Z</time></trkpt><trkpt lat="45.070705666565914" lon="8.348360569572938"><ele>240.16666666666669</ele><time>2026-05-01T08:24:01.001Z</time></trkpt><trkpt lat="45.070703511702966" lon="8.348453824225285"><ele>239.0</ele><time>2026-05-01T08:24:03.001Z</time></trkpt><trkpt lat="45.07068012957403" lon="8.348541785012117"><ele>239.00000000000003</ele><time>2026-05-01T08:24:05.001Z</time></trkpt><trkpt lat="45.07065381261278" lon="8.348630268303506"><ele>239.0</ele><time>2026-05-01T08:24:08.001Z</time></trkpt><trkpt lat="45.07062917037244" lon="8.348729128665747"><ele>239.00000000000003</ele><time>2026-05-01T08:24:12.001Z</time></trkpt><trkpt lat="45.07059290901565" lon="8.348821787301247"><ele>239.00000000000003</ele><time>2026-05-01T08:24:15.001Z</time></trkpt><trkpt lat="45.07054417500884" lon="8.348920606488617"><ele>239.0</ele><time>2026-05-01T08:24:18.001Z</time></trkpt><trkpt lat="45.07050189097117" lon="8.348991814925522"><ele>239.00000000000003</ele><time>2026-05-01T08:24:20.001Z</time></trkpt><trkpt lat="45.07045346098805" lon="8.349066747097057"><ele>239.00000000000003</ele><time>2026-05-01T08:24:22.001Z</time></trkpt><trkpt lat="45.07039114209872" lon="8.34916003014179"><ele>240.00000000000003</ele><time>2026-05-01T08:24:25.001Z</time></trkpt><trkpt lat="45.070327565651574" lon="8.349254694787177"><ele>241.0</ele><time>2026-05-01T08:24:28.001Z</time></trkpt><trkpt lat="45.07029025676655" lon="8.34933956285005"><ele>242.00000000000003</ele><time>2026-05-01T08:24:30.001Z</time></trkpt><trkpt lat="45.07024275864629" lon="8.34940641781489"><ele>243.00000000000003</ele><time>2026-05-01T08:24:32.001Z</time></trkpt><trkpt lat="45.07019878899457" lon="8.349471700261702"><ele>244.0</ele><time>2026-05-01T08:24:34.001Z</time></trkpt><trkpt lat="45.07015172886914" lon="8.34953828383864"><ele>245.00000000000003</ele><time>2026-05-01T08:24:36.001Z</time></trkpt><trkpt lat="45.070104589551036" lon="8.349606101730112"><ele>246.00000000000003</ele><time>2026-05-01T08:24:38.001Z</time></trkpt><trkpt lat="45.07006111066818" lon="8.349673943957542"><ele>246.28571428571433</ele><time>2026-05-01T08:24:40.001Z</time></trkpt><trkpt lat="45.070011328596" lon="8.349752686938984"><ele>246.57142857142858</ele><time>2026-05-01T08:24:42.001Z</time></trkpt><trkpt lat="45.06996622015197" lon="8.34983089077547"><ele>246.8571428571429</ele><time>2026-05-01T08:24:44.001Z</time></trkpt><trkpt lat="45.069924014356886" lon="8.349907703025066"><ele>247.14285714285717</ele><time>2026-05-01T08:24:46.001Z</time></trkpt><trkpt lat="45.069885411802886" lon="8.349991888460357"><ele>247.42857142857144</ele><time>2026-05-01T08:24:48.001Z</time></trkpt><trkpt lat="45.06985252167397" lon="8.350081735373266"><ele>247.71428571428572</ele><time>2026-05-01T08:24:50.002Z</time></trkpt><trkpt lat="45.06982432021985" lon="8.350187887543374"><ele>248.0</ele><time>2026-05-01T08:24:52.002Z</time></trkpt><trkpt lat="45.069806246513565" lon="8.350297717551618"><ele>248.50000000000003</ele><time>2026-05-01T08:24:54.002Z</time></trkpt><trkpt lat="45.06978461253222" lon="8.3504029236843"><ele>249.0</ele><time>2026-05-01T08:24:56.002Z</time></trkpt><trkpt lat="45.06975733899107" lon="8.350503394403265"><ele>249.5</ele><time>2026-05-01T08:24:58.002Z</time></trkpt><trkpt lat="45.069744673361" lon="8.350600137151101"><ele>250.0</ele><time>2026-05-01T08:25:00.002Z</time></trkpt><trkpt lat="45.06973638272236" lon="8.350707131919636"><ele>250.50000000000003</ele><time>2026-05-01T08:25:02.002Z</time></trkpt><trkpt lat="45.06973903229829" lon="8.35081632288965"><ele>251.0</ele><time>2026-05-01T08:25:04.002Z</time></trkpt><trkpt lat="45.06974272164647" lon="8.350925602351287"><ele>252.57142857142856</ele><time>2026-05-01T08:25:06.002Z</time></trkpt><trkpt lat="45.069740509472496" lon="8.351034645943793"><ele>254.14285714285714</ele><time>2026-05-01T08:25:08.002Z</time></trkpt><trkpt lat="45.069743859821024" lon="8.351135091506338"><ele>255.71428571428572</ele><time>2026-05-01T08:25:10.002Z</time></trkpt><trkpt lat="45.06973839734036" lon="8.351243293681351"><ele>257.2857142857143</ele><time>2026-05-01T08:25:12.002Z</time></trkpt><trkpt lat="45.06974042782362" lon="8.351342772693698"><ele>258.8571428571429</ele><time>2026-05-01T08:25:14.002Z</time></trkpt><trkpt lat="45.06974603048156" lon="8.35143374100901"><ele>260.42857142857144</ele><time>2026-05-01T08:25:16.002Z</time></trkpt><trkpt lat="45.06976019458452" lon="8.35152826641644"><ele>262.0</ele><time>2026-05-01T08:25:18.002Z</time></trkpt><trkpt lat="45.06977370030363" lon="8.351617135446899"><ele>262.0</ele><time>2026-05-01T08:25:20.002Z</time></trkpt><trkpt lat="45.06979907668769" lon="8.35173036537399"><ele>262.0</ele><time>2026-05-01T08:25:23.002Z</time></trkpt><trkpt lat="45.06979487902591" lon="8.35182144513544"><ele>262.0</ele><time>2026-05-01T08:25:26.002Z</time></trkpt><trkpt lat="45.06968747065331" lon="8.351817191945536"><ele>262.0</ele><time>2026-05-01T08:25:31.002Z</time></trkpt><trkpt lat="45.069629698098396" lon="8.351767362785377"><ele>262.0</ele><time>2026-05-01T08:25:35.002Z</time></trkpt><trkpt lat="45.06956808605415" lon="8.351731465764361"><ele>262.0</ele><time>2026-05-01T08:25:38.002Z</time></trkpt><trkpt lat="45.0695034643309" lon="8.351692982283124"><ele>262.0</ele><time>2026-05-01T08:25:41.002Z</time></trkpt><trkpt lat="45.06943084372453" lon="8.351669206103079"><ele>262.0</ele><time>2026-05-01T08:25:44Z</time></trkpt><trkpt lat="45.06934963476849" lon="8.35162923993093"><ele>262.0</ele><time>2026-05-01T08:25:47Z</time></trkpt><trkpt lat="45.06926659676697" lon="8.351582532576916"><ele>262.0</ele><time>2026-05-01T08:25:50Z</time></trkpt><trkpt lat="45.06918912928761" lon="8.351545910896569"><ele>262.0</ele><time>2026-05-01T08:25:53Z</time></trkpt><trkpt lat="45.06912914679361" lon="8.351513402534046"><ele>262.0</ele><time>2026-05-01T08:25:55Z</time></trkpt><trkpt lat="45.06904499223991" lon="8.351462977134156"><ele>262.16666666666663</ele><time>2026-05-01T08:25:58Z</time></trkpt><trkpt lat="45.06896688766521" lon="8.351412752307787"><ele>262.3333333333333</ele><time>2026-05-01T08:26:01Z</time></trkpt><trkpt lat="45.068891720792394" lon="8.351370388546002"><ele>262.5</ele><time>2026-05-01T08:26:04Z</time></trkpt><trkpt lat="45.06882954674848" lon="8.35132268107612"><ele>262.6666666666667</ele><time>2026-05-01T08:26:06Z</time></trkpt><trkpt lat="45.06875160695834" lon="8.35126984309981"><ele>262.83333333333337</ele><time>2026-05-01T08:26:09Z</time></trkpt><trkpt lat="45.06867443018946" lon="8.351235785870072"><ele>263.0</ele><time>2026-05-01T08:26:12Z</time></trkpt><trkpt lat="45.06859624915074" lon="8.351207371870297"><ele>263.0</ele><time>2026-05-01T08:26:15Z</time></trkpt><trkpt lat="45.06851769915933" lon="8.351185561755846"><ele>263.0</ele><time>2026-05-01T08:26:18Z</time></trkpt><trkpt lat="45.06845116589809" lon="8.351166033559528"><ele>263.0</ele><time>2026-05-01T08:26:21.001Z</time></trkpt><trkpt lat="45.0683891669823" lon="8.351146901136048"><ele>263.0</ele><time>2026-05-01T08:26:24.001Z</time></trkpt><trkpt lat="45.068301561162194" lon="8.35116097685914"><ele>263.0</ele><time>2026-05-01T08:26:27.001Z</time></trkpt><trkpt lat="45.06825743293923" lon="8.351231280594707"><ele>263.0</ele><time>2026-05-01T08:26:30.001Z</time></trkpt><trkpt lat="45.06820165164558" lon="8.35131307412828"><ele>263.0</ele><time>2026-05-01T08:26:34.001Z</time></trkpt><trkpt lat="45.06815080424324" lon="8.351388000014918"><ele>264.6666666666667</ele><time>2026-05-01T08:26:37.001Z</time></trkpt><trkpt lat="45.0680922848909" lon="8.351461195206035"><ele>266.33333333333337</ele><time>2026-05-01T08:26:39.001Z</time></trkpt><trkpt lat="45.068038166826554" lon="8.351535777481537"><ele>268.0</ele><time>2026-05-01T08:26:42.001Z</time></trkpt><trkpt lat="45.06797741825065" lon="8.35162080700083"><ele>269.6666666666667</ele><time>2026-05-01T08:26:45.001Z</time></trkpt><trkpt lat="45.067913703252" lon="8.351695210981017"><ele>271.3333333333333</ele><time>2026-05-01T08:26:48.001Z</time></trkpt><trkpt lat="45.067852182258164" lon="8.351774662952604"><ele>273.0</ele><time>2026-05-01T08:26:51.001Z</time></trkpt><trkpt lat="45.067785125983136" lon="8.351849065670047"><ele>273.0</ele><time>2026-05-01T08:26:54.001Z</time></trkpt><trkpt lat="45.067713108261486" lon="8.351918063446204"><ele>273.0</ele><time>2026-05-01T08:26:57.001Z</time></trkpt><trkpt lat="45.06764535257632" lon="8.35198774705023"><ele>273.0</ele><time>2026-05-01T08:27:00.001Z</time></trkpt><trkpt lat="45.06756884315184" lon="8.352052991992949"><ele>273.0</ele><time>2026-05-01T08:27:03.001Z</time></trkpt><trkpt lat="45.06751509498649" lon="8.35210099479749"><ele>273.0</ele><time>2026-05-01T08:27:05.001Z</time></trkpt><trkpt lat="45.06745592627674" lon="8.352146226040901"><ele>273.0</ele><time>2026-05-01T08:27:07.001Z</time></trkpt><trkpt lat="45.0673889019243" lon="8.352185347470419"><ele>273.14285714285717</ele><time>2026-05-01T08:27:09.001Z</time></trkpt><trkpt lat="45.06732376458134" lon="8.352210701346957"><ele>273.2857142857143</ele><time>2026-05-01T08:27:11.001Z</time></trkpt><trkpt lat="45.067253271259744" lon="8.352227339804012"><ele>273.42857142857144</ele><time>2026-05-01T08:27:13.001Z</time></trkpt><trkpt lat="45.06717608418369" lon="8.352223797594336"><ele>273.57142857142856</ele><time>2026-05-01T08:27:15.001Z</time></trkpt><trkpt lat="45.06710689888235" lon="8.352214656525822"><ele>273.7142857142857</ele><time>2026-05-01T08:27:17.001Z</time></trkpt><trkpt lat="45.06701798672493" lon="8.352187971518527"><ele>273.8571428571429</ele><time>2026-05-01T08:27:20.001Z</time></trkpt><trkpt lat="45.06695493512836" lon="8.352149337557275"><ele>274.0</ele><time>2026-05-01T08:27:22.001Z</time></trkpt><trkpt lat="45.06687972827273" lon="8.352085389717503"><ele>274.0</ele><time>2026-05-01T08:27:25.002Z</time></trkpt><trkpt lat="45.06683073477783" lon="8.352026822393414"><ele>274.0</ele><time>2026-05-01T08:27:27.002Z</time></trkpt><trkpt lat="45.06678190024265" lon="8.351955895448306"><ele>274.0</ele><time>2026-05-01T08:27:29.002Z</time></trkpt><trkpt lat="45.066728042734944" lon="8.351867654826094"><ele>274.0</ele><time>2026-05-01T08:27:31.002Z</time></trkpt><trkpt lat="45.06666853744382" lon="8.351772068277985"><ele>274.0</ele><time>2026-05-01T08:27:33.002Z</time></trkpt><trkpt lat="45.06660375532869" lon="8.351664360589334"><ele>274.0</ele><time>2026-05-01T08:27:35.002Z</time></trkpt><trkpt lat="45.06653917768019" lon="8.351562404002282"><ele>274.0</ele><time>2026-05-01T08:27:37.002Z</time></trkpt><trkpt lat="45.06647224645781" lon="8.351459640819668"><ele>274.0</ele><time>2026-05-01T08:27:39.002Z</time></trkpt><trkpt lat="45.06639991728925" lon="8.351387372707263"><ele>274.0</ele><time>2026-05-01T08:27:41.002Z</time></trkpt><trkpt lat="45.066324095063294" lon="8.351360620047203"><ele>274.0</ele><time>2026-05-01T08:27:43.002Z</time></trkpt><trkpt lat="45.06623986076041" lon="8.351356710034105"><ele>274.0</ele><time>2026-05-01T08:27:45.002Z</time></trkpt><trkpt lat="45.06614653754459" lon="8.351371401338698"><ele>274.0</ele><time>2026-05-01T08:27:47.002Z</time></trkpt><trkpt lat="45.06607387670213" lon="8.351394772661989"><ele>274.00000000000006</ele><time>2026-05-01T08:27:49Z</time></trkpt><trkpt lat="45.06600352352773" lon="8.351416049203449"><ele>274.0</ele><time>2026-05-01T08:27:52Z</time></trkpt><trkpt lat="45.06592927699566" lon="8.351457027345997"><ele>274.0</ele><time>2026-05-01T08:27:57Z</time></trkpt><trkpt lat="45.06586616574382" lon="8.351431283493564"><ele>274.0</ele><time>2026-05-01T08:28:01Z</time></trkpt><trkpt lat="45.06587653691427" lon="8.351338749301148"><ele>274.0</ele><time>2026-05-01T08:28:02Z</time></trkpt><trkpt lat="45.0658166090029" lon="8.351297818105715"><ele>274.00000000000006</ele><time>2026-05-01T08:28:06Z</time></trkpt><trkpt lat="45.06575128566078" lon="8.351260762127318"><ele>274.0</ele><time>2026-05-01T08:28:11Z</time></trkpt><trkpt lat="45.065687291315086" lon="8.35122671635837"><ele>275.16666666666663</ele><time>2026-05-01T08:28:15Z</time></trkpt><trkpt lat="45.06562564184313" lon="8.351193918094376"><ele>276.3333333333333</ele><time>2026-05-01T08:28:18Z</time></trkpt><trkpt lat="45.065558960112355" lon="8.351182207068604"><ele>277.5</ele><time>2026-05-01T08:28:23Z</time></trkpt><trkpt lat="45.06562194501902" lon="8.351191951339343"><ele>278.6666666666667</ele><time>2026-05-01T08:28:51.001Z</time></trkpt><trkpt lat="45.06570398403318" lon="8.351235597092245"><ele>279.83333333333337</ele><time>2026-05-01T08:28:54.001Z</time></trkpt><trkpt lat="45.06575520248299" lon="8.35129512256932"><ele>281.0</ele><time>2026-05-01T08:28:59.001Z</time></trkpt><trkpt lat="45.06569103492837" lon="8.35158523312808"><ele>281.0</ele><time>2026-05-01T08:29:00.001Z</time></trkpt><trkpt lat="45.06568828605507" lon="8.351690606211944"><ele>281.0</ele><time>2026-05-01T08:29:04.001Z</time></trkpt><trkpt lat="45.065703064369536" lon="8.351790363542275"><ele>281.0</ele><time>2026-05-01T08:29:20.001Z</time></trkpt><trkpt lat="45.06569701287418" lon="8.351898893690132"><ele>281.0</ele><time>2026-05-01T08:29:22.001Z</time></trkpt><trkpt lat="45.06569955083704" lon="8.352018974585123"><ele>281.0</ele><time>2026-05-01T08:29:25.001Z</time></trkpt><trkpt lat="45.06570077730653" lon="8.352118865523439"><ele>281.0</ele><time>2026-05-01T08:30:52Z</time></trkpt><trkpt lat="45.06568951020833" lon="8.352244381311522"><ele>278.5</ele><time>2026-05-01T08:30:54Z</time></trkpt><trkpt lat="45.06568217590858" lon="8.35240801449187"><ele>276.0</ele><time>2026-05-01T08:30:56Z</time></trkpt><trkpt lat="45.065684173640435" lon="8.352500514155496"><ele>273.5</ele><time>2026-05-01T08:30:57Z</time></trkpt><trkpt lat="45.06568269616888" lon="8.352599485582493"><ele>271.0</ele><time>2026-05-01T08:30:58Z</time></trkpt><trkpt lat="45.06567820727621" lon="8.352716813526426"><ele>268.5</ele><time>2026-05-01T08:30:59Z</time></trkpt><trkpt lat="45.06567453540943" lon="8.352812953528097"><ele>266.0</ele><time>2026-05-01T08:31:00Z</time></trkpt><trkpt lat="45.06566870178451" lon="8.352982752327824"><ele>263.2</ele><time>2026-05-01T08:31:02Z</time></trkpt><trkpt lat="45.065667723200825" lon="8.353126080014942"><ele>260.40000000000003</ele><time>2026-05-01T08:31:04.001Z</time></trkpt><trkpt lat="45.06567891770243" lon="8.353299257608258"><ele>257.6</ele><time>2026-05-01T08:31:06.001Z</time></trkpt><trkpt lat="45.06567816108181" lon="8.353397852819331"><ele>254.8</ele><time>2026-05-01T08:31:07.001Z</time></trkpt><trkpt lat="45.065678197234305" lon="8.353504876029904"><ele>252.0</ele><time>2026-05-01T08:31:08.001Z</time></trkpt><trkpt lat="45.06567696470017" lon="8.353623934296266"><ele>252.0</ele><time>2026-05-01T08:31:09.001Z</time></trkpt><trkpt lat="45.06567241343647" lon="8.353748080618695"><ele>252.0</ele><time>2026-05-01T08:31:10.001Z</time></trkpt><trkpt lat="45.065673541542786" lon="8.3538535158795"><ele>252.0</ele><time>2026-05-01T08:31:11.001Z</time></trkpt><trkpt lat="45.06565782629514" lon="8.353948361855561"><ele>252.0</ele><time>2026-05-01T08:31:12.001Z</time></trkpt><trkpt lat="45.06565682613526" lon="8.354039209923837"><ele>252.0</ele><time>2026-05-01T08:31:13.001Z</time></trkpt><trkpt lat="45.06565626044423" lon="8.354129474767415"><ele>252.0</ele><time>2026-05-01T08:31:14.001Z</time></trkpt><trkpt lat="45.065649495632" lon="8.35430560076122"><ele>250.33333333333334</ele><time>2026-05-01T08:31:16.001Z</time></trkpt><trkpt lat="45.06564665011043" lon="8.354465361903893"><ele>248.66666666666669</ele><time>2026-05-01T08:31:18.001Z</time></trkpt><trkpt lat="45.065648922693086" lon="8.354591351027842"><ele>247.0</ele><time>2026-05-01T08:31:20.001Z</time></trkpt><trkpt lat="45.06565138898369" lon="8.35469381214758"><ele>245.33333333333334</ele><time>2026-05-01T08:31:22.001Z</time></trkpt><trkpt lat="45.06564029837493" lon="8.35479357783847"><ele>243.66666666666669</ele><time>2026-05-01T08:31:44.001Z</time></trkpt><trkpt lat="45.06564150645809" lon="8.354890622421527"><ele>242.0</ele><time>2026-05-01T08:31:47.001Z</time></trkpt><trkpt lat="45.06564741163485" lon="8.355013700853135"><ele>241.16666666666669</ele><time>2026-05-01T08:31:50.001Z</time></trkpt><trkpt lat="45.06565108295024" lon="8.355112680940062"><ele>240.33333333333334</ele><time>2026-05-01T08:31:52.001Z</time></trkpt><trkpt lat="45.06566190307324" lon="8.355223402048136"><ele>239.5</ele><time>2026-05-01T08:31:54.002Z</time></trkpt><trkpt lat="45.06566844920839" lon="8.35533320203285"><ele>238.66666666666669</ele><time>2026-05-01T08:31:56.002Z</time></trkpt><trkpt lat="45.06567919115531" lon="8.355485402744598"><ele>237.83333333333334</ele><time>2026-05-01T08:31:58.002Z</time></trkpt><trkpt lat="45.06568185197056" lon="8.35557681974501"><ele>237.0</ele><time>2026-05-01T08:31:59.002Z</time></trkpt><trkpt lat="45.06569021782688" lon="8.355743964335248"><ele>236.5</ele><time>2026-05-01T08:32:00.998Z</time></trkpt><trkpt lat="45.06568829520719" lon="8.355879829084675"><ele>236.0</ele><time>2026-05-01T08:32:02.998Z</time></trkpt><trkpt lat="45.06570952800962" lon="8.355979097263956"><ele>235.5</ele><time>2026-05-01T08:32:04.998Z</time></trkpt><trkpt lat="45.06572926054952" lon="8.356086022451812"><ele>235.0</ele><time>2026-05-01T08:32:06.998Z</time></trkpt><trkpt lat="45.065734454117994" lon="8.356192613708668"><ele>234.5</ele><time>2026-05-01T08:32:12.999Z</time></trkpt><trkpt lat="45.065762823831726" lon="8.356277225518918"><ele>234.0</ele><time>2026-05-01T08:32:43Z</time></trkpt><trkpt lat="45.06570330924776" lon="8.356336839520209"><ele>234.0</ele><time>2026-05-01T08:32:52Z</time></trkpt><trkpt lat="45.06563054513277" lon="8.356347174098152"><ele>234.0</ele><time>2026-05-01T08:32:56Z</time></trkpt><trkpt lat="45.06554211478236" lon="8.356340978811595"><ele>234.0</ele><time>2026-05-01T08:32:59Z</time></trkpt><trkpt lat="45.06545236953296" lon="8.35630185897381"><ele>234.0</ele><time>2026-05-01T08:33:02.001Z</time></trkpt><trkpt lat="45.06539002217284" lon="8.35626587593315"><ele>234.0</ele><time>2026-05-01T08:33:04.001Z</time></trkpt><trkpt lat="45.06530834990329" lon="8.356229637418453"><ele>234.0</ele><time>2026-05-01T08:33:07.001Z</time></trkpt><trkpt lat="45.06524062725874" lon="8.356205349905457"><ele>234.0</ele><time>2026-05-01T08:33:10.001Z</time></trkpt><trkpt lat="45.0651747235527" lon="8.356205924826872"><ele>234.0</ele><time>2026-05-01T08:33:13.001Z</time></trkpt><trkpt lat="45.06511339623404" lon="8.356239957655573"><ele>234.0</ele><time>2026-05-01T08:33:16.001Z</time></trkpt><trkpt lat="45.065090872136366" lon="8.356330344185473"><ele>234.0</ele><time>2026-05-01T08:33:18.001Z</time></trkpt><trkpt lat="45.06509597056476" lon="8.35643737079707"><ele>234.0</ele><time>2026-05-01T08:33:20.001Z</time></trkpt><trkpt lat="45.065103198028815" lon="8.356560556804137"><ele>234.0</ele><time>2026-05-01T08:33:23.001Z</time></trkpt><trkpt lat="45.06509171014049" lon="8.356703091409594"><ele>233.85714285714286</ele><time>2026-05-01T08:33:27.001Z</time></trkpt><trkpt lat="45.06508249499869" lon="8.356807778206765"><ele>233.71428571428572</ele><time>2026-05-01T08:33:29.001Z</time></trkpt><trkpt lat="45.06507463564308" lon="8.356906383942299"><ele>233.57142857142858</ele><time>2026-05-01T08:33:31.001Z</time></trkpt><trkpt lat="45.06507716883942" lon="8.357015538992092"><ele>233.42857142857144</ele><time>2026-05-01T08:33:34.001Z</time></trkpt><trkpt lat="45.06507027282372" lon="8.357105290844213"><ele>233.28571428571428</ele><time>2026-05-01T08:33:36.001Z</time></trkpt><trkpt lat="45.06506230348755" lon="8.357204153523801"><ele>233.14285714285717</ele><time>2026-05-01T08:33:38.001Z</time></trkpt><trkpt lat="45.065065116419454" lon="8.357301723552347"><ele>233.0</ele><time>2026-05-01T08:33:40.001Z</time></trkpt><trkpt lat="45.06504596182002" lon="8.35742119679629"><ele>235.00000000000003</ele><time>2026-05-01T08:33:43.002Z</time></trkpt><trkpt lat="45.06502686880809" lon="8.357530896645851"><ele>237.0</ele><time>2026-05-01T08:33:46.002Z</time></trkpt><trkpt lat="45.06502302612225" lon="8.357629900304161"><ele>239.0</ele><time>2026-05-01T08:33:49.002Z</time></trkpt><trkpt lat="45.06502073886047" lon="8.357736170957061"><ele>241.0</ele><time>2026-05-01T08:33:52.002Z</time></trkpt><trkpt lat="45.06503527152453" lon="8.357836123487775"><ele>243.00000000000003</ele><time>2026-05-01T08:33:55.002Z</time></trkpt><trkpt lat="45.06501886065713" lon="8.357935503712433"><ele>245.0</ele><time>2026-05-01T08:33:57.002Z</time></trkpt><trkpt lat="45.06500954715908" lon="8.358061618889092"><ele>246.00000000000003</ele><time>2026-05-01T08:33:59.002Z</time></trkpt><trkpt lat="45.064980484978236" lon="8.358194262391274"><ele>247.0</ele><time>2026-05-01T08:34:01.002Z</time></trkpt><trkpt lat="45.064959894072736" lon="8.358292960169099"><ele>248.0</ele><time>2026-05-01T08:34:03.002Z</time></trkpt><trkpt lat="45.064935963650285" lon="8.35840014059003"><ele>249.0</ele><time>2026-05-01T08:34:05.002Z</time></trkpt><trkpt lat="45.06492016926184" lon="8.35852857311465"><ele>250.00000000000003</ele><time>2026-05-01T08:34:07Z</time></trkpt><trkpt lat="45.06492373211609" lon="8.358644223389387"><ele>251.0</ele><time>2026-05-01T08:34:09Z</time></trkpt><trkpt lat="45.0649287384786" lon="8.358765641726837"><ele>251.00000000000003</ele><time>2026-05-01T08:34:11Z</time></trkpt><trkpt lat="45.064952643163124" lon="8.358856667586712"><ele>251.0</ele><time>2026-05-01T08:34:13Z</time></trkpt><trkpt lat="45.06498113925145" lon="8.358956405511062"><ele>251.0</ele><time>2026-05-01T08:34:15Z</time></trkpt><trkpt lat="45.065007347650116" lon="8.359098575522134"><ele>251.0</ele><time>2026-05-01T08:34:17Z</time></trkpt><trkpt lat="45.06503738169476" lon="8.359229582428062"><ele>251.00000000000003</ele><time>2026-05-01T08:34:19Z</time></trkpt><trkpt lat="45.06508031519102" lon="8.359347172416705"><ele>251.0</ele><time>2026-05-01T08:34:21Z</time></trkpt><trkpt lat="45.0651461961459" lon="8.35944648308728"><ele>251.0</ele><time>2026-05-01T08:34:23Z</time></trkpt><trkpt lat="45.065205458030206" lon="8.35955583563567"><ele>251.00000000000003</ele><time>2026-05-01T08:34:25Z</time></trkpt><trkpt lat="45.06524157615915" lon="8.359680823888368"><ele>251.00000000000003</ele><time>2026-05-01T08:34:27Z</time></trkpt><trkpt lat="45.0653115892375" lon="8.359772964481522"><ele>251.0</ele><time>2026-05-01T08:34:29Z</time></trkpt><trkpt lat="45.06537036021404" lon="8.359876974480937"><ele>251.0</ele><time>2026-05-01T08:34:31Z</time></trkpt><trkpt lat="45.065411434961696" lon="8.35997601618573"><ele>251.1428571428571</ele><time>2026-05-01T08:34:33Z</time></trkpt><trkpt lat="45.06545131258362" lon="8.360066184983904"><ele>251.28571428571428</ele><time>2026-05-01T08:34:35Z</time></trkpt><trkpt lat="45.065483177824674" lon="8.360155369484097"><ele>251.42857142857142</ele><time>2026-05-01T08:34:37Z</time></trkpt><trkpt lat="45.06552499497718" lon="8.360251672446424"><ele>251.57142857142856</ele><time>2026-05-01T08:34:40Z</time></trkpt><trkpt lat="45.06547118837354" lon="8.360330837496335"><ele>251.71428571428572</ele><time>2026-05-01T08:34:44.001Z</time></trkpt><trkpt lat="45.06541849141749" lon="8.360380599314498"><ele>251.85714285714286</ele><time>2026-05-01T08:35:10.001Z</time></trkpt><trkpt lat="45.06535812224678" lon="8.36042937147449"><ele>252.0</ele><time>2026-05-01T08:35:13.001Z</time></trkpt><trkpt lat="45.065295901534796" lon="8.360450639467413"><ele>252.0</ele><time>2026-05-01T08:35:17.001Z</time></trkpt><trkpt lat="45.06520581885027" lon="8.360490085950241"><ele>252.0</ele><time>2026-05-01T08:35:20.001Z</time></trkpt><trkpt lat="45.06514033284322" lon="8.360525548586113"><ele>252.0</ele><time>2026-05-01T08:35:22.002Z</time></trkpt><trkpt lat="45.065058889366476" lon="8.360529605306532"><ele>252.0</ele><time>2026-05-01T08:35:25.002Z</time></trkpt><trkpt lat="45.06496865885171" lon="8.360541027503892"><ele>252.0</ele><time>2026-05-01T08:35:28.002Z</time></trkpt><trkpt lat="45.06488837262315" lon="8.360560266923414"><ele>252.0</ele><time>2026-05-01T08:35:31.002Z</time></trkpt><trkpt lat="45.06482132422494" lon="8.360561803566734"><ele>251.16666666666666</ele><time>2026-05-01T08:35:34.002Z</time></trkpt><trkpt lat="45.06474215595436" lon="8.36063106889671"><ele>250.33333333333331</ele><time>2026-05-01T08:35:39.002Z</time></trkpt><trkpt lat="45.06467759749734" lon="8.360691141822928"><ele>249.5</ele><time>2026-05-01T08:35:41.002Z</time></trkpt><trkpt lat="45.064579032408844" lon="8.36074532864661"><ele>248.66666666666666</ele><time>2026-05-01T08:35:43.002Z</time></trkpt><trkpt lat="45.064487607272845" lon="8.360788968881748"><ele>247.83333333333331</ele><time>2026-05-01T08:35:45.002Z</time></trkpt><trkpt lat="45.064426382876526" lon="8.360839453445697"><ele>247.0</ele><time>2026-05-01T08:35:47.002Z</time></trkpt><trkpt lat="45.06435612752836" lon="8.36092129032774"><ele>246.99999999999997</ele><time>2026-05-01T08:35:49.002Z</time></trkpt><trkpt lat="45.06425642016963" lon="8.360928297350055"><ele>247.0</ele><time>2026-05-01T08:35:51.002Z</time></trkpt><trkpt lat="45.0641384623023" lon="8.360899355207708"><ele>247.0</ele><time>2026-05-01T08:35:53.002Z</time></trkpt><trkpt lat="45.0640680460639" lon="8.360888953010976"><ele>247.0</ele><time>2026-05-01T08:35:54.002Z</time></trkpt><trkpt lat="45.06400059075558" lon="8.360883532868742"><ele>246.99999999999997</ele><time>2026-05-01T08:35:55.002Z</time></trkpt><trkpt lat="45.063936386070424" lon="8.360871333688834"><ele>247.0</ele><time>2026-05-01T08:35:56.002Z</time></trkpt><trkpt lat="45.0638404695233" lon="8.360828181512588"><ele>248.0</ele><time>2026-05-01T08:35:58.002Z</time></trkpt><trkpt lat="45.06374314820678" lon="8.360788386023179"><ele>249.0</ele><time>2026-05-01T08:36:00.002Z</time></trkpt><trkpt lat="45.06366532757868" lon="8.360698976566216"><ele>250.0</ele><time>2026-05-01T08:36:02.002Z</time></trkpt><trkpt lat="45.06360831103965" lon="8.36060584814785"><ele>251.0</ele><time>2026-05-01T08:36:04.003Z</time></trkpt><trkpt lat="45.06352955708039" lon="8.360571477705793"><ele>252.0</ele><time>2026-05-01T08:36:06.003Z</time></trkpt><trkpt lat="45.06345377462067" lon="8.360632637941317"><ele>252.0</ele><time>2026-05-01T08:36:08.003Z</time></trkpt><trkpt lat="45.06339945238984" lon="8.360740362864673"><ele>252.0</ele><time>2026-05-01T08:36:10.003Z</time></trkpt><trkpt lat="45.06335212744818" lon="8.360857080918825"><ele>252.0</ele><time>2026-05-01T08:36:12.003Z</time></trkpt><trkpt lat="45.06329156849864" lon="8.360982647342295"><ele>252.0</ele><time>2026-05-01T08:36:14Z</time></trkpt><trkpt lat="45.063221899591184" lon="8.361117411182802"><ele>252.0</ele><time>2026-05-01T08:36:16Z</time></trkpt><trkpt lat="45.06317732550273" lon="8.361251911594199"><ele>253.8</ele><time>2026-05-01T08:36:18Z</time></trkpt><trkpt lat="45.06312089627157" lon="8.361407780764853"><ele>255.6</ele><time>2026-05-01T08:36:20Z</time></trkpt><trkpt lat="45.06310096316086" lon="8.361493419623708"><ele>257.40000000000003</ele><time>2026-05-01T08:36:21Z</time></trkpt><trkpt lat="45.063074194458046" lon="8.361654242990182"><ele>259.2</ele><time>2026-05-01T08:36:23Z</time></trkpt><trkpt lat="45.06304647951746" lon="8.361822388674504"><ele>261.0</ele><time>2026-05-01T08:36:25Z</time></trkpt><trkpt lat="45.06302915645354" lon="8.36199908981495"><ele>261.0</ele><time>2026-05-01T08:36:27Z</time></trkpt><trkpt lat="45.063017251261236" lon="8.362121526737416"><ele>261.0</ele><time>2026-05-01T08:36:29Z</time></trkpt><trkpt lat="45.06300137563878" lon="8.362233553190688"><ele>261.0</ele><time>2026-05-01T08:36:31Z</time></trkpt><trkpt lat="45.06298358442624" lon="8.362344547639701"><ele>261.0</ele><time>2026-05-01T08:36:33Z</time></trkpt><trkpt lat="45.06297931732853" lon="8.362456578399865"><ele>261.0</ele><time>2026-05-01T08:36:35Z</time></trkpt><trkpt lat="45.06296904670702" lon="8.362601302874616"><ele>261.0</ele><time>2026-05-01T08:36:37Z</time></trkpt><trkpt lat="45.06296237760853" lon="8.362745709439402"><ele>259.8333333333333</ele><time>2026-05-01T08:36:39.001Z</time></trkpt><trkpt lat="45.06296510634461" lon="8.362912506215"><ele>258.6666666666667</ele><time>2026-05-01T08:36:41.001Z</time></trkpt><trkpt lat="45.062970608367195" lon="8.36300543056747"><ele>257.5</ele><time>2026-05-01T08:36:42.001Z</time></trkpt><trkpt lat="45.06298045882453" lon="8.363102265258208"><ele>256.33333333333337</ele><time>2026-05-01T08:36:43.001Z</time></trkpt><trkpt lat="45.06298659519188" lon="8.363205616554572"><ele>255.16666666666669</ele><time>2026-05-01T08:36:44.001Z</time></trkpt><trkpt lat="45.06299496145806" lon="8.363307062983287"><ele>254.0</ele><time>2026-05-01T08:36:45.001Z</time></trkpt><trkpt lat="45.062998602560846" lon="8.363423805523002"><ele>253.50000000000003</ele><time>2026-05-01T08:36:46.001Z</time></trkpt><trkpt lat="45.063007200438115" lon="8.363527295373943"><ele>253.0</ele><time>2026-05-01T08:36:47.001Z</time></trkpt><trkpt lat="45.06301291866926" lon="8.363628625123042"><ele>252.5</ele><time>2026-05-01T08:36:48.001Z</time></trkpt><trkpt lat="45.06302052866945" lon="8.363739181399966"><ele>252.0</ele><time>2026-05-01T08:36:49.001Z</time></trkpt><trkpt lat="45.06301319927714" lon="8.36385629936343"><ele>251.50000000000003</ele><time>2026-05-01T08:36:50.001Z</time></trkpt><trkpt lat="45.06301226382819" lon="8.363980768298818"><ele>251.0</ele><time>2026-05-01T08:36:51.001Z</time></trkpt><trkpt lat="45.06301335052343" lon="8.364105500694944"><ele>250.99999999999997</ele><time>2026-05-01T08:36:52.001Z</time></trkpt><trkpt lat="45.06301346487313" lon="8.364225316987792"><ele>251.0</ele><time>2026-05-01T08:36:53.001Z</time></trkpt><trkpt lat="45.063020930854975" lon="8.364337975663467"><ele>250.99999999999997</ele><time>2026-05-01T08:36:54.001Z</time></trkpt><trkpt lat="45.06302103682051" lon="8.364454225331874"><ele>250.99999999999997</ele><time>2026-05-01T08:36:55.001Z</time></trkpt><trkpt lat="45.06303271725734" lon="8.364550177420622"><ele>251.0</ele><time>2026-05-01T08:36:56.001Z</time></trkpt><trkpt lat="45.063045958848676" lon="8.36464025727547"><ele>250.99999999999997</ele><time>2026-05-01T08:36:57.001Z</time></trkpt><trkpt lat="45.06306393779435" lon="8.364732701587728"><ele>250.99999999999997</ele><time>2026-05-01T08:36:58.001Z</time></trkpt><trkpt lat="45.06309887842933" lon="8.36481343618485"><ele>250.99999999999997</ele><time>2026-05-01T08:36:59.001Z</time></trkpt><trkpt lat="45.06313297083509" lon="8.36489146219626"><ele>251.0</ele><time>2026-05-01T08:37:00.001Z</time></trkpt><trkpt lat="45.06316781620935" lon="8.364971853827148"><ele>250.99999999999997</ele><time>2026-05-01T08:37:01.001Z</time></trkpt><trkpt lat="45.063201639516286" lon="8.36505657896065"><ele>250.99999999999997</ele><time>2026-05-01T08:37:02.001Z</time></trkpt><trkpt lat="45.06324052164606" lon="8.365144007454308"><ele>251.0</ele><time>2026-05-01T08:37:03.001Z</time></trkpt><trkpt lat="45.06327832134793" lon="8.365219745852809"><ele>250.99999999999997</ele><time>2026-05-01T08:37:04.001Z</time></trkpt><trkpt lat="45.063316660640915" lon="8.365297279603185"><ele>250.99999999999997</ele><time>2026-05-01T08:37:05.001Z</time></trkpt><trkpt lat="45.063355757784706" lon="8.365371555375262"><ele>246.66666666666669</ele><time>2026-05-01T08:37:06.001Z</time></trkpt><trkpt lat="45.063397805122825" lon="8.365444847438212"><ele>242.33333333333334</ele><time>2026-05-01T08:37:07.001Z</time></trkpt><trkpt lat="45.063435358850754" lon="8.365522552099115"><ele>238.0</ele><time>2026-05-01T08:37:08.001Z</time></trkpt><trkpt lat="45.06347507618524" lon="8.365595211449275"><ele>233.66666666666669</ele><time>2026-05-01T08:37:09.001Z</time></trkpt><trkpt lat="45.063536399997766" lon="8.365727886683404"><ele>229.33333333333334</ele><time>2026-05-01T08:37:11.001Z</time></trkpt><trkpt lat="45.06356881919153" lon="8.36586626814582"><ele>225.0</ele><time>2026-05-01T08:37:13.001Z</time></trkpt><trkpt lat="45.06358136407142" lon="8.366010030292443"><ele>224.6</ele><time>2026-05-01T08:37:15.001Z</time></trkpt><trkpt lat="45.06356996964002" lon="8.366161823531696"><ele>224.2</ele><time>2026-05-01T08:37:17.001Z</time></trkpt><trkpt lat="45.06353546018774" lon="8.366292053321299"><ele>223.8</ele><time>2026-05-01T08:37:19.001Z</time></trkpt><trkpt lat="45.06347203581036" lon="8.36639843590499"><ele>223.4</ele><time>2026-05-01T08:37:21.001Z</time></trkpt><trkpt lat="45.06339965636496" lon="8.366489098908565"><ele>223.0</ele><time>2026-05-01T08:37:23.001Z</time></trkpt><trkpt lat="45.06332789356234" lon="8.366571876185079"><ele>225.99999999999997</ele><time>2026-05-01T08:37:25.002Z</time></trkpt><trkpt lat="45.063269025654805" lon="8.366625974567887"><ele>229.0</ele><time>2026-05-01T08:37:27.002Z</time></trkpt><trkpt lat="45.06321403009561" lon="8.36667641584088"><ele>232.0</ele><time>2026-05-01T08:37:29.002Z</time></trkpt><trkpt lat="45.06315663132801" lon="8.366734965174325"><ele>235.0</ele><time>2026-05-01T08:37:31.002Z</time></trkpt><trkpt lat="45.06308992349726" lon="8.36682444601372"><ele>237.99999999999997</ele><time>2026-05-01T08:37:34.002Z</time></trkpt><trkpt lat="45.0630512221176" lon="8.366951402634593"><ele>241.0</ele><time>2026-05-01T08:37:37.002Z</time></trkpt><trkpt lat="45.06304727857648" lon="8.367048279396545"><ele>241.0</ele><time>2026-05-01T08:37:39.002Z</time></trkpt><trkpt lat="45.06305241273005" lon="8.367141496947093"><ele>241.00000000000003</ele><time>2026-05-01T08:37:41.002Z</time></trkpt><trkpt lat="45.063064697217825" lon="8.367245982302517"><ele>241.0</ele><time>2026-05-01T08:37:43.002Z</time></trkpt><trkpt lat="45.06308476209915" lon="8.367351254533501"><ele>241.0</ele><time>2026-05-01T08:37:45.002Z</time></trkpt><trkpt lat="45.06310414055862" lon="8.36746480579444"><ele>241.00000000000003</ele><time>2026-05-01T08:37:47.002Z</time></trkpt><trkpt lat="45.063120758788294" lon="8.367556518599182"><ele>241.0</ele><time>2026-05-01T08:37:49.002Z</time></trkpt><trkpt lat="45.063150064872346" lon="8.367661772646237"><ele>241.0</ele><time>2026-05-01T08:37:51.002Z</time></trkpt><trkpt lat="45.063177856043716" lon="8.367757294152703"><ele>241.0</ele><time>2026-05-01T08:37:53.002Z</time></trkpt><trkpt lat="45.06321086110129" lon="8.367855446194056"><ele>241.00000000000003</ele><time>2026-05-01T08:37:55.002Z</time></trkpt><trkpt lat="45.06324377338578" lon="8.367956349311463"><ele>241.0</ele><time>2026-05-01T08:37:57.002Z</time></trkpt><trkpt lat="45.06327517188421" lon="8.368048395061477"><ele>241.0</ele><time>2026-05-01T08:37:59.002Z</time></trkpt><trkpt lat="45.06329036878846" lon="8.36814487071213"><ele>241.00000000000003</ele><time>2026-05-01T08:38:01.002Z</time></trkpt><trkpt lat="45.06329034351554" lon="8.368241969613676"><ele>241.0</ele><time>2026-05-01T08:38:03.002Z</time></trkpt><trkpt lat="45.06327028527919" lon="8.368335145278758"><ele>241.0</ele><time>2026-05-01T08:38:05.002Z</time></trkpt><trkpt lat="45.06321848911412" lon="8.368405194839978"><ele>240.99999999999997</ele><time>2026-05-01T08:38:07.002Z</time></trkpt><trkpt lat="45.0631829325327" lon="8.368495289226123"><ele>241.0</ele><time>2026-05-01T08:38:09.003Z</time></trkpt><trkpt lat="45.063154484437675" lon="8.368607403133531"><ele>241.0</ele><time>2026-05-01T08:38:12.003Z</time></trkpt><trkpt lat="45.063164669455034" lon="8.368707639574446"><ele>241.0</ele><time>2026-05-01T08:38:15.003Z</time></trkpt><trkpt lat="45.06320575342963" lon="8.368778790431314"><ele>240.99999999999997</ele><time>2026-05-01T08:38:17.003Z</time></trkpt><trkpt lat="45.06325450994548" lon="8.368871153521257"><ele>241.0</ele><time>2026-05-01T08:38:19Z</time></trkpt><trkpt lat="45.063316877071635" lon="8.368947343058798"><ele>237.99999999999997</ele><time>2026-05-01T08:38:21Z</time></trkpt><trkpt lat="45.06337257531394" lon="8.369022992267086"><ele>235.0</ele><time>2026-05-01T08:38:23Z</time></trkpt><trkpt lat="45.06341468808296" lon="8.369117553209572"><ele>232.0</ele><time>2026-05-01T08:38:25Z</time></trkpt><trkpt lat="45.0634651458482" lon="8.36922232681449"><ele>229.0</ele><time>2026-05-01T08:38:27Z</time></trkpt><trkpt lat="45.06352719443746" lon="8.36931033408298"><ele>225.99999999999997</ele><time>2026-05-01T08:38:29Z</time></trkpt><trkpt lat="45.06358204651511" lon="8.369407201261671"><ele>223.0</ele><time>2026-05-01T08:38:31Z</time></trkpt><trkpt lat="45.063625433157995" lon="8.369512633551565"><ele>222.99999999999997</ele><time>2026-05-01T08:38:33Z</time></trkpt><trkpt lat="45.06363080179369" lon="8.369629122883923"><ele>223.0</ele><time>2026-05-01T08:38:35Z</time></trkpt><trkpt lat="45.063657510993025" lon="8.369741761022075"><ele>223.0</ele><time>2026-05-01T08:38:37Z</time></trkpt><trkpt lat="45.063691058977156" lon="8.369842031286053"><ele>223.0</ele><time>2026-05-01T08:38:39Z</time></trkpt><trkpt lat="45.0637276243037" lon="8.369923604778315"><ele>222.99999999999997</ele><time>2026-05-01T08:38:41Z</time></trkpt><trkpt lat="45.06375164131876" lon="8.37004124389637"><ele>223.0</ele><time>2026-05-01T08:38:47Z</time></trkpt><trkpt lat="45.06382327005161" lon="8.37004781675525"><ele>220.66666666666666</ele><time>2026-05-01T08:38:50.001Z</time></trkpt><trkpt lat="45.063886188456756" lon="8.370082138731583"><ele>218.33333333333331</ele><time>2026-05-01T08:38:54.001Z</time></trkpt><trkpt lat="45.06393784826065" lon="8.370137029047985"><ele>216.0</ele><time>2026-05-01T08:38:58.001Z</time></trkpt><trkpt lat="45.063778288104984" lon="8.370602146929244"><ele>214.0</ele><time>2026-05-01T08:39:03.001Z</time></trkpt><trkpt lat="45.06368653331515" lon="8.370658467730962"><ele>212.00000000000003</ele><time>2026-05-01T08:39:05.001Z</time></trkpt><trkpt lat="45.06358475752904" lon="8.370733766868211"><ele>210.0</ele><time>2026-05-01T08:39:07.001Z</time></trkpt><trkpt lat="45.06350168642828" lon="8.370791450679667"><ele>208.0</ele><time>2026-05-01T08:39:09.001Z</time></trkpt><trkpt lat="45.06342658402157" lon="8.37084783436454"><ele>206.0</ele><time>2026-05-01T08:39:11.001Z</time></trkpt><trkpt lat="45.06333800861076" lon="8.37095195964853"><ele>206.00000000000003</ele><time>2026-05-01T08:39:13.001Z</time></trkpt><trkpt lat="45.06329566706103" lon="8.37110587969851"><ele>206.0</ele><time>2026-05-01T08:39:15.001Z</time></trkpt><trkpt lat="45.06329240001736" lon="8.371198359291341"><ele>206.0</ele><time>2026-05-01T08:39:16.001Z</time></trkpt><trkpt lat="45.06329194051275" lon="8.371287982708203"><ele>206.0</ele><time>2026-05-01T08:39:17.001Z</time></trkpt><trkpt lat="45.06330282544377" lon="8.371378086001451"><ele>206.00000000000003</ele><time>2026-05-01T08:39:18.001Z</time></trkpt><trkpt lat="45.06333408813025" lon="8.371479159416065"><ele>206.0</ele><time>2026-05-01T08:39:19.001Z</time></trkpt><trkpt lat="45.06336866905256" lon="8.371570410485068"><ele>204.8</ele><time>2026-05-01T08:39:20.001Z</time></trkpt><trkpt lat="45.063425200512484" lon="8.371700824369741"><ele>203.60000000000002</ele><time>2026-05-01T08:39:22.001Z</time></trkpt><trkpt lat="45.063488115232" lon="8.371788278897505"><ele>202.4</ele><time>2026-05-01T08:39:24.001Z</time></trkpt><trkpt lat="45.06358721411775" lon="8.371834864089145"><ele>201.2</ele><time>2026-05-01T08:39:26.001Z</time></trkpt><trkpt lat="45.0637129594205" lon="8.371793532616332"><ele>200.0</ele><time>2026-05-01T08:39:28.001Z</time></trkpt><trkpt lat="45.063776843373965" lon="8.371774447240728"><ele>200.00000000000003</ele><time>2026-05-01T08:39:29.001Z</time></trkpt><trkpt lat="45.063869090149915" lon="8.371740745489978"><ele>200.0</ele><time>2026-05-01T08:39:31.001Z</time></trkpt><trkpt lat="45.063958265709374" lon="8.371702910097234"><ele>200.0</ele><time>2026-05-01T08:39:33.001Z</time></trkpt><trkpt lat="45.064057710305256" lon="8.37174797322863"><ele>200.0</ele><time>2026-05-01T08:39:35.002Z</time></trkpt><trkpt lat="45.06411403648361" lon="8.371801007231841"><ele>200.00000000000003</ele><time>2026-05-01T08:39:36.002Z</time></trkpt><trkpt lat="45.06417369117057" lon="8.371868207678823"><ele>200.0</ele><time>2026-05-01T08:39:37.002Z</time></trkpt><trkpt lat="45.06424526405299" lon="8.371921974835452"><ele>198.50000000000003</ele><time>2026-05-01T08:39:38.002Z</time></trkpt><trkpt lat="45.064310371401" lon="8.371980858209602"><ele>197.0</ele><time>2026-05-01T08:39:39.002Z</time></trkpt><trkpt lat="45.06438416482102" lon="8.37201758568364"><ele>195.5</ele><time>2026-05-01T08:39:40.002Z</time></trkpt><trkpt lat="45.06445552303653" lon="8.372061130683555"><ele>194.0</ele><time>2026-05-01T08:39:41.002Z</time></trkpt><trkpt lat="45.064533045795926" lon="8.372101743941942"><ele>192.5</ele><time>2026-05-01T08:39:42.002Z</time></trkpt><trkpt lat="45.064611651171795" lon="8.372133482008996"><ele>191.0</ele><time>2026-05-01T08:39:43.002Z</time></trkpt><trkpt lat="45.06468732274194" lon="8.372172761016111"><ele>189.5</ele><time>2026-05-01T08:39:44.002Z</time></trkpt><trkpt lat="45.06476477858189" lon="8.372200983887023"><ele>188.0</ele><time>2026-05-01T08:39:45.002Z</time></trkpt><trkpt lat="45.064842813900626" lon="8.372234276751794"><ele>186.5</ele><time>2026-05-01T08:39:46.002Z</time></trkpt><trkpt lat="45.06491884999868" lon="8.372256768134838"><ele>185.0</ele><time>2026-05-01T08:39:47.002Z</time></trkpt><trkpt lat="45.06500268780082" lon="8.37227217480634"><ele>183.5</ele><time>2026-05-01T08:39:48.002Z</time></trkpt><trkpt lat="45.06508134420353" lon="8.372281105335212"><ele>182.0</ele><time>2026-05-01T08:39:49.002Z</time></trkpt><trkpt lat="45.06515938300196" lon="8.372276349129594"><ele>181.16666666666666</ele><time>2026-05-01T08:39:50.002Z</time></trkpt><trkpt lat="45.06523633418108" lon="8.372284417917909"><ele>180.33333333333331</ele><time>2026-05-01T08:39:51.002Z</time></trkpt><trkpt lat="45.065303070731694" lon="8.37227846464083"><ele>179.5</ele><time>2026-05-01T08:39:52.002Z</time></trkpt><trkpt lat="45.065415632766744" lon="8.372258729182644"><ele>178.66666666666666</ele><time>2026-05-01T08:39:54.002Z</time></trkpt><trkpt lat="45.06549312061188" lon="8.372235243729543"><ele>177.83333333333334</ele><time>2026-05-01T08:39:56.002Z</time></trkpt><trkpt lat="45.06556787957811" lon="8.372288777077083"><ele>177.0</ele><time>2026-05-01T08:39:59.002Z</time></trkpt><trkpt lat="45.065557792840444" lon="8.372412899615815"><ele>177.0</ele><time>2026-05-01T08:40:01.002Z</time></trkpt><trkpt lat="45.06554097486406" lon="8.372507797413343"><ele>177.0</ele><time>2026-05-01T08:40:03.002Z</time></trkpt><trkpt lat="45.06553407512184" lon="8.37263136945663"><ele>177.0</ele><time>2026-05-01T08:40:06.002Z</time></trkpt><trkpt lat="45.06553772347694" lon="8.3727373565606"><ele>177.0</ele><time>2026-05-01T08:40:09.002Z</time></trkpt><trkpt lat="45.065539061916375" lon="8.372853442011406"><ele>177.0</ele><time>2026-05-01T08:40:13.002Z</time></trkpt><trkpt lat="45.0655451424208" lon="8.372978087979039"><ele>177.0</ele><time>2026-05-01T08:40:16.002Z</time></trkpt><trkpt lat="45.06554218591391" lon="8.373077928148815"><ele>177.16666666666666</ele><time>2026-05-01T08:40:18.002Z</time></trkpt><trkpt lat="45.06554471059469" lon="8.373178196027526"><ele>177.33333333333334</ele><time>2026-05-01T08:40:20.003Z</time></trkpt><trkpt lat="45.06555983844316" lon="8.3732886525104"><ele>177.5</ele><time>2026-05-01T08:40:22.003Z</time></trkpt><trkpt lat="45.06560378262388" lon="8.373382813602953"><ele>177.66666666666669</ele><time>2026-05-01T08:40:24.003Z</time></trkpt><trkpt lat="45.06567940835958" lon="8.373425834321319"><ele>177.83333333333334</ele><time>2026-05-01T08:40:26Z</time></trkpt><trkpt lat="45.06575720562868" lon="8.373454414212244"><ele>178.0</ele><time>2026-05-01T08:40:28Z</time></trkpt><trkpt lat="45.06583341980151" lon="8.373487274023613"><ele>178.16666666666669</ele><time>2026-05-01T08:40:30Z</time></trkpt><trkpt lat="45.065900126207865" lon="8.37353479996126"><ele>178.33333333333334</ele><time>2026-05-01T08:40:32Z</time></trkpt><trkpt lat="45.06594278213394" lon="8.373632650934157"><ele>178.5</ele><time>2026-05-01T08:40:34Z</time></trkpt><trkpt lat="45.065985734865706" lon="8.373729154849372"><ele>178.66666666666666</ele><time>2026-05-01T08:40:36Z</time></trkpt><trkpt lat="45.06602310238136" lon="8.373823169858246"><ele>178.83333333333331</ele><time>2026-05-01T08:40:38Z</time></trkpt><trkpt lat="45.066078011490575" lon="8.373919168146868"><ele>179.0</ele><time>2026-05-01T08:40:40Z</time></trkpt><trkpt lat="45.066119871250116" lon="8.374015253050102"><ele>179.0</ele><time>2026-05-01T08:40:42Z</time></trkpt><trkpt lat="45.066156151035024" lon="8.374101136590088"><ele>179.0</ele><time>2026-05-01T08:40:44Z</time></trkpt><trkpt lat="45.066183128970266" lon="8.374189337130982"><ele>179.0</ele><time>2026-05-01T08:40:46Z</time></trkpt><trkpt lat="45.066226710915224" lon="8.374285643179585"><ele>179.0</ele><time>2026-05-01T08:40:48Z</time></trkpt><trkpt lat="45.06628026851101" lon="8.374394798282587"><ele>179.0</ele><time>2026-05-01T08:40:50Z</time></trkpt><trkpt lat="45.066323301581" lon="8.374496211811408"><ele>179.0</ele><time>2026-05-01T08:40:52Z</time></trkpt><trkpt lat="45.06636824690755" lon="8.374592086284933"><ele>179.0</ele><time>2026-05-01T08:40:54Z</time></trkpt><trkpt lat="45.06640575198341" lon="8.37468273914388"><ele>179.0</ele><time>2026-05-01T08:40:56Z</time></trkpt><trkpt lat="45.06644415765147" lon="8.374768330586257"><ele>179.0</ele><time>2026-05-01T08:40:58Z</time></trkpt><trkpt lat="45.066478658533086" lon="8.374854691828618"><ele>179.0</ele><time>2026-05-01T08:41:00Z</time></trkpt><trkpt lat="45.06652070809914" lon="8.37496038391"><ele>179.0</ele><time>2026-05-01T08:41:02.001Z</time></trkpt><trkpt lat="45.066561188713784" lon="8.3750554484923"><ele>179.0</ele><time>2026-05-01T08:41:04.001Z</time></trkpt><trkpt lat="45.06659729353085" lon="8.375151838913423"><ele>178.0</ele><time>2026-05-01T08:41:06.001Z</time></trkpt><trkpt lat="45.06663275382353" lon="8.375252712258083"><ele>177.0</ele><time>2026-05-01T08:41:08.001Z</time></trkpt><trkpt lat="45.066671682745614" lon="8.375347498217877"><ele>176.0</ele><time>2026-05-01T08:41:10.001Z</time></trkpt><trkpt lat="45.06671228557867" lon="8.375436580395988"><ele>175.0</ele><time>2026-05-01T08:41:12.001Z</time></trkpt><trkpt lat="45.06675470702929" lon="8.375536733205802"><ele>174.0</ele><time>2026-05-01T08:41:14.001Z</time></trkpt><trkpt lat="45.06681555232821" lon="8.37565266220987"><ele>173.0</ele><time>2026-05-01T08:41:16.001Z</time></trkpt><trkpt lat="45.06686421810063" lon="8.375754798224888"><ele>173.0</ele><time>2026-05-01T08:41:18.001Z</time></trkpt><trkpt lat="45.06690507726182" lon="8.375861334068677"><ele>173.0</ele><time>2026-05-01T08:41:20.001Z</time></trkpt><trkpt lat="45.06694446850937" lon="8.37596882583953"><ele>173.0</ele><time>2026-05-01T08:41:22.001Z</time></trkpt><trkpt lat="45.066978947642255" lon="8.376068616702687"><ele>173.0</ele><time>2026-05-01T08:41:24.001Z</time></trkpt><trkpt lat="45.067032629224606" lon="8.376162357216534"><ele>173.0</ele><time>2026-05-01T08:41:26.001Z</time></trkpt><trkpt lat="45.06710740814165" lon="8.376206344468136"><ele>173.0</ele><time>2026-05-01T08:41:28.001Z</time></trkpt><trkpt lat="45.067193233325355" lon="8.376205792716958"><ele>173.0</ele><time>2026-05-01T08:41:30.001Z</time></trkpt><trkpt lat="45.06725713340305" lon="8.376210726155591"><ele>173.0</ele><time>2026-05-01T08:41:32.001Z</time></trkpt><trkpt lat="45.06735118215349" lon="8.37622862459031"><ele>173.0</ele><time>2026-05-01T08:41:35.001Z</time></trkpt><trkpt lat="45.06739496759401" lon="8.376317663454575"><ele>173.0</ele><time>2026-05-01T08:41:38.001Z</time></trkpt><trkpt lat="45.067425527833215" lon="8.37641732749799"><ele>173.0</ele><time>2026-05-01T08:41:42.001Z</time></trkpt><trkpt lat="45.06745614804178" lon="8.376506030870203"><ele>173.0</ele><time>2026-05-01T08:41:48.002Z</time></trkpt><trkpt lat="45.06746435316988" lon="8.376606551274481"><ele>172.28571428571428</ele><time>2026-05-01T08:41:54.002Z</time></trkpt><trkpt lat="45.06745453945559" lon="8.376697435210652"><ele>171.57142857142858</ele><time>2026-05-01T08:41:57.002Z</time></trkpt><trkpt lat="45.06747014912649" lon="8.376809653877576"><ele>170.85714285714286</ele><time>2026-05-01T08:42:00.002Z</time></trkpt><trkpt lat="45.067485774873674" lon="8.376913596601248"><ele>170.14285714285714</ele><time>2026-05-01T08:42:02.002Z</time></trkpt><trkpt lat="45.06747799079611" lon="8.377020545832028"><ele>169.42857142857144</ele><time>2026-05-01T08:42:04.002Z</time></trkpt><trkpt lat="45.06750194758518" lon="8.377107257342113"><ele>168.71428571428572</ele><time>2026-05-01T08:42:06.002Z</time></trkpt><trkpt lat="45.067522113295134" lon="8.377216667650515"><ele>168.0</ele><time>2026-05-01T08:42:09.002Z</time></trkpt><trkpt lat="45.067536706508875" lon="8.377311065729714"><ele>168.0</ele><time>2026-05-01T08:42:12.002Z</time></trkpt><trkpt lat="45.06755309949481" lon="8.377401492827177"><ele>168.0</ele><time>2026-05-01T08:42:15.002Z</time></trkpt><trkpt lat="45.06755004349523" lon="8.377492563237528"><ele>168.0</ele><time>2026-05-01T08:42:19.002Z</time></trkpt><trkpt lat="45.067531598865344" lon="8.377371732215463"><ele>168.0</ele><time>2026-05-01T08:42:27.002Z</time></trkpt><trkpt lat="45.067511265601915" lon="8.377238528674106"><ele>168.0</ele><time>2026-05-01T08:42:30.003Z</time></trkpt><trkpt lat="45.067493367042765" lon="8.37712127527697"><ele>168.0</ele><time>2026-05-01T08:42:32Z</time></trkpt><trkpt lat="45.06747483943191" lon="8.376999901331981"><ele>167.83333333333334</ele><time>2026-05-01T08:42:34Z</time></trkpt><trkpt lat="45.06745734040526" lon="8.376885265616588"><ele>167.66666666666666</ele><time>2026-05-01T08:42:36Z</time></trkpt><trkpt lat="45.067439351229254" lon="8.376767418941693"><ele>167.5</ele><time>2026-05-01T08:42:38Z</time></trkpt><trkpt lat="45.06742317857791" lon="8.376661472269028"><ele>167.33333333333331</ele><time>2026-05-01T08:42:40Z</time></trkpt><trkpt lat="45.067409132682634" lon="8.37656945793806"><ele>167.16666666666666</ele><time>2026-05-01T08:42:42Z</time></trkpt><trkpt lat="45.067391945583495" lon="8.376456865639247"><ele>167.0</ele><time>2026-05-01T08:42:45Z</time></trkpt><trkpt lat="45.06767860609663" lon="8.376351943868631"><ele>167.0</ele><time>2026-05-01T08:43:17.001Z</time></trkpt><trkpt lat="45.067745359761986" lon="8.376372002616899"><ele>167.0</ele><time>2026-05-01T08:43:20.001Z</time></trkpt><trkpt lat="45.06782435452655" lon="8.376445708472032"><ele>167.0</ele><time>2026-05-01T08:43:23.001Z</time></trkpt><trkpt lat="45.06788855622018" lon="8.376499503812662"><ele>167.0</ele><time>2026-05-01T08:43:25.001Z</time></trkpt><trkpt lat="45.06795671647375" lon="8.376551540997006"><ele>167.0</ele><time>2026-05-01T08:43:27.001Z</time></trkpt><trkpt lat="45.06802640178344" lon="8.37659185497382"><ele>167.0</ele><time>2026-05-01T08:43:29.001Z</time></trkpt><trkpt lat="45.0680822808137" lon="8.376651605238425"><ele>167.0</ele><time>2026-05-01T08:43:31.001Z</time></trkpt><trkpt lat="45.06813725084251" lon="8.376700500999616"><ele>167.0</ele><time>2026-05-01T08:43:33.001Z</time></trkpt><trkpt lat="45.06819139041112" lon="8.376751562368819"><ele>167.0</ele><time>2026-05-01T08:43:35.001Z</time></trkpt><trkpt lat="45.06824377552976" lon="8.376809145782428"><ele>167.0</ele><time>2026-05-01T08:43:38.001Z</time></trkpt><trkpt lat="45.06832067072296" lon="8.376858119634154"><ele>167.0</ele><time>2026-05-01T08:43:42.001Z</time></trkpt><trkpt lat="45.06841222486984" lon="8.376900106513448"><ele>167.0</ele><time>2026-05-01T08:43:45.001Z</time></trkpt><trkpt lat="45.06849949331504" lon="8.376944890361962"><ele>167.75</ele><time>2026-05-01T08:43:47.001Z</time></trkpt><trkpt lat="45.068603316258674" lon="8.376993661419014"><ele>168.5</ele><time>2026-05-01T08:43:49.001Z</time></trkpt><trkpt lat="45.06872006752181" lon="8.377045377435023"><ele>169.25</ele><time>2026-05-01T08:43:51.002Z</time></trkpt><trkpt lat="45.068836964327126" lon="8.377088510156641"><ele>170.0</ele><time>2026-05-01T08:43:53.002Z</time></trkpt><trkpt lat="45.06893168054017" lon="8.377129472974106"><ele>169.66666666666666</ele><time>2026-05-01T08:43:55.002Z</time></trkpt><trkpt lat="45.0690108264337" lon="8.37720213308117"><ele>169.33333333333331</ele><time>2026-05-01T08:43:57.002Z</time></trkpt><trkpt lat="45.06907730770198" lon="8.377285610103565"><ele>169.0</ele><time>2026-05-01T08:43:59.002Z</time></trkpt><trkpt lat="45.069125679636066" lon="8.377378166383211"><ele>168.66666666666666</ele><time>2026-05-01T08:44:01.002Z</time></trkpt><trkpt lat="45.06913735744193" lon="8.377468552452303"><ele>168.33333333333334</ele><time>2026-05-01T08:44:03.002Z</time></trkpt><trkpt lat="45.06910588892993" lon="8.377568915899284"><ele>168.0</ele><time>2026-05-01T08:44:05.002Z</time></trkpt><trkpt lat="45.069017995948705" lon="8.37767082455263"><ele>167.66666666666666</ele><time>2026-05-01T08:44:07.002Z</time></trkpt><trkpt lat="45.068976668053836" lon="8.377741643851067"><ele>167.33333333333334</ele><time>2026-05-01T08:44:08.002Z</time></trkpt><trkpt lat="45.06893776566263" lon="8.377813644449475"><ele>167.0</ele><time>2026-05-01T08:44:09.002Z</time></trkpt><trkpt lat="45.06890105636894" lon="8.377887588653259"><ele>166.66666666666669</ele><time>2026-05-01T08:44:10.002Z</time></trkpt><trkpt lat="45.06883126337653" lon="8.378024745829565"><ele>166.33333333333334</ele><time>2026-05-01T08:44:12.002Z</time></trkpt><trkpt lat="45.068801011023716" lon="8.378106338043635"><ele>166.0</ele><time>2026-05-01T08:44:13.002Z</time></trkpt><trkpt lat="45.068762973070484" lon="8.378259267881575"><ele>166.0</ele><time>2026-05-01T08:44:15.002Z</time></trkpt><trkpt lat="45.06873549484232" lon="8.37841304289872"><ele>166.0</ele><time>2026-05-01T08:44:17.002Z</time></trkpt><trkpt lat="45.06872509811215" lon="8.37857424027057"><ele>166.0</ele><time>2026-05-01T08:44:19.002Z</time></trkpt><trkpt lat="45.068721217493184" lon="8.378700945548061"><ele>166.0</ele><time>2026-05-01T08:44:21.002Z</time></trkpt><trkpt lat="45.06871836759983" lon="8.378811137082897"><ele>166.0</ele><time>2026-05-01T08:44:23.002Z</time></trkpt><trkpt lat="45.068722713661465" lon="8.378914830461179"><ele>166.16666666666669</ele><time>2026-05-01T08:44:25.002Z</time></trkpt><trkpt lat="45.06871846280716" lon="8.379025611532345"><ele>166.33333333333334</ele><time>2026-05-01T08:44:27.002Z</time></trkpt><trkpt lat="45.068711987312895" lon="8.37914510975797"><ele>166.5</ele><time>2026-05-01T08:44:30.002Z</time></trkpt><trkpt lat="45.06870866442731" lon="8.379255639542972"><ele>166.66666666666666</ele><time>2026-05-01T08:44:32.003Z</time></trkpt><trkpt lat="45.06869121812615" lon="8.379380805899197"><ele>166.83333333333331</ele><time>2026-05-01T08:44:34.003Z</time></trkpt><trkpt lat="45.06867176818481" lon="8.379491283156801"><ele>167.0</ele><time>2026-05-01T08:44:36.003Z</time></trkpt><trkpt lat="45.06865775663752" lon="8.379618577556744"><ele>166.66666666666666</ele><time>2026-05-01T08:44:38Z</time></trkpt><trkpt lat="45.068631648357254" lon="8.379718303729975"><ele>166.33333333333331</ele><time>2026-05-01T08:44:40Z</time></trkpt><trkpt lat="45.0686019440575" lon="8.379804647122025"><ele>166.0</ele><time>2026-05-01T08:44:42Z</time></trkpt><trkpt lat="45.06857446215651" lon="8.379888130261099"><ele>165.66666666666666</ele><time>2026-05-01T08:44:44Z</time></trkpt><trkpt lat="45.06851473962273" lon="8.38000301910476"><ele>165.33333333333334</ele><time>2026-05-01T08:44:46Z</time></trkpt><trkpt lat="45.06843173202696" lon="8.380071205516066"><ele>165.0</ele><time>2026-05-01T08:44:48Z</time></trkpt><trkpt lat="45.0683481826143" lon="8.380145426059473"><ele>165.0</ele><time>2026-05-01T08:44:50Z</time></trkpt><trkpt lat="45.06828148892339" lon="8.380227229909144"><ele>165.0</ele><time>2026-05-01T08:44:52Z</time></trkpt><trkpt lat="45.06822790577261" lon="8.380339732676017"><ele>165.0</ele><time>2026-05-01T08:44:54Z</time></trkpt><trkpt lat="45.06819188891449" lon="8.380474987278768"><ele>165.0</ele><time>2026-05-01T08:44:56Z</time></trkpt><trkpt lat="45.068152637544806" lon="8.380604714983154"><ele>165.0</ele><time>2026-05-01T08:44:58Z</time></trkpt><trkpt lat="45.06812377066631" lon="8.380722851140472"><ele>164.83333333333334</ele><time>2026-05-01T08:45:00Z</time></trkpt><trkpt lat="45.06809671541541" lon="8.380830876531228"><ele>164.66666666666666</ele><time>2026-05-01T08:45:02Z</time></trkpt><trkpt lat="45.06807747678539" lon="8.380928242996095"><ele>164.5</ele><time>2026-05-01T08:45:04Z</time></trkpt><trkpt lat="45.06806369275198" lon="8.381037568249779"><ele>164.33333333333331</ele><time>2026-05-01T08:45:06Z</time></trkpt><trkpt lat="45.06804524133168" lon="8.38115880748211"><ele>164.16666666666666</ele><time>2026-05-01T08:45:08Z</time></trkpt><trkpt lat="45.06802181390627" lon="8.381279454869297"><ele>164.0</ele><time>2026-05-01T08:45:10Z</time></trkpt><trkpt lat="45.06800251335167" lon="8.381404510235171"><ele>163.33333333333331</ele><time>2026-05-01T08:45:12Z</time></trkpt><trkpt lat="45.06799580467866" lon="8.381526249353824"><ele>162.66666666666666</ele><time>2026-05-01T08:45:14Z</time></trkpt><trkpt lat="45.06798955616344" lon="8.381644285821773"><ele>162.0</ele><time>2026-05-01T08:45:16Z</time></trkpt><trkpt lat="45.06798828911532" lon="8.381762211470498"><ele>161.33333333333334</ele><time>2026-05-01T08:45:18.001Z</time></trkpt><trkpt lat="45.06798852317442" lon="8.381872200047892"><ele>160.66666666666669</ele><time>2026-05-01T08:45:20.001Z</time></trkpt><trkpt lat="45.067988984250924" lon="8.381979556230005"><ele>160.0</ele><time>2026-05-01T08:45:22.001Z</time></trkpt><trkpt lat="45.06799667744193" lon="8.382088698399423"><ele>160.0</ele><time>2026-05-01T08:45:24.001Z</time></trkpt><trkpt lat="45.06798599793214" lon="8.382188499964771"><ele>160.0</ele><time>2026-05-01T08:45:26.001Z</time></trkpt><trkpt lat="45.067982478313965" lon="8.382282672950577"><ele>160.0</ele><time>2026-05-01T08:45:28.001Z</time></trkpt><trkpt lat="45.06797076943013" lon="8.382388171859777"><ele>160.0</ele><time>2026-05-01T08:45:30.001Z</time></trkpt><trkpt lat="45.067951183737144" lon="8.38247790152088"><ele>160.0</ele><time>2026-05-01T08:45:32.001Z</time></trkpt><trkpt lat="45.06789413086396" lon="8.382547859331519"><ele>160.0</ele><time>2026-05-01T08:45:35.001Z</time></trkpt><trkpt lat="45.06785727428309" lon="8.382660475183252"><ele>160.0</ele><time>2026-05-01T08:45:38.001Z</time></trkpt><trkpt lat="45.06780692999189" lon="8.3827483321565"><ele>160.0</ele><time>2026-05-01T08:45:40.001Z</time></trkpt><trkpt lat="45.067734543033474" lon="8.382808667604111"><ele>160.0</ele><time>2026-05-01T08:45:42.001Z</time></trkpt><trkpt lat="45.06768063450839" lon="8.382870263330755"><ele>160.0</ele><time>2026-05-01T08:45:44.001Z</time></trkpt><trkpt lat="45.0676347248405" lon="8.382951061147512"><ele>160.0</ele><time>2026-05-01T08:45:46.001Z</time></trkpt><trkpt lat="45.067565063290566" lon="8.382998443173184"><ele>160.0</ele><time>2026-05-01T08:45:48.001Z</time></trkpt><trkpt lat="45.06750604167166" lon="8.383064270613588"><ele>160.0</ele><time>2026-05-01T08:45:50.001Z</time></trkpt><trkpt lat="45.06743763251954" lon="8.383141758045877"><ele>160.0</ele><time>2026-05-01T08:45:52.001Z</time></trkpt><trkpt lat="45.067365175598766" lon="8.383223830426985"><ele>160.0</ele><time>2026-05-01T08:45:54.001Z</time></trkpt><trkpt lat="45.06727797821491" lon="8.383320597606538"><ele>160.0</ele><time>2026-05-01T08:45:56.001Z</time></trkpt><trkpt lat="45.06719203135056" lon="8.383415212191391"><ele>160.0</ele><time>2026-05-01T08:45:58.002Z</time></trkpt><trkpt lat="45.067112046558705" lon="8.383515607388174"><ele>160.0</ele><time>2026-05-01T08:46:00.002Z</time></trkpt><trkpt lat="45.06702894599937" lon="8.383606035956216"><ele>160.0</ele><time>2026-05-01T08:46:02.002Z</time></trkpt><trkpt lat="45.066955133631886" lon="8.383691214662134"><ele>160.0</ele><time>2026-05-01T08:46:04.002Z</time></trkpt><trkpt lat="45.0668809806868" lon="8.383773629880757"><ele>160.0</ele><time>2026-05-01T08:46:06.002Z</time></trkpt><trkpt lat="45.06681764890539" lon="8.383848318804628"><ele>160.0</ele><time>2026-05-01T08:46:08.002Z</time></trkpt><trkpt lat="45.06676362150586" lon="8.383915653706259"><ele>160.0</ele><time>2026-05-01T08:46:10.002Z</time></trkpt><trkpt lat="45.06685841844635" lon="8.384072443216597"><ele>160.33333333333334</ele><time>2026-05-01T08:46:13.002Z</time></trkpt><trkpt lat="45.066926311662925" lon="8.384116647029256"><ele>160.66666666666669</ele><time>2026-05-01T08:46:15.002Z</time></trkpt><trkpt lat="45.06698460921916" lon="8.38420048485972"><ele>161.0</ele><time>2026-05-01T08:46:17.002Z</time></trkpt><trkpt lat="45.067042516185516" lon="8.384279519538854"><ele>161.33333333333334</ele><time>2026-05-01T08:46:19.002Z</time></trkpt><trkpt lat="45.06708732035643" lon="8.384357286328765"><ele>161.66666666666666</ele><time>2026-05-01T08:46:21.002Z</time></trkpt><trkpt lat="45.06713637624616" lon="8.384419694861625"><ele>162.0</ele><time>2026-05-01T08:46:23.002Z</time></trkpt><trkpt lat="45.06715847333084" lon="8.38453776485588"><ele>162.0</ele><time>2026-05-01T08:46:26.002Z</time></trkpt><trkpt lat="45.067178550728876" lon="8.384661766956249"><ele>162.0</ele><time>2026-05-01T08:46:29.002Z</time></trkpt><trkpt lat="45.06716648284868" lon="8.384798949093382"><ele>162.0</ele><time>2026-05-01T08:46:32.002Z</time></trkpt><trkpt lat="45.06714874920669" lon="8.384899559814759"><ele>162.0</ele><time>2026-05-01T08:46:34.002Z</time></trkpt><trkpt lat="45.0671265184256" lon="8.385007305524947"><ele>162.0</ele><time>2026-05-01T08:46:36.002Z</time></trkpt><trkpt lat="45.06710052515621" lon="8.385112297353855"><ele>162.0</ele><time>2026-05-01T08:46:38.003Z</time></trkpt><trkpt lat="45.067073907724925" lon="8.385224815277232"><ele>162.39999999999998</ele><time>2026-05-01T08:46:40.003Z</time></trkpt><trkpt lat="45.06705139166035" lon="8.38533409853532"><ele>162.79999999999998</ele><time>2026-05-01T08:46:42.003Z</time></trkpt><trkpt lat="45.06702912433983" lon="8.385478401486232"><ele>163.2</ele><time>2026-05-01T08:46:43.999Z</time></trkpt><trkpt lat="45.06702887081851" lon="8.385597522052064"><ele>163.6</ele><time>2026-05-01T08:46:45.999Z</time></trkpt><trkpt lat="45.067071776078826" lon="8.385719673480999"><ele>164.0</ele><time>2026-05-01T08:46:47.999Z</time></trkpt><trkpt lat="45.06713918991252" lon="8.385798439034936"><ele>165.0</ele><time>2026-05-01T08:46:49.999Z</time></trkpt><trkpt lat="45.06723974920844" lon="8.385794464458895"><ele>166.0</ele><time>2026-05-01T08:46:51.999Z</time></trkpt><trkpt lat="45.06732988042807" lon="8.38575906354593"><ele>167.0</ele><time>2026-05-01T08:46:53.999Z</time></trkpt><trkpt lat="45.06741739975841" lon="8.385717336316635"><ele>168.0</ele><time>2026-05-01T08:46:55.999Z</time></trkpt><trkpt lat="45.067502723853465" lon="8.385678427408916"><ele>169.0</ele><time>2026-05-01T08:46:58Z</time></trkpt><trkpt lat="45.067566093453465" lon="8.385635729621841"><ele>170.0</ele><time>2026-05-01T08:47:00Z</time></trkpt><trkpt lat="45.06763989618884" lon="8.385627367465576"><ele>171.85714285714286</ele><time>2026-05-01T08:47:03Z</time></trkpt><trkpt lat="45.06772039564876" lon="8.38559899207815"><ele>173.7142857142857</ele><time>2026-05-01T08:47:06Z</time></trkpt><trkpt lat="45.06777707267304" lon="8.385638606664708"><ele>175.57142857142856</ele><time>2026-05-01T08:47:08Z</time></trkpt><trkpt lat="45.06783860663506" lon="8.385662444636734"><ele>177.42857142857144</ele><time>2026-05-01T08:47:10Z</time></trkpt><trkpt lat="45.0679051282145" lon="8.385687960383862"><ele>179.28571428571428</ele><time>2026-05-01T08:47:12Z</time></trkpt><trkpt lat="45.0679609764779" lon="8.38574110328868"><ele>181.14285714285714</ele><time>2026-05-01T08:47:14Z</time></trkpt><trkpt lat="45.06799846354925" lon="8.385814502017789"><ele>183.0</ele><time>2026-05-01T08:47:16Z</time></trkpt><trkpt lat="45.068056566717466" lon="8.385865558907883"><ele>183.0</ele><time>2026-05-01T08:47:18Z</time></trkpt><trkpt lat="45.06811653621635" lon="8.38596785719639"><ele>183.0</ele><time>2026-05-01T08:47:21Z</time></trkpt><trkpt lat="45.068184132658565" lon="8.386054601210345"><ele>183.0</ele><time>2026-05-01T08:47:24Z</time></trkpt><trkpt lat="45.06825790990006" lon="8.386140382487097"><ele>183.0</ele><time>2026-05-01T08:47:27.001Z</time></trkpt><trkpt lat="45.068320358572784" lon="8.386202069941977"><ele>183.0</ele><time>2026-05-01T08:47:29.001Z</time></trkpt><trkpt lat="45.06838892139374" lon="8.386238720051177"><ele>183.0</ele><time>2026-05-01T08:47:31.001Z</time></trkpt><trkpt lat="45.068455052205394" lon="8.386301183400981"><ele>185.33333333333334</ele><time>2026-05-01T08:47:33.001Z</time></trkpt><trkpt lat="45.06852737699883" lon="8.386345681006862"><ele>187.66666666666669</ele><time>2026-05-01T08:47:35.001Z</time></trkpt><trkpt lat="45.068603332782835" lon="8.38636655264714"><ele>190.0</ele><time>2026-05-01T08:47:37.001Z</time></trkpt><trkpt lat="45.068678472997775" lon="8.386409258350291"><ele>192.33333333333334</ele><time>2026-05-01T08:47:39.001Z</time></trkpt><trkpt lat="45.0687525980976" lon="8.386456055293745"><ele>194.66666666666669</ele><time>2026-05-01T08:47:41.001Z</time></trkpt><trkpt lat="45.06882267999027" lon="8.38650128867656"><ele>197.0</ele><time>2026-05-01T08:47:43.001Z</time></trkpt><trkpt lat="45.06889889058138" lon="8.386550052642805"><ele>197.0</ele><time>2026-05-01T08:47:45.001Z</time></trkpt><trkpt lat="45.068970495284546" lon="8.386592507685455"><ele>197.0</ele><time>2026-05-01T08:47:47.001Z</time></trkpt><trkpt lat="45.06903722911243" lon="8.386660871430182"><ele>197.0</ele><time>2026-05-01T08:47:49.001Z</time></trkpt><trkpt lat="45.06910264073559" lon="8.386710279846605"><ele>197.0</ele><time>2026-05-01T08:47:51.001Z</time></trkpt><trkpt lat="45.06916548484119" lon="8.386770858658162"><ele>197.0</ele><time>2026-05-01T08:47:53.001Z</time></trkpt><trkpt lat="45.069220810386085" lon="8.386828645973576"><ele>197.0</ele><time>2026-05-01T08:47:55.001Z</time></trkpt><trkpt lat="45.069277095616265" lon="8.386884455404545"><ele>197.0</ele><time>2026-05-01T08:47:57.001Z</time></trkpt><trkpt lat="45.0693318665958" lon="8.386942593005946"><ele>197.00000000000003</ele><time>2026-05-01T08:47:59.001Z</time></trkpt><trkpt lat="45.06940429762569" lon="8.3870313365564"><ele>197.0</ele><time>2026-05-01T08:48:02.002Z</time></trkpt><trkpt lat="45.06946072646375" lon="8.387090170343344"><ele>197.0</ele><time>2026-05-01T08:48:04.002Z</time></trkpt><trkpt lat="45.06951126086994" lon="8.387148332772085"><ele>197.0</ele><time>2026-05-01T08:48:06.002Z</time></trkpt><trkpt lat="45.06958420551969" lon="8.387222525275687"><ele>197.00000000000003</ele><time>2026-05-01T08:48:09.002Z</time></trkpt><trkpt lat="45.069651057901304" lon="8.38730391572169"><ele>197.0</ele><time>2026-05-01T08:48:12.002Z</time></trkpt><trkpt lat="45.06971883386704" lon="8.3873749867544"><ele>200.0</ele><time>2026-05-01T08:48:15.002Z</time></trkpt><trkpt lat="45.06976087957497" lon="8.387443075329992"><ele>203.0</ele><time>2026-05-01T08:48:18.002Z</time></trkpt><trkpt lat="45.06982753538627" lon="8.387469918448302"><ele>206.0</ele><time>2026-05-01T08:48:22.002Z</time></trkpt><trkpt lat="45.07047844466641" lon="8.387307049827548"><ele>206.00000000000003</ele><time>2026-05-01T08:50:21.002Z</time></trkpt><trkpt lat="45.07057193944269" lon="8.387301945915842"><ele>206.0</ele><time>2026-05-01T08:50:23.002Z</time></trkpt><trkpt lat="45.07065528609245" lon="8.387302558101094"><ele>206.0</ele><time>2026-05-01T08:50:25.002Z</time></trkpt><trkpt lat="45.070736380169095" lon="8.387297002745745"><ele>206.0</ele><time>2026-05-01T08:50:27.002Z</time></trkpt><trkpt lat="45.07081320590765" lon="8.387292089518278"><ele>206.00000000000003</ele><time>2026-05-01T08:50:29.002Z</time></trkpt><trkpt lat="45.07089398459348" lon="8.38729266492121"><ele>206.0</ele><time>2026-05-01T08:50:31.002Z</time></trkpt><trkpt lat="45.070971648305395" lon="8.387282434823899"><ele>206.50000000000003</ele><time>2026-05-01T08:50:33.002Z</time></trkpt><trkpt lat="45.071054705556044" lon="8.387291801671278"><ele>207.0</ele><time>2026-05-01T08:50:35.002Z</time></trkpt><trkpt lat="45.07113063568644" lon="8.387304138495645"><ele>207.5</ele><time>2026-05-01T08:50:37.002Z</time></trkpt><trkpt lat="45.07121146573061" lon="8.38731374617707"><ele>208.0</ele><time>2026-05-01T08:50:39.002Z</time></trkpt><trkpt lat="45.07129871532629" lon="8.387330926942422"><ele>208.50000000000003</ele><time>2026-05-01T08:50:41.002Z</time></trkpt><trkpt lat="45.0713786288949" lon="8.387337723629898"><ele>209.0</ele><time>2026-05-01T08:50:43.003Z</time></trkpt><trkpt lat="45.07146410122624" lon="8.38735015762793"><ele>209.00000000000003</ele><time>2026-05-01T08:50:45.003Z</time></trkpt><trkpt lat="45.07154924958735" lon="8.387358997584982"><ele>209.0</ele><time>2026-05-01T08:50:47.003Z</time></trkpt><trkpt lat="45.07163134557507" lon="8.387371974702068"><ele>209.0</ele><time>2026-05-01T08:50:49.003Z</time></trkpt><trkpt lat="45.07171003690683" lon="8.387382079248477"><ele>209.0</ele><time>2026-05-01T08:50:51.003Z</time></trkpt><trkpt lat="45.0717853175437" lon="8.38739069586521"><ele>209.00000000000003</ele><time>2026-05-01T08:50:54.003Z</time></trkpt><trkpt lat="45.07185010756095" lon="8.387448888236937"><ele>209.0</ele><time>2026-05-01T08:51:12Z</time></trkpt><trkpt lat="45.07193090529692" lon="8.387481690339026"><ele>210.00000000000003</ele><time>2026-05-01T08:51:15Z</time></trkpt><trkpt lat="45.07201115358374" lon="8.387505835766326"><ele>211.0</ele><time>2026-05-01T08:51:17Z</time></trkpt><trkpt lat="45.072086060314525" lon="8.387555088599969"><ele>212.0</ele><time>2026-05-01T08:51:19Z</time></trkpt><trkpt lat="45.0721586716747" lon="8.387593406897992"><ele>213.0</ele><time>2026-05-01T08:51:21Z</time></trkpt><trkpt lat="45.072247952864" lon="8.38763262280586"><ele>214.00000000000003</ele><time>2026-05-01T08:51:23Z</time></trkpt><trkpt lat="45.07233142547997" lon="8.387685231853023"><ele>215.0</ele><time>2026-05-01T08:51:25.001Z</time></trkpt><trkpt lat="45.0724168388984" lon="8.387735901994487"><ele>215.6</ele><time>2026-05-01T08:51:27.001Z</time></trkpt><trkpt lat="45.072511126808195" lon="8.387789276943867"><ele>216.2</ele><time>2026-05-01T08:51:29.001Z</time></trkpt><trkpt lat="45.07260160165646" lon="8.38784909823804"><ele>216.8</ele><time>2026-05-01T08:51:31.001Z</time></trkpt><trkpt lat="45.07269756428497" lon="8.387905352674256"><ele>217.4</ele><time>2026-05-01T08:51:33.001Z</time></trkpt><trkpt lat="45.07278807898783" lon="8.387966698869635"><ele>218.0</ele><time>2026-05-01T08:51:35.001Z</time></trkpt><trkpt lat="45.07288036413323" lon="8.388030755989774"><ele>218.0</ele><time>2026-05-01T08:51:37.001Z</time></trkpt><trkpt lat="45.07296682772841" lon="8.388094933319792"><ele>218.0</ele><time>2026-05-01T08:51:39.001Z</time></trkpt><trkpt lat="45.073041795755486" lon="8.388151906407302"><ele>218.0</ele><time>2026-05-01T08:51:41.001Z</time></trkpt><trkpt lat="45.07312507287862" lon="8.388217706407438"><ele>218.0</ele><time>2026-05-01T08:51:43.001Z</time></trkpt><trkpt lat="45.0732054730143" lon="8.388282173394375"><ele>218.0</ele><time>2026-05-01T08:51:45.001Z</time></trkpt><trkpt lat="45.07328406628961" lon="8.388355960205322"><ele>220.16666666666669</ele><time>2026-05-01T08:51:47.001Z</time></trkpt><trkpt lat="45.073359090874675" lon="8.388437019349121"><ele>222.33333333333334</ele><time>2026-05-01T08:51:49.001Z</time></trkpt><trkpt lat="45.07342779779021" lon="8.388515682280799"><ele>224.5</ele><time>2026-05-01T08:51:51.001Z</time></trkpt><trkpt lat="45.07349370052581" lon="8.388595092043449"><ele>226.66666666666669</ele><time>2026-05-01T08:51:53.001Z</time></trkpt><trkpt lat="45.073555283791094" lon="8.388681083127837"><ele>228.83333333333334</ele><time>2026-05-01T08:51:55.001Z</time></trkpt><trkpt lat="45.073613351719146" lon="8.388740246740097"><ele>231.0</ele><time>2026-05-01T08:51:57.001Z</time></trkpt><trkpt lat="45.0736722804318" lon="8.388778166798181"><ele>231.0</ele><time>2026-05-01T08:51:59.002Z</time></trkpt><trkpt lat="45.07374316281467" lon="8.388777388253283"><ele>231.0</ele><time>2026-05-01T08:52:02.002Z</time></trkpt><trkpt lat="45.07382818940053" lon="8.388752409077608"><ele>231.0</ele><time>2026-05-01T08:52:06.002Z</time></trkpt><trkpt lat="45.07386303491937" lon="8.38866943185409"><ele>231.0</ele><time>2026-05-01T08:52:08.002Z</time></trkpt><trkpt lat="45.073887600852956" lon="8.388569774986623"><ele>231.0</ele><time>2026-05-01T08:52:11.002Z</time></trkpt><trkpt lat="45.07393051284228" lon="8.388465060680904"><ele>231.0</ele><time>2026-05-01T08:52:14.002Z</time></trkpt><trkpt lat="45.07396119254871" lon="8.388369530196007"><ele>231.0</ele><time>2026-05-01T08:52:17.002Z</time></trkpt><trkpt lat="45.07399456909197" lon="8.388266862722094"><ele>231.0</ele><time>2026-05-01T08:52:20.002Z</time></trkpt><trkpt lat="45.074034590904574" lon="8.388172046637829"><ele>231.0</ele><time>2026-05-01T08:52:23.002Z</time></trkpt><trkpt lat="45.074068664162304" lon="8.388064893157365"><ele>231.0</ele><time>2026-05-01T08:52:26.002Z</time></trkpt><trkpt lat="45.074125358263764" lon="8.38798055608389"><ele>231.0</ele><time>2026-05-01T08:52:29.002Z</time></trkpt><trkpt lat="45.07418880862282" lon="8.387912113224132"><ele>231.0</ele><time>2026-05-01T08:52:32.003Z</time></trkpt><trkpt lat="45.074254052995556" lon="8.387911222158184"><ele>231.42857142857144</ele><time>2026-05-01T08:52:34.003Z</time></trkpt><trkpt lat="45.07432066015147" lon="8.387934712655264"><ele>231.85714285714286</ele><time>2026-05-01T08:52:36.003Z</time></trkpt><trkpt lat="45.0743838900664" lon="8.387955051289524"><ele>232.28571428571428</ele><time>2026-05-01T08:52:38.003Z</time></trkpt><trkpt lat="45.07445078744991" lon="8.38797116686314"><ele>232.71428571428572</ele><time>2026-05-01T08:52:40.003Z</time></trkpt><trkpt lat="45.074515721494414" lon="8.388003164214062"><ele>233.14285714285717</ele><time>2026-05-01T08:52:42.003Z</time></trkpt><trkpt lat="45.07457843612549" lon="8.388034022876498"><ele>233.57142857142858</ele><time>2026-05-01T08:52:44.003Z</time></trkpt><trkpt lat="45.074645567657576" lon="8.388062065885672"><ele>234.0</ele><time>2026-05-01T08:52:46.003Z</time></trkpt><trkpt lat="45.07471876617146" lon="8.388106361797654"><ele>235.2</ele><time>2026-05-01T08:52:48.003Z</time></trkpt><trkpt lat="45.07479886218468" lon="8.388150739193497"><ele>236.39999999999998</ele><time>2026-05-01T08:52:50.003Z</time></trkpt><trkpt lat="45.0748834810751" lon="8.388192573611065"><ele>237.6</ele><time>2026-05-01T08:52:52.003Z</time></trkpt><trkpt lat="45.074975819223184" lon="8.388221833049089"><ele>238.8</ele><time>2026-05-01T08:52:54.003Z</time></trkpt><trkpt lat="45.075077701640296" lon="8.388224454570251"><ele>240.0</ele><time>2026-05-01T08:52:56.003Z</time></trkpt><trkpt lat="45.0751739845912" lon="8.38823395416331"><ele>242.2</ele><time>2026-05-01T08:52:58.003Z</time></trkpt><trkpt lat="45.07527289193068" lon="8.38823435643891"><ele>244.4</ele><time>2026-05-01T08:53:00.003Z</time></trkpt><trkpt lat="45.07536907154628" lon="8.388241421698446"><ele>246.60000000000002</ele><time>2026-05-01T08:53:02Z</time></trkpt><trkpt lat="45.07547085545275" lon="8.388241683456952"><ele>248.8</ele><time>2026-05-01T08:53:04Z</time></trkpt><trkpt lat="45.07557648000577" lon="8.388242699390453"><ele>251.0</ele><time>2026-05-01T08:53:06Z</time></trkpt><trkpt lat="45.075689384358526" lon="8.388251267985915"><ele>253.0</ele><time>2026-05-01T08:53:08Z</time></trkpt><trkpt lat="45.07580579359684" lon="8.388243179702215"><ele>255.0</ele><time>2026-05-01T08:53:10Z</time></trkpt><trkpt lat="45.07591442065461" lon="8.388235677080432"><ele>257.0</ele><time>2026-05-01T08:53:12Z</time></trkpt><trkpt lat="45.07602869433961" lon="8.388230555922558"><ele>259.0</ele><time>2026-05-01T08:53:14Z</time></trkpt><trkpt lat="45.07614268299693" lon="8.388236579418987"><ele>259.0</ele><time>2026-05-01T08:53:16Z</time></trkpt><trkpt lat="45.07625714168708" lon="8.388236041193661"><ele>259.0</ele><time>2026-05-01T08:53:18Z</time></trkpt><trkpt lat="45.076372646509604" lon="8.3882281219015"><ele>259.0</ele><time>2026-05-01T08:53:20Z</time></trkpt><trkpt lat="45.076490846272556" lon="8.38823142573987"><ele>259.0</ele><time>2026-05-01T08:53:22Z</time></trkpt><trkpt lat="45.07660590023518" lon="8.38821273185468"><ele>259.25</ele><time>2026-05-01T08:53:24Z</time></trkpt><trkpt lat="45.07671618360885" lon="8.388162286114365"><ele>259.5</ele><time>2026-05-01T08:53:26Z</time></trkpt><trkpt lat="45.07681852047747" lon="8.388091342180044"><ele>259.75</ele><time>2026-05-01T08:53:28Z</time></trkpt><trkpt lat="45.076928554609324" lon="8.388045591212448"><ele>260.0</ele><time>2026-05-01T08:53:30Z</time></trkpt><trkpt lat="45.07703791668651" lon="8.388002038784824"><ele>260.0</ele><time>2026-05-01T08:53:32Z</time></trkpt><trkpt lat="45.07715171626668" lon="8.387985767212944"><ele>260.0</ele><time>2026-05-01T08:53:34.001Z</time></trkpt><trkpt lat="45.077256837219814" lon="8.388021720845453"><ele>260.0</ele><time>2026-05-01T08:53:36.001Z</time></trkpt><trkpt lat="45.07735628191655" lon="8.388067372550449"><ele>260.0</ele><time>2026-05-01T08:53:38.001Z</time></trkpt><trkpt lat="45.07745934640248" lon="8.388096317710106"><ele>260.0</ele><time>2026-05-01T08:53:40.001Z</time></trkpt><trkpt lat="45.0775574491016" lon="8.388058540840083"><ele>259.6666666666667</ele><time>2026-05-01T08:53:42.001Z</time></trkpt><trkpt lat="45.077646193564675" lon="8.387980268673667"><ele>259.33333333333337</ele><time>2026-05-01T08:53:44.001Z</time></trkpt><trkpt lat="45.077733727684574" lon="8.387972356509012"><ele>259.0</ele><time>2026-05-01T08:53:46.001Z</time></trkpt><trkpt lat="45.077794346545595" lon="8.38794592364364"><ele>258.6666666666667</ele><time>2026-05-01T08:53:49.001Z</time></trkpt><trkpt lat="45.07779364669161" lon="8.38784126146057"><ele>258.3333333333333</ele><time>2026-05-01T08:54:52.003Z</time></trkpt><trkpt lat="45.07785354923569" lon="8.387755101721456"><ele>258.0</ele><time>2026-05-01T08:54:55.003Z</time></trkpt><trkpt lat="45.07790764880041" lon="8.387678938671334"><ele>258.0</ele><time>2026-05-01T08:54:58.003Z</time></trkpt><trkpt lat="45.07796972966344" lon="8.38759353248589"><ele>258.0</ele><time>2026-05-01T08:55:01.003Z</time></trkpt><trkpt lat="45.07801922839747" lon="8.387518458316782"><ele>258.0</ele><time>2026-05-01T08:55:04.003Z</time></trkpt><trkpt lat="45.07806012665282" lon="8.3874428415127"><ele>258.0</ele><time>2026-05-01T08:55:07Z</time></trkpt><trkpt lat="45.07811879907471" lon="8.387400660633771"><ele>258.0</ele><time>2026-05-01T08:55:10Z</time></trkpt><trkpt lat="45.078198536796705" lon="8.387417178759723"><ele>258.0</ele><time>2026-05-01T08:55:14Z</time></trkpt><trkpt lat="45.07827428788739" lon="8.387446965127987"><ele>257.99999999999994</ele><time>2026-05-01T08:56:49.003Z</time></trkpt><trkpt lat="45.07834117140214" lon="8.387464444377208"><ele>258.0</ele><time>2026-05-01T08:57:00.003Z</time></trkpt><trkpt lat="45.07836445354557" lon="8.387377631954728"><ele>258.0</ele><time>2026-05-01T08:59:34.002Z</time></trkpt><trkpt lat="45.07844134105782" lon="8.387464764641344"><ele>258.0</ele><time>2026-05-01T08:59:59.002Z</time></trkpt><trkpt lat="45.078370735425956" lon="8.387405741407706"><ele>258.0</ele><time>2026-05-01T09:00:17.002Z</time></trkpt><trkpt lat="45.07831091679384" lon="8.38743482696253"><ele>257.99999999999994</ele><time>2026-05-01T09:24:07.001Z</time></trkpt><trkpt lat="45.078248875832706" lon="8.387453494427083"><ele>258.0</ele><time>2026-05-01T09:24:17.001Z</time></trkpt><trkpt lat="45.07816762858549" lon="8.387423709340473"><ele>257.99999999999994</ele><time>2026-05-01T09:24:47Z</time></trkpt><trkpt lat="45.078141184614836" lon="8.387334715589141"><ele>258.0</ele><time>2026-05-01T09:26:37.999Z</time></trkpt><trkpt lat="45.078177372138654" lon="8.387251548087612"><ele>258.0</ele><time>2026-05-01T09:26:42.999Z</time></trkpt><trkpt lat="45.07823526171509" lon="8.387199912296962"><ele>258.0</ele><time>2026-05-01T09:26:46.999Z</time></trkpt><trkpt lat="45.07829673130093" lon="8.387161009672285"><ele>258.0</ele><time>2026-05-01T09:26:50.999Z</time></trkpt><trkpt lat="45.07835812682048" lon="8.387065019602895"><ele>257.99999999999994</ele><time>2026-05-01T09:26:55.999Z</time></trkpt><trkpt lat="45.07842559584885" lon="8.387020866271756"><ele>258.0</ele><time>2026-05-01T09:26:58.999Z</time></trkpt><trkpt lat="45.07849002784075" lon="8.386990681467598"><ele>258.5</ele><time>2026-05-01T09:27:01.999Z</time></trkpt><trkpt lat="45.07856358200705" lon="8.386975654174167"><ele>259.0</ele><time>2026-05-01T09:27:04.999Z</time></trkpt><trkpt lat="45.07861274453587" lon="8.386888623041342"><ele>259.5</ele><time>2026-05-01T09:27:22Z</time></trkpt><trkpt lat="45.07869527879408" lon="8.386825866008392"><ele>260.0</ele><time>2026-05-01T09:27:26Z</time></trkpt><trkpt lat="45.07876441687816" lon="8.386758499428598"><ele>260.5</ele><time>2026-05-01T09:27:29Z</time></trkpt><trkpt lat="45.07882999665009" lon="8.3867005634433"><ele>261.0</ele><time>2026-05-01T09:27:32Z</time></trkpt><trkpt lat="45.0788986417476" lon="8.386641051906913"><ele>261.0</ele><time>2026-05-01T09:27:35Z</time></trkpt><trkpt lat="45.078969018837526" lon="8.386587694997756"><ele>261.0</ele><time>2026-05-01T09:27:38Z</time></trkpt><trkpt lat="45.079044689249805" lon="8.386542700563616"><ele>261.0</ele><time>2026-05-01T09:27:41Z</time></trkpt><trkpt lat="45.07911880279685" lon="8.386491431734028"><ele>261.0</ele><time>2026-05-01T09:27:44Z</time></trkpt><trkpt lat="45.07918943953442" lon="8.386446041364286"><ele>261.0</ele><time>2026-05-01T09:27:47Z</time></trkpt><trkpt lat="45.07925327468261" lon="8.38639427877237"><ele>261.0</ele><time>2026-05-01T09:27:50Z</time></trkpt><trkpt lat="45.07933942543205" lon="8.386348397864088"><ele>261.1666666666667</ele><time>2026-05-01T09:27:53Z</time></trkpt><trkpt lat="45.07940818944683" lon="8.386295238493894"><ele>261.3333333333333</ele><time>2026-05-01T09:27:57Z</time></trkpt><trkpt lat="45.0794671947353" lon="8.386245196844639"><ele>261.5</ele><time>2026-05-01T09:28:00Z</time></trkpt><trkpt lat="45.079540940829744" lon="8.386204691522273"><ele>261.66666666666663</ele><time>2026-05-01T09:28:04Z</time></trkpt><trkpt lat="45.07961540529015" lon="8.386163549850535"><ele>261.8333333333333</ele><time>2026-05-01T09:28:08Z</time></trkpt><trkpt lat="45.07967711400442" lon="8.386112296869781"><ele>262.0</ele><time>2026-05-01T09:28:11Z</time></trkpt><trkpt lat="45.079742420985816" lon="8.386049266326308"><ele>262.0</ele><time>2026-05-01T09:28:15Z</time></trkpt><trkpt lat="45.0798095021103" lon="8.385995659665719"><ele>262.0</ele><time>2026-05-01T09:28:19Z</time></trkpt><trkpt lat="45.07986715330632" lon="8.385929180763087"><ele>262.0</ele><time>2026-05-01T09:28:22Z</time></trkpt><trkpt lat="45.07992555161255" lon="8.385865005671711"><ele>262.0</ele><time>2026-05-01T09:28:26Z</time></trkpt><trkpt lat="45.07997595117141" lon="8.385806770006248"><ele>262.0</ele><time>2026-05-01T09:28:29Z</time></trkpt><trkpt lat="45.08004076873922" lon="8.385734105150611"><ele>262.0</ele><time>2026-05-01T09:28:32Z</time></trkpt><trkpt lat="45.0801070145498" lon="8.385675887203938"><ele>263.0</ele><time>2026-05-01T09:28:35Z</time></trkpt><trkpt lat="45.08017708168824" lon="8.385605857687112"><ele>264.0</ele><time>2026-05-01T09:28:39.001Z</time></trkpt><trkpt lat="45.080225373678005" lon="8.385527273517544"><ele>265.0</ele><time>2026-05-01T09:28:42.998Z</time></trkpt><trkpt lat="45.080277703725194" lon="8.385475628617144"><ele>266.0</ele><time>2026-05-01T09:28:45.998Z</time></trkpt><trkpt lat="45.08032957538002" lon="8.38541602536778"><ele>267.0</ele><time>2026-05-01T09:28:48.998Z</time></trkpt><trkpt lat="45.08039046775578" lon="8.385342939773196"><ele>268.0</ele><time>2026-05-01T09:28:52.998Z</time></trkpt><trkpt lat="45.08044790676058" lon="8.385255867781986"><ele>269.7142857142857</ele><time>2026-05-01T09:28:56.999Z</time></trkpt><trkpt lat="45.08049150597038" lon="8.38518395249876"><ele>271.42857142857144</ele><time>2026-05-01T09:29:00.999Z</time></trkpt><trkpt lat="45.08053229429616" lon="8.385099534189004"><ele>273.1428571428571</ele><time>2026-05-01T09:29:05.999Z</time></trkpt><trkpt lat="45.08056115301936" lon="8.385015630781734"><ele>274.8571428571429</ele><time>2026-05-01T09:29:08.999Z</time></trkpt><trkpt lat="45.080580382587314" lon="8.384906650212297"><ele>276.57142857142856</ele><time>2026-05-01T09:29:12.999Z</time></trkpt><trkpt lat="45.080578209279224" lon="8.384803164938996"><ele>278.2857142857143</ele><time>2026-05-01T09:29:16.999Z</time></trkpt><trkpt lat="45.08058682531722" lon="8.38468498387405"><ele>280.0</ele><time>2026-05-01T09:29:20.999Z</time></trkpt><trkpt lat="45.080583964856494" lon="8.384577251508286"><ele>280.7142857142857</ele><time>2026-05-01T09:29:25Z</time></trkpt><trkpt lat="45.080597309778575" lon="8.384489860684093"><ele>281.42857142857144</ele><time>2026-05-01T09:29:28Z</time></trkpt><trkpt lat="45.08060996764798" lon="8.38438324471926"><ele>282.1428571428571</ele><time>2026-05-01T09:29:32Z</time></trkpt><trkpt lat="45.080631208022545" lon="8.38428637713342"><ele>282.8571428571429</ele><time>2026-05-01T09:29:35Z</time></trkpt><trkpt lat="45.080652630369265" lon="8.384194667591473"><ele>283.57142857142856</ele><time>2026-05-01T09:29:38Z</time></trkpt><trkpt lat="45.08066344308322" lon="8.384075036170977"><ele>284.2857142857143</ele><time>2026-05-01T09:29:42Z</time></trkpt><trkpt lat="45.0806964030769" lon="8.383978996409965"><ele>285.0</ele><time>2026-05-01T09:29:45Z</time></trkpt><trkpt lat="45.08072466642901" lon="8.383887032648307"><ele>285.5</ele><time>2026-05-01T09:29:48Z</time></trkpt><trkpt lat="45.08076811552139" lon="8.383804666007837"><ele>286.0</ele><time>2026-05-01T09:29:51Z</time></trkpt><trkpt lat="45.08081160215205" lon="8.383719751872494"><ele>286.5</ele><time>2026-05-01T09:29:54Z</time></trkpt><trkpt lat="45.080864048812636" lon="8.383620824945327"><ele>287.0</ele><time>2026-05-01T09:29:58Z</time></trkpt><trkpt lat="45.0809179332108" lon="8.38353120660582"><ele>287.5</ele><time>2026-05-01T09:30:01Z</time></trkpt><trkpt lat="45.08096186552593" lon="8.383450252790569"><ele>288.0</ele><time>2026-05-01T09:30:04Z</time></trkpt><trkpt lat="45.08101029600811" lon="8.38337325291602"><ele>288.00000000000006</ele><time>2026-05-01T09:30:07Z</time></trkpt><trkpt lat="45.08107932267883" lon="8.38327574935547"><ele>288.0</ele><time>2026-05-01T09:30:10Z</time></trkpt><trkpt lat="45.08112141921083" lon="8.383192873349277"><ele>288.0</ele><time>2026-05-01T09:30:13Z</time></trkpt><trkpt lat="45.08114801611753" lon="8.38310921039156"><ele>288.0</ele><time>2026-05-01T09:30:16Z</time></trkpt><trkpt lat="45.08120441457691" lon="8.383033517121088"><ele>288.0</ele><time>2026-05-01T09:30:20Z</time></trkpt><trkpt lat="45.081244552989894" lon="8.382959975893204"><ele>288.00000000000006</ele><time>2026-05-01T09:30:23Z</time></trkpt><trkpt lat="45.08129209246614" lon="8.382892016991393"><ele>288.0</ele><time>2026-05-01T09:30:26.001Z</time></trkpt><trkpt lat="45.081334323845134" lon="8.382820213193616"><ele>287.14285714285717</ele><time>2026-05-01T09:30:29.001Z</time></trkpt><trkpt lat="45.0813780535215" lon="8.382750040195322"><ele>286.2857142857143</ele><time>2026-05-01T09:30:32.001Z</time></trkpt><trkpt lat="45.081434984373345" lon="8.38267770267929"><ele>285.42857142857144</ele><time>2026-05-01T09:30:35.001Z</time></trkpt><trkpt lat="45.08148474629801" lon="8.382595474498185"><ele>284.57142857142856</ele><time>2026-05-01T09:30:38.001Z</time></trkpt><trkpt lat="45.08153725452221" lon="8.38252336807989"><ele>283.7142857142857</ele><time>2026-05-01T09:30:41.001Z</time></trkpt><trkpt lat="45.081570557720156" lon="8.382438330030407"><ele>282.8571428571429</ele><time>2026-05-01T09:30:44.001Z</time></trkpt><trkpt lat="45.08161711295653" lon="8.38236697906533"><ele>282.0</ele><time>2026-05-01T09:30:48.001Z</time></trkpt><trkpt lat="45.08164876056415" lon="8.382280936947835"><ele>283.7142857142857</ele><time>2026-05-01T09:30:50.998Z</time></trkpt><trkpt lat="45.081701256817055" lon="8.382213491237671"><ele>285.42857142857144</ele><time>2026-05-01T09:30:53.998Z</time></trkpt><trkpt lat="45.081746518406135" lon="8.382149572828858"><ele>287.1428571428571</ele><time>2026-05-01T09:30:56.998Z</time></trkpt><trkpt lat="45.08178890887489" lon="8.382077327597028"><ele>288.8571428571429</ele><time>2026-05-01T09:30:59.999Z</time></trkpt><trkpt lat="45.081822448197585" lon="8.38196878252468"><ele>290.57142857142856</ele><time>2026-05-01T09:31:03.999Z</time></trkpt><trkpt lat="45.08187404738077" lon="8.381886354989376"><ele>292.2857142857143</ele><time>2026-05-01T09:31:06.999Z</time></trkpt><trkpt lat="45.08191580560589" lon="8.381801431642987"><ele>294.0</ele><time>2026-05-01T09:31:09.999Z</time></trkpt><trkpt lat="45.08195584979874" lon="8.381725773113718"><ele>294.42857142857144</ele><time>2026-05-01T09:31:12.999Z</time></trkpt><trkpt lat="45.08197878025535" lon="8.38163214735184"><ele>294.8571428571429</ele><time>2026-05-01T09:31:15.999Z</time></trkpt><trkpt lat="45.082013741587566" lon="8.38153742536658"><ele>295.2857142857143</ele><time>2026-05-01T09:31:18.999Z</time></trkpt><trkpt lat="45.0820513113154" lon="8.381456018748848"><ele>295.7142857142857</ele><time>2026-05-01T09:31:21.999Z</time></trkpt><trkpt lat="45.082065625416824" lon="8.381350984619303"><ele>296.14285714285717</ele><time>2026-05-01T09:31:25Z</time></trkpt><trkpt lat="45.082103630866065" lon="8.381256823421586"><ele>296.57142857142856</ele><time>2026-05-01T09:31:28Z</time></trkpt><trkpt lat="45.08212873223689" lon="8.381149075848723"><ele>297.0</ele><time>2026-05-01T09:31:31Z</time></trkpt><trkpt lat="45.08215660495195" lon="8.381045263935013"><ele>296.57142857142856</ele><time>2026-05-01T09:31:34Z</time></trkpt><trkpt lat="45.08218803517097" lon="8.380945957993799"><ele>296.14285714285717</ele><time>2026-05-01T09:31:37Z</time></trkpt><trkpt lat="45.082215175253225" lon="8.380844977729977"><ele>295.7142857142857</ele><time>2026-05-01T09:31:40Z</time></trkpt><trkpt lat="45.082244595352996" lon="8.380743159654136"><ele>295.2857142857143</ele><time>2026-05-01T09:31:43Z</time></trkpt><trkpt lat="45.08228589416404" lon="8.380670029147169"><ele>294.8571428571429</ele><time>2026-05-01T09:31:45Z</time></trkpt><trkpt lat="45.08230684126478" lon="8.380572191879484"><ele>294.42857142857144</ele><time>2026-05-01T09:31:48Z</time></trkpt><trkpt lat="45.08234329459502" lon="8.380483217315525"><ele>294.0</ele><time>2026-05-01T09:31:51Z</time></trkpt><trkpt lat="45.08241278994184" lon="8.380424346882128"><ele>294.6666666666667</ele><time>2026-05-01T09:31:54Z</time></trkpt><trkpt lat="45.08248492195374" lon="8.380362689413898"><ele>295.3333333333333</ele><time>2026-05-01T09:31:57Z</time></trkpt><trkpt lat="45.08255653447103" lon="8.38032750740596"><ele>296.0</ele><time>2026-05-01T09:32:00Z</time></trkpt><trkpt lat="45.082630376937544" lon="8.380300169536877"><ele>296.66666666666663</ele><time>2026-05-01T09:32:03Z</time></trkpt><trkpt lat="45.082710015583366" lon="8.380272389490264"><ele>297.3333333333333</ele><time>2026-05-01T09:32:06.001Z</time></trkpt><trkpt lat="45.082792578293166" lon="8.380248075182006"><ele>298.0</ele><time>2026-05-01T09:32:09.001Z</time></trkpt><trkpt lat="45.082874788588185" lon="8.380210677807522"><ele>298.0</ele><time>2026-05-01T09:32:12.001Z</time></trkpt><trkpt lat="45.082960021238506" lon="8.38017432087285"><ele>298.0</ele><time>2026-05-01T09:32:15.001Z</time></trkpt><trkpt lat="45.083033333012686" lon="8.380136238511488"><ele>298.0</ele><time>2026-05-01T09:32:18.001Z</time></trkpt><trkpt lat="45.08310650555592" lon="8.380111418512547"><ele>298.0</ele><time>2026-05-01T09:32:21.001Z</time></trkpt><trkpt lat="45.08318331988401" lon="8.380070748721405"><ele>298.0</ele><time>2026-05-01T09:32:24.001Z</time></trkpt><trkpt lat="45.083258620169026" lon="8.380039230296044"><ele>298.0</ele><time>2026-05-01T09:32:27.001Z</time></trkpt><trkpt lat="45.083336360372755" lon="8.379998507245528"><ele>299.3333333333333</ele><time>2026-05-01T09:32:30.001Z</time></trkpt><trkpt lat="45.08341895868289" lon="8.37997054419561"><ele>300.66666666666663</ele><time>2026-05-01T09:32:33.001Z</time></trkpt><trkpt lat="45.08350104408247" lon="8.379968940387586"><ele>302.0</ele><time>2026-05-01T09:32:36.001Z</time></trkpt><trkpt lat="45.083587079955045" lon="8.37996765064651"><ele>303.3333333333333</ele><time>2026-05-01T09:32:39.001Z</time></trkpt><trkpt lat="45.0836648049592" lon="8.379972490414087"><ele>304.6666666666667</ele><time>2026-05-01T09:32:42.001Z</time></trkpt><trkpt lat="45.0837508292679" lon="8.379977044554856"><ele>306.0</ele><time>2026-05-01T09:32:45.001Z</time></trkpt><trkpt lat="45.083817899348944" lon="8.379992355236869"><ele>306.0</ele><time>2026-05-01T09:32:48.001Z</time></trkpt><trkpt lat="45.083891832272" lon="8.379977345282063"><ele>306.0</ele><time>2026-05-01T09:32:51.001Z</time></trkpt><trkpt lat="45.08396245187496" lon="8.379972482680921"><ele>306.0</ele><time>2026-05-01T09:32:54.001Z</time></trkpt><trkpt lat="45.084029009906494" lon="8.379947262693248"><ele>306.0</ele><time>2026-05-01T09:32:56.998Z</time></trkpt><trkpt lat="45.084112711694246" lon="8.37992560455076"><ele>306.0</ele><time>2026-05-01T09:33:00.999Z</time></trkpt><trkpt lat="45.08419314232801" lon="8.379905969307913"><ele>306.0</ele><time>2026-05-01T09:33:03.999Z</time></trkpt><trkpt lat="45.08426114445788" lon="8.37988438111653"><ele>307.0</ele><time>2026-05-01T09:33:05.999Z</time></trkpt><trkpt lat="45.08432556102322" lon="8.37985696109209"><ele>308.0</ele><time>2026-05-01T09:33:07.999Z</time></trkpt><trkpt lat="45.08440237628835" lon="8.379842534371814"><ele>309.0</ele><time>2026-05-01T09:33:10.999Z</time></trkpt><trkpt lat="45.08448035245922" lon="8.379802506126286"><ele>310.0</ele><time>2026-05-01T09:33:14.999Z</time></trkpt><trkpt lat="45.08456981272383" lon="8.37978255727718"><ele>311.0</ele><time>2026-05-01T09:33:17.999Z</time></trkpt><trkpt lat="45.0846423839742" lon="8.379764443042042"><ele>312.0</ele><time>2026-05-01T09:33:20.999Z</time></trkpt><trkpt lat="45.084723908720285" lon="8.37976019721606"><ele>312.0</ele><time>2026-05-01T09:33:24Z</time></trkpt><trkpt lat="45.08479939065659" lon="8.379736279842584"><ele>312.0</ele><time>2026-05-01T09:33:26Z</time></trkpt><trkpt lat="45.084867845797625" lon="8.379735367314249"><ele>312.0</ele><time>2026-05-01T09:33:28Z</time></trkpt><trkpt lat="45.08492976639241" lon="8.379707671202883"><ele>312.0</ele><time>2026-05-01T09:33:31Z</time></trkpt><trkpt lat="45.0849973135292" lon="8.37969913944303"><ele>312.0</ele><time>2026-05-01T09:33:34Z</time></trkpt><trkpt lat="45.08506016640932" lon="8.379688465830164"><ele>312.0</ele><time>2026-05-01T09:33:36Z</time></trkpt><trkpt lat="45.085143392010075" lon="8.379702797919945"><ele>312.0</ele><time>2026-05-01T09:33:38Z</time></trkpt><trkpt lat="45.08520354323351" lon="8.37966938902171"><ele>311.5</ele><time>2026-05-01T09:33:41Z</time></trkpt><trkpt lat="45.085281321540954" lon="8.379644942076377"><ele>311.0</ele><time>2026-05-01T09:33:44Z</time></trkpt><trkpt lat="45.085356985991545" lon="8.3796143506357"><ele>310.5</ele><time>2026-05-01T09:33:47Z</time></trkpt><trkpt lat="45.08542938898357" lon="8.379588275883297"><ele>310.0</ele><time>2026-05-01T09:33:50Z</time></trkpt><trkpt lat="45.08549660385852" lon="8.379545438195464"><ele>309.5</ele><time>2026-05-01T09:33:53Z</time></trkpt><trkpt lat="45.08557057059324" lon="8.379495572916"><ele>309.0</ele><time>2026-05-01T09:33:56.001Z</time></trkpt><trkpt lat="45.08564435649616" lon="8.379445776141232"><ele>309.0</ele><time>2026-05-01T09:33:59.001Z</time></trkpt><trkpt lat="45.08572619044262" lon="8.379386241698864"><ele>309.0</ele><time>2026-05-01T09:34:02.001Z</time></trkpt><trkpt lat="45.085787487930034" lon="8.379329070937468"><ele>309.0</ele><time>2026-05-01T09:34:05.001Z</time></trkpt><trkpt lat="45.08585930623616" lon="8.379251102789258"><ele>309.0</ele><time>2026-05-01T09:34:09.001Z</time></trkpt><trkpt lat="45.08591958687273" lon="8.379219523818199"><ele>309.0</ele><time>2026-05-01T09:34:11.001Z</time></trkpt><trkpt lat="45.085978209478355" lon="8.379165406240672"><ele>309.0</ele><time>2026-05-01T09:34:14.001Z</time></trkpt><trkpt lat="45.08604297424761" lon="8.379122962842773"><ele>310.6666666666667</ele><time>2026-05-01T09:34:17.001Z</time></trkpt><trkpt lat="45.086095887581926" lon="8.379052002530107"><ele>312.3333333333333</ele><time>2026-05-01T09:34:20.001Z</time></trkpt><trkpt lat="45.086151751918685" lon="8.379010192867748"><ele>314.0</ele><time>2026-05-01T09:34:23.001Z</time></trkpt><trkpt lat="45.0862251285975" lon="8.378984297604825"><ele>315.66666666666663</ele><time>2026-05-01T09:34:26.001Z</time></trkpt><trkpt lat="45.08630852727308" lon="8.378921967552673"><ele>317.3333333333333</ele><time>2026-05-01T09:34:29.001Z</time></trkpt><trkpt lat="45.08639442689826" lon="8.378911241340802"><ele>319.0</ele><time>2026-05-01T09:34:31.001Z</time></trkpt><trkpt lat="45.08647559907798" lon="8.378874238735172"><ele>317.3333333333333</ele><time>2026-05-01T09:34:33.001Z</time></trkpt><trkpt lat="45.086555974690235" lon="8.378839447053458"><ele>315.66666666666663</ele><time>2026-05-01T09:34:35.001Z</time></trkpt><trkpt lat="45.0866462150847" lon="8.378788425225206"><ele>314.0</ele><time>2026-05-01T09:34:37.001Z</time></trkpt><trkpt lat="45.0867312342707" lon="8.378746357286207"><ele>312.3333333333333</ele><time>2026-05-01T09:34:39.002Z</time></trkpt><trkpt lat="45.0868014146187" lon="8.378701995879819"><ele>310.6666666666667</ele><time>2026-05-01T09:34:41.002Z</time></trkpt><trkpt lat="45.08687959213236" lon="8.378666111068169"><ele>309.0</ele><time>2026-05-01T09:34:43.002Z</time></trkpt><trkpt lat="45.0869557630753" lon="8.378626368486339"><ele>309.0</ele><time>2026-05-01T09:34:45.002Z</time></trkpt><trkpt lat="45.08706020098082" lon="8.378564115299179"><ele>309.0</ele><time>2026-05-01T09:34:47.002Z</time></trkpt><trkpt lat="45.087153808092836" lon="8.378508646567903"><ele>309.0</ele><time>2026-05-01T09:34:49.002Z</time></trkpt><trkpt lat="45.08723698933572" lon="8.378457198432773"><ele>309.0</ele><time>2026-05-01T09:34:51.002Z</time></trkpt><trkpt lat="45.087323155218236" lon="8.378403778388432"><ele>309.0</ele><time>2026-05-01T09:34:53.002Z</time></trkpt><trkpt lat="45.08741926979984" lon="8.378356121116568"><ele>309.0</ele><time>2026-05-01T09:34:55.002Z</time></trkpt><trkpt lat="45.08750770746023" lon="8.378284802749217"><ele>309.0</ele><time>2026-05-01T09:34:57.002Z</time></trkpt><trkpt lat="45.08758323127486" lon="8.37821766340265"><ele>309.0</ele><time>2026-05-01T09:34:59.002Z</time></trkpt><trkpt lat="45.08765189671675" lon="8.378118156811402"><ele>309.0</ele><time>2026-05-01T09:35:00.999Z</time></trkpt><trkpt lat="45.08771456642771" lon="8.378033464823071"><ele>309.0</ele><time>2026-05-01T09:35:02.999Z</time></trkpt><trkpt lat="45.08776473493675" lon="8.377929049540976"><ele>309.0</ele><time>2026-05-01T09:35:04.999Z</time></trkpt><trkpt lat="45.08779679215265" lon="8.377812987672614"><ele>309.0</ele><time>2026-05-01T09:35:06.999Z</time></trkpt><trkpt lat="45.087804712551815" lon="8.377688817008547"><ele>309.0</ele><time>2026-05-01T09:35:08.999Z</time></trkpt><trkpt lat="45.08779626466426" lon="8.377545792641891"><ele>309.0</ele><time>2026-05-01T09:35:10.999Z</time></trkpt><trkpt lat="45.08781466694834" lon="8.377427385049687"><ele>309.0</ele><time>2026-05-01T09:35:12.999Z</time></trkpt><trkpt lat="45.08780975349764" lon="8.377315395096332"><ele>309.0</ele><time>2026-05-01T09:35:14.999Z</time></trkpt><trkpt lat="45.08781400784086" lon="8.377210292555061"><ele>307.6666666666667</ele><time>2026-05-01T09:35:16.999Z</time></trkpt><trkpt lat="45.08781868951101" lon="8.377100806293356"><ele>306.3333333333333</ele><time>2026-05-01T09:35:18.999Z</time></trkpt><trkpt lat="45.08780527764642" lon="8.376995487747104"><ele>305.0</ele><time>2026-05-01T09:35:20.999Z</time></trkpt><trkpt lat="45.08783542404353" lon="8.376894924533365"><ele>303.66666666666663</ele><time>2026-05-01T09:35:22.999Z</time></trkpt><trkpt lat="45.08783756685227" lon="8.37677538510647"><ele>302.3333333333333</ele><time>2026-05-01T09:35:25Z</time></trkpt><trkpt lat="45.08786781011117" lon="8.376663312735728"><ele>301.0</ele><time>2026-05-01T09:35:27Z</time></trkpt><trkpt lat="45.08789549970906" lon="8.376561121263908"><ele>301.0</ele><time>2026-05-01T09:35:29Z</time></trkpt><trkpt lat="45.087919025468985" lon="8.37647840701644"><ele>301.0</ele><time>2026-05-01T09:35:31Z</time></trkpt><trkpt lat="45.087939492458155" lon="8.37638423558722"><ele>301.0</ele><time>2026-05-01T09:35:33Z</time></trkpt><trkpt lat="45.087965328237125" lon="8.376295759200687"><ele>301.0</ele><time>2026-05-01T09:35:35Z</time></trkpt><trkpt lat="45.08799517006834" lon="8.376213986461266"><ele>301.0</ele><time>2026-05-01T09:35:37Z</time></trkpt><trkpt lat="45.08799589733932" lon="8.376118130874413"><ele>301.0</ele><time>2026-05-01T09:35:40Z</time></trkpt><trkpt lat="45.087989069436034" lon="8.376016990059966"><ele>301.0</ele><time>2026-05-01T09:35:45Z</time></trkpt><trkpt lat="45.08795043101078" lon="8.376103144110855"><ele>301.0</ele><time>2026-05-01T09:35:50Z</time></trkpt><trkpt lat="45.08797015276564" lon="8.376199903264109"><ele>301.0</ele><time>2026-05-01T09:35:53Z</time></trkpt><trkpt lat="45.087945425806204" lon="8.376282549665662"><ele>301.0</ele><time>2026-05-01T09:35:55.001Z</time></trkpt><trkpt lat="45.087922263179586" lon="8.376407107452517"><ele>301.0</ele><time>2026-05-01T09:35:57.001Z</time></trkpt><trkpt lat="45.08791189667723" lon="8.376532800289828"><ele>301.0</ele><time>2026-05-01T09:35:59.001Z</time></trkpt><trkpt lat="45.087873517281416" lon="8.376669406302476"><ele>301.0</ele><time>2026-05-01T09:36:01.001Z</time></trkpt><trkpt lat="45.08786403058805" lon="8.376762420358874"><ele>301.0</ele><time>2026-05-01T09:36:05.001Z</time></trkpt><trkpt lat="45.08784987294806" lon="8.376884281146873"><ele>301.0</ele><time>2026-05-01T09:36:08.001Z</time></trkpt><trkpt lat="45.08784783883413" lon="8.377000725683207"><ele>301.0</ele><time>2026-05-01T09:36:11.001Z</time></trkpt><trkpt lat="45.0878531021214" lon="8.377127061671398"><ele>301.0</ele><time>2026-05-01T09:36:14.001Z</time></trkpt><trkpt lat="45.08784371187766" lon="8.377247642932035"><ele>301.0</ele><time>2026-05-01T09:36:17.001Z</time></trkpt><trkpt lat="45.08783670814226" lon="8.377376840088237"><ele>301.0</ele><time>2026-05-01T09:36:20.001Z</time></trkpt><trkpt lat="45.08784587649714" lon="8.377486393868917"><ele>302.3333333333333</ele><time>2026-05-01T09:36:23.001Z</time></trkpt><trkpt lat="45.0878273878011" lon="8.377657449243978"><ele>303.66666666666663</ele><time>2026-05-01T09:36:27.001Z</time></trkpt><trkpt lat="45.08781274532763" lon="8.377785367089286"><ele>305.0</ele><time>2026-05-01T09:36:30.001Z</time></trkpt><trkpt lat="45.08779394215978" lon="8.377884016402689"><ele>306.3333333333333</ele><time>2026-05-01T09:36:32.002Z</time></trkpt><trkpt lat="45.08775998014827" lon="8.377969283028632"><ele>307.6666666666667</ele><time>2026-05-01T09:36:34.002Z</time></trkpt><trkpt lat="45.08772011245114" lon="8.378050230108537"><ele>309.0</ele><time>2026-05-01T09:36:36.002Z</time></trkpt><trkpt lat="45.08767640885784" lon="8.378138031338253"><ele>309.0</ele><time>2026-05-01T09:36:39.002Z</time></trkpt><trkpt lat="45.08763387786774" lon="8.378209235049086"><ele>309.0</ele><time>2026-05-01T09:36:41.002Z</time></trkpt><trkpt lat="45.08757449765399" lon="8.378286775043671"><ele>309.0</ele><time>2026-05-01T09:36:44.002Z</time></trkpt><trkpt lat="45.08750213306363" lon="8.378352536776895"><ele>309.0</ele><time>2026-05-01T09:36:47.002Z</time></trkpt><trkpt lat="45.08743336935706" lon="8.37839888302614"><ele>309.0</ele><time>2026-05-01T09:36:50.002Z</time></trkpt><trkpt lat="45.08734801031318" lon="8.378431114940538"><ele>309.0</ele><time>2026-05-01T09:36:53.002Z</time></trkpt><trkpt lat="45.08727464332144" lon="8.378474798403051"><ele>309.0</ele><time>2026-05-01T09:36:55.002Z</time></trkpt><trkpt lat="45.08719574933771" lon="8.378510216695501"><ele>309.0</ele><time>2026-05-01T09:36:57.002Z</time></trkpt><trkpt lat="45.08711478909701" lon="8.378555773179494"><ele>309.0</ele><time>2026-05-01T09:36:59.002Z</time></trkpt><trkpt lat="45.08703978557138" lon="8.378591732679093"><ele>309.0</ele><time>2026-05-01T09:37:01.002Z</time></trkpt><trkpt lat="45.086976070803885" lon="8.378647513273627"><ele>309.0</ele><time>2026-05-01T09:37:04.002Z</time></trkpt><trkpt lat="45.08701576543367" lon="8.37856738620928"><ele>309.0</ele><time>2026-05-01T09:38:04.001Z</time></trkpt><trkpt lat="45.08710715846758" lon="8.378550507870996"><ele>309.0</ele><time>2026-05-01T09:38:07.001Z</time></trkpt><trkpt lat="45.08719055792011" lon="8.37852890526057"><ele>309.0</ele><time>2026-05-01T09:38:09.001Z</time></trkpt><trkpt lat="45.08726261666371" lon="8.378489506264565"><ele>309.0</ele><time>2026-05-01T09:38:11.001Z</time></trkpt><trkpt lat="45.08733422050491" lon="8.378436594571554"><ele>309.0</ele><time>2026-05-01T09:38:13.001Z</time></trkpt><trkpt lat="45.08741503358777" lon="8.37838156219591"><ele>309.0</ele><time>2026-05-01T09:38:15.001Z</time></trkpt><trkpt lat="45.08748923220926" lon="8.378320541769018"><ele>309.0</ele><time>2026-05-01T09:38:17.001Z</time></trkpt><trkpt lat="45.08757374333984" lon="8.378241430736335"><ele>309.0</ele><time>2026-05-01T09:38:19.001Z</time></trkpt><trkpt lat="45.08763504672889" lon="8.378160054530753"><ele>309.0</ele><time>2026-05-01T09:38:21.001Z</time></trkpt><trkpt lat="45.08770089202752" lon="8.378062281234499"><ele>309.0</ele><time>2026-05-01T09:38:23.001Z</time></trkpt><trkpt lat="45.087742479484234" lon="8.377962419521571"><ele>309.0</ele><time>2026-05-01T09:38:25.001Z</time></trkpt><trkpt lat="45.08777522425922" lon="8.377869236096148"><ele>309.0</ele><time>2026-05-01T09:38:27.002Z</time></trkpt><trkpt lat="45.08780549172557" lon="8.377679399793651"><ele>309.0</ele><time>2026-05-01T09:38:29.002Z</time></trkpt><trkpt lat="45.08784032076214" lon="8.377514892207529"><ele>309.0</ele><time>2026-05-01T09:38:31.002Z</time></trkpt><trkpt lat="45.08782702194875" lon="8.377342234024724"><ele>309.0</ele><time>2026-05-01T09:38:33.002Z</time></trkpt><trkpt lat="45.08783905469963" lon="8.377183872049725"><ele>309.0</ele><time>2026-05-01T09:38:35.002Z</time></trkpt><trkpt lat="45.087847307385495" lon="8.37702553139414"><ele>308.00000000000006</ele><time>2026-05-01T09:38:37.002Z</time></trkpt><trkpt lat="45.087851900068294" lon="8.376935394499895"><ele>307.0</ele><time>2026-05-01T09:38:38.002Z</time></trkpt><trkpt lat="45.08785640883965" lon="8.376835136156965"><ele>306.0</ele><time>2026-05-01T09:38:39.002Z</time></trkpt><trkpt lat="45.08787007884063" lon="8.3767377282627"><ele>305.0</ele><time>2026-05-01T09:38:40.002Z</time></trkpt><trkpt lat="45.0878936326626" lon="8.376637389462855"><ele>304.0</ele><time>2026-05-01T09:38:41.002Z</time></trkpt><trkpt lat="45.08792410808933" lon="8.376534737808779"><ele>303.00000000000006</ele><time>2026-05-01T09:38:42.002Z</time></trkpt><trkpt lat="45.087948812421146" lon="8.376429783381138"><ele>302.0</ele><time>2026-05-01T09:38:43.002Z</time></trkpt><trkpt lat="45.08797113527799" lon="8.376318947681925"><ele>302.0</ele><time>2026-05-01T09:38:44.002Z</time></trkpt><trkpt lat="45.08798669918196" lon="8.376088741536451"><ele>302.0</ele><time>2026-05-01T09:38:46.002Z</time></trkpt><trkpt lat="45.08798555487709" lon="8.375970384014547"><ele>302.0</ele><time>2026-05-01T09:38:47.002Z</time></trkpt><trkpt lat="45.087971125900275" lon="8.375843688507578"><ele>302.0</ele><time>2026-05-01T09:38:48.002Z</time></trkpt><trkpt lat="45.08795084976452" lon="8.375721258206601"><ele>302.0</ele><time>2026-05-01T09:38:49.002Z</time></trkpt><trkpt lat="45.08792657195039" lon="8.375594530424696"><ele>302.4</ele><time>2026-05-01T09:38:50.002Z</time></trkpt><trkpt lat="45.08789950489702" lon="8.375469286390308"><ele>302.79999999999995</ele><time>2026-05-01T09:38:51.002Z</time></trkpt><trkpt lat="45.08787669105445" lon="8.375338974628027"><ele>303.2</ele><time>2026-05-01T09:38:52.002Z</time></trkpt><trkpt lat="45.0878544144483" lon="8.37520951221167"><ele>303.59999999999997</ele><time>2026-05-01T09:38:53.002Z</time></trkpt><trkpt lat="45.08782348131722" lon="8.375071696342788"><ele>304.0</ele><time>2026-05-01T09:38:54.002Z</time></trkpt><trkpt lat="45.08780297684493" lon="8.374942198629796"><ele>304.0</ele><time>2026-05-01T09:38:55.002Z</time></trkpt><trkpt lat="45.08777593730272" lon="8.374816344713224"><ele>304.0</ele><time>2026-05-01T09:38:56.002Z</time></trkpt><trkpt lat="45.08775289330824" lon="8.374691300221826"><ele>304.0</ele><time>2026-05-01T09:38:57.002Z</time></trkpt><trkpt lat="45.08773748425115" lon="8.374569360890696"><ele>304.0</ele><time>2026-05-01T09:38:58.002Z</time></trkpt><trkpt lat="45.08777015811631" lon="8.374456609536411"><ele>304.0</ele><time>2026-05-01T09:38:59.003Z</time></trkpt><trkpt lat="45.08782035843041" lon="8.374363265878458"><ele>304.0</ele><time>2026-05-01T09:39:00.003Z</time></trkpt><trkpt lat="45.08791105823083" lon="8.374324169014898"><ele>303.4</ele><time>2026-05-01T09:39:01.003Z</time></trkpt><trkpt lat="45.08799752853601" lon="8.374314292185767"><ele>302.79999999999995</ele><time>2026-05-01T09:39:02.003Z</time></trkpt><trkpt lat="45.08808861802734" lon="8.374337689354666"><ele>302.20000000000005</ele><time>2026-05-01T09:39:03.003Z</time></trkpt><trkpt lat="45.08818004110221" lon="8.374357132286617"><ele>301.6</ele><time>2026-05-01T09:39:04.003Z</time></trkpt><trkpt lat="45.088269765931955" lon="8.37436058015287"><ele>301.0</ele><time>2026-05-01T09:39:05.003Z</time></trkpt><trkpt lat="45.08835510033729" lon="8.374392746241984"><ele>301.0</ele><time>2026-05-01T09:39:06.003Z</time></trkpt><trkpt lat="45.08842826644143" lon="8.374421741836768"><ele>301.0</ele><time>2026-05-01T09:39:07.003Z</time></trkpt><trkpt lat="45.08849523549842" lon="8.374435192098334"><ele>301.0</ele><time>2026-05-01T09:39:08.003Z</time></trkpt><trkpt lat="45.08856873075712" lon="8.374437642556648"><ele>301.0</ele><time>2026-05-01T09:39:09.003Z</time></trkpt><trkpt lat="45.088637218412906" lon="8.374431911321876"><ele>301.0</ele><time>2026-05-01T09:39:10.003Z</time></trkpt><trkpt lat="45.08870642864215" lon="8.37443765204967"><ele>301.0</ele><time>2026-05-01T09:39:11.003Z</time></trkpt><trkpt lat="45.08877217880203" lon="8.374455393924826"><ele>301.0</ele><time>2026-05-01T09:39:12.003Z</time></trkpt><trkpt lat="45.088838480158635" lon="8.374448064121806"><ele>301.0</ele><time>2026-05-01T09:39:12.999Z</time></trkpt><trkpt lat="45.08890256717937" lon="8.374458073431674"><ele>301.0</ele><time>2026-05-01T09:39:13.999Z</time></trkpt><trkpt lat="45.08896733283413" lon="8.374463533893811"><ele>301.0</ele><time>2026-05-01T09:39:14.999Z</time></trkpt><trkpt lat="45.08903078009621" lon="8.374467644975118"><ele>301.0</ele><time>2026-05-01T09:39:15.999Z</time></trkpt><trkpt lat="45.08909506732644" lon="8.374470019661718"><ele>301.0</ele><time>2026-05-01T09:39:16.999Z</time></trkpt><trkpt lat="45.08921768363853" lon="8.374454498404761"><ele>301.0</ele><time>2026-05-01T09:39:18.999Z</time></trkpt><trkpt lat="45.08928557100922" lon="8.374452884998378"><ele>301.0</ele><time>2026-05-01T09:39:19.999Z</time></trkpt><trkpt lat="45.089350763467294" lon="8.374451344902461"><ele>300.40000000000003</ele><time>2026-05-01T09:39:20.999Z</time></trkpt><trkpt lat="45.089416367547244" lon="8.374441471916072"><ele>299.8</ele><time>2026-05-01T09:39:21.999Z</time></trkpt><trkpt lat="45.08953483467764" lon="8.37444843669881"><ele>299.20000000000005</ele><time>2026-05-01T09:39:23.999Z</time></trkpt><trkpt lat="45.08959609310966" lon="8.374424764933362"><ele>298.6</ele><time>2026-05-01T09:39:24.999Z</time></trkpt><trkpt lat="45.0897112395612" lon="8.374417416899423"><ele>298.0</ele><time>2026-05-01T09:39:26.999Z</time></trkpt><trkpt lat="45.089817800690035" lon="8.374408769638658"><ele>297.66666666666663</ele><time>2026-05-01T09:39:29Z</time></trkpt><trkpt lat="45.08994335652064" lon="8.37441493305056"><ele>297.3333333333333</ele><time>2026-05-01T09:39:31Z</time></trkpt><trkpt lat="45.090008809206374" lon="8.374407285374582"><ele>297.0</ele><time>2026-05-01T09:39:32Z</time></trkpt><trkpt lat="45.090080592203776" lon="8.374389154838076"><ele>296.6666666666667</ele><time>2026-05-01T09:39:33Z</time></trkpt><trkpt lat="45.0901575656004" lon="8.374384180796131"><ele>296.33333333333337</ele><time>2026-05-01T09:39:34Z</time></trkpt><trkpt lat="45.09023562169719" lon="8.374382262465863"><ele>296.0</ele><time>2026-05-01T09:39:35Z</time></trkpt><trkpt lat="45.090314333930706" lon="8.374377580043772"><ele>296.0</ele><time>2026-05-01T09:39:36Z</time></trkpt><trkpt lat="45.09039958251148" lon="8.374370464668115"><ele>296.0</ele><time>2026-05-01T09:39:37Z</time></trkpt><trkpt lat="45.09048586795482" lon="8.37435365605028"><ele>296.0</ele><time>2026-05-01T09:39:38Z</time></trkpt><trkpt lat="45.090573542525355" lon="8.374366309110671"><ele>296.0</ele><time>2026-05-01T09:39:39Z</time></trkpt><trkpt lat="45.09066035477161" lon="8.374347197136231"><ele>296.0</ele><time>2026-05-01T09:39:40Z</time></trkpt><trkpt lat="45.090755443227145" lon="8.374354240524221"><ele>296.0</ele><time>2026-05-01T09:39:41Z</time></trkpt><trkpt lat="45.090857362455814" lon="8.374381604836016"><ele>295.0</ele><time>2026-05-01T09:39:42Z</time></trkpt><trkpt lat="45.090949008671714" lon="8.374404110317407"><ele>294.0</ele><time>2026-05-01T09:39:43Z</time></trkpt><trkpt lat="45.0910469422656" lon="8.374438584267507"><ele>293.0</ele><time>2026-05-01T09:39:44Z</time></trkpt><trkpt lat="45.09114891500695" lon="8.374471237241798"><ele>292.0</ele><time>2026-05-01T09:39:45Z</time></trkpt><trkpt lat="45.09125211658307" lon="8.374514451585991"><ele>291.0</ele><time>2026-05-01T09:39:46Z</time></trkpt><trkpt lat="45.09135444385316" lon="8.374553131022143"><ele>291.0</ele><time>2026-05-01T09:39:47Z</time></trkpt><trkpt lat="45.091461944843" lon="8.374586470703628"><ele>291.0</ele><time>2026-05-01T09:39:48Z</time></trkpt><trkpt lat="45.091568199025886" lon="8.374620536098139"><ele>291.0</ele><time>2026-05-01T09:39:49Z</time></trkpt><trkpt lat="45.09166660605175" lon="8.374651040454088"><ele>291.0</ele><time>2026-05-01T09:39:50Z</time></trkpt><trkpt lat="45.091758560867355" lon="8.374682005157224"><ele>291.0</ele><time>2026-05-01T09:39:51Z</time></trkpt><trkpt lat="45.091849615101374" lon="8.374710860477075"><ele>289.6</ele><time>2026-05-01T09:39:52Z</time></trkpt><trkpt lat="45.09194164654108" lon="8.374746334311501"><ele>288.20000000000005</ele><time>2026-05-01T09:39:53.001Z</time></trkpt><trkpt lat="45.09202965648166" lon="8.374775132987695"><ele>286.79999999999995</ele><time>2026-05-01T09:39:54.001Z</time></trkpt><trkpt lat="45.092117016719556" lon="8.374796385735252"><ele>285.4</ele><time>2026-05-01T09:39:55.001Z</time></trkpt><trkpt lat="45.09220374777578" lon="8.374830021243637"><ele>284.0</ele><time>2026-05-01T09:39:56.001Z</time></trkpt><trkpt lat="45.09229188575088" lon="8.374841585101453"><ele>284.0</ele><time>2026-05-01T09:39:57.001Z</time></trkpt><trkpt lat="45.09236974133338" lon="8.374892166433487"><ele>284.0</ele><time>2026-05-01T09:39:58.001Z</time></trkpt><trkpt lat="45.09245628724625" lon="8.374898588012424"><ele>284.0</ele><time>2026-05-01T09:39:59.001Z</time></trkpt><trkpt lat="45.09253024031715" lon="8.374947911332724"><ele>284.0</ele><time>2026-05-01T09:40:00.001Z</time></trkpt><trkpt lat="45.092611545438835" lon="8.374957686581215"><ele>284.0</ele><time>2026-05-01T09:40:01.001Z</time></trkpt><trkpt lat="45.092687328779554" lon="8.374983780416969"><ele>284.0</ele><time>2026-05-01T09:40:02.001Z</time></trkpt><trkpt lat="45.092768123159615" lon="8.375016610603494"><ele>283.6666666666667</ele><time>2026-05-01T09:40:03.001Z</time></trkpt><trkpt lat="45.09284942218488" lon="8.375027208032728"><ele>283.33333333333337</ele><time>2026-05-01T09:40:04.001Z</time></trkpt><trkpt lat="45.09293486722795" lon="8.375041201417755"><ele>283.0</ele><time>2026-05-01T09:40:05.001Z</time></trkpt><trkpt lat="45.09301516892174" lon="8.375034368230104"><ele>282.6666666666667</ele><time>2026-05-01T09:40:06.001Z</time></trkpt><trkpt lat="45.09309550072588" lon="8.37503877858292"><ele>282.3333333333333</ele><time>2026-05-01T09:40:07.001Z</time></trkpt><trkpt lat="45.09317645917315" lon="8.375034022699193"><ele>282.0</ele><time>2026-05-01T09:40:08.001Z</time></trkpt><trkpt lat="45.09326307632272" lon="8.375037508409509"><ele>281.5</ele><time>2026-05-01T09:40:09.001Z</time></trkpt><trkpt lat="45.093339460710695" lon="8.375036033906794"><ele>281.0</ele><time>2026-05-01T09:40:10.001Z</time></trkpt><trkpt lat="45.093419282999044" lon="8.375038997524044"><ele>280.5</ele><time>2026-05-01T09:40:11.001Z</time></trkpt><trkpt lat="45.09350501436974" lon="8.375038621793799"><ele>280.0</ele><time>2026-05-01T09:40:12.001Z</time></trkpt><trkpt lat="45.09358304021359" lon="8.375021731110476"><ele>279.5</ele><time>2026-05-01T09:40:13.001Z</time></trkpt><trkpt lat="45.09366445861727" lon="8.375000835542567"><ele>279.0</ele><time>2026-05-01T09:40:14.001Z</time></trkpt><trkpt lat="45.09373456268087" lon="8.374931502045833"><ele>279.0</ele><time>2026-05-01T09:40:15.001Z</time></trkpt><trkpt lat="45.09379765630685" lon="8.374856855874215"><ele>279.0</ele><time>2026-05-01T09:40:16.001Z</time></trkpt><trkpt lat="45.09385910877734" lon="8.374779324172263"><ele>279.0</ele><time>2026-05-01T09:40:17.001Z</time></trkpt><trkpt lat="45.09391878810136" lon="8.374701580318318"><ele>279.0</ele><time>2026-05-01T09:40:18.001Z</time></trkpt><trkpt lat="45.09397870126962" lon="8.37462466734755"><ele>279.0</ele><time>2026-05-01T09:40:19.001Z</time></trkpt><trkpt lat="45.09402699605205" lon="8.374533961504358"><ele>279.0</ele><time>2026-05-01T09:40:20.001Z</time></trkpt><trkpt lat="45.09407662211036" lon="8.374468182701335"><ele>277.5</ele><time>2026-05-01T09:40:21.001Z</time></trkpt><trkpt lat="45.09414586570804" lon="8.374382441483577"><ele>276.0</ele><time>2026-05-01T09:40:23.001Z</time></trkpt><trkpt lat="45.0942181660984" lon="8.374301392510311"><ele>274.5</ele><time>2026-05-01T09:40:25.002Z</time></trkpt><trkpt lat="45.094293014495655" lon="8.374230951051642"><ele>273.0</ele><time>2026-05-01T09:40:27.002Z</time></trkpt><trkpt lat="45.094359928552215" lon="8.374168125618537"><ele>271.5</ele><time>2026-05-01T09:40:29.002Z</time></trkpt><trkpt lat="45.09442158453987" lon="8.374113201395748"><ele>270.0</ele><time>2026-05-01T09:40:31.002Z</time></trkpt><trkpt lat="45.09449111888163" lon="8.374042388890032"><ele>270.0</ele><time>2026-05-01T09:40:34.002Z</time></trkpt><trkpt lat="45.094561005728835" lon="8.373971421932415"><ele>270.0</ele><time>2026-05-01T09:40:37.002Z</time></trkpt><trkpt lat="45.09462898111407" lon="8.373921178363275"><ele>270.0</ele><time>2026-05-01T09:40:40.002Z</time></trkpt><trkpt lat="45.09469166766221" lon="8.373864143984653"><ele>270.0</ele><time>2026-05-01T09:40:43.002Z</time></trkpt><trkpt lat="45.094766813803304" lon="8.373825434049515"><ele>270.0</ele><time>2026-05-01T09:40:46.002Z</time></trkpt><trkpt lat="45.09484789787604" lon="8.373757687137488"><ele>270.0</ele><time>2026-05-01T09:40:49.002Z</time></trkpt><trkpt lat="45.09492364982777" lon="8.373694395280221"><ele>270.1428571428571</ele><time>2026-05-01T09:40:52.002Z</time></trkpt><trkpt lat="45.09498076773574" lon="8.3736479031615"><ele>270.2857142857143</ele><time>2026-05-01T09:40:54.002Z</time></trkpt><trkpt lat="45.09502763669961" lon="8.37358388448977"><ele>270.42857142857144</ele><time>2026-05-01T09:40:56.002Z</time></trkpt><trkpt lat="45.09509431615098" lon="8.37355662150587"><ele>270.57142857142856</ele><time>2026-05-01T09:40:58.003Z</time></trkpt><trkpt lat="45.09514434096129" lon="8.373487183193578"><ele>270.7142857142857</ele><time>2026-05-01T09:41:00.003Z</time></trkpt><trkpt lat="45.09520826268782" lon="8.373454011067777"><ele>270.85714285714283</ele><time>2026-05-01T09:41:02.003Z</time></trkpt><trkpt lat="45.09528464444861" lon="8.373380096955051"><ele>271.0</ele><time>2026-05-01T09:41:05.003Z</time></trkpt><trkpt lat="45.095359477303134" lon="8.373303568357251"><ele>271.0</ele><time>2026-05-01T09:41:08.003Z</time></trkpt><trkpt lat="45.09540468108366" lon="8.373231320162425"><ele>271.0</ele><time>2026-05-01T09:41:10.003Z</time></trkpt><trkpt lat="45.095460264889226" lon="8.373173394040334"><ele>271.0</ele><time>2026-05-01T09:41:12.003Z</time></trkpt><trkpt lat="45.09552324325654" lon="8.373118925453143"><ele>271.0</ele><time>2026-05-01T09:41:14.003Z</time></trkpt><trkpt lat="45.09558512745908" lon="8.373050980843434"><ele>271.0</ele><time>2026-05-01T09:41:16.003Z</time></trkpt><trkpt lat="45.09564879740995" lon="8.373009123916647"><ele>271.0</ele><time>2026-05-01T09:41:18.003Z</time></trkpt><trkpt lat="45.095705090575066" lon="8.372935846515906"><ele>271.0</ele><time>2026-05-01T09:41:21.999Z</time></trkpt><trkpt lat="45.09577990405132" lon="8.372918543980854"><ele>271.2857142857143</ele><time>2026-05-01T09:41:27.999Z</time></trkpt><trkpt lat="45.09578606595403" lon="8.372780681296897"><ele>271.57142857142856</ele><time>2026-05-01T09:41:33Z</time></trkpt><trkpt lat="45.09578434295703" lon="8.37268309099042"><ele>271.8571428571429</ele><time>2026-05-01T09:41:36Z</time></trkpt><trkpt lat="45.09579128565899" lon="8.372586126180698"><ele>272.1428571428571</ele><time>2026-05-01T09:41:38Z</time></trkpt><trkpt lat="45.095800171890914" lon="8.372487116008886"><ele>272.42857142857144</ele><time>2026-05-01T09:41:40Z</time></trkpt><trkpt lat="45.095811100246436" lon="8.37239494986747"><ele>272.7142857142857</ele><time>2026-05-01T09:41:42Z</time></trkpt><trkpt lat="45.095824295634316" lon="8.372297749011414"><ele>273.0</ele><time>2026-05-01T09:41:44Z</time></trkpt><trkpt lat="45.095821808893824" lon="8.372198984677173"><ele>273.5</ele><time>2026-05-01T09:41:46Z</time></trkpt><trkpt lat="45.095847327250304" lon="8.37207025279967"><ele>274.0</ele><time>2026-05-01T09:41:49Z</time></trkpt><trkpt lat="45.09586238703785" lon="8.371975615694295"><ele>274.5</ele><time>2026-05-01T09:41:51Z</time></trkpt><trkpt lat="45.09590509027719" lon="8.371858943351594"><ele>275.0</ele><time>2026-05-01T09:41:54.001Z</time></trkpt><trkpt lat="45.095910604509584" lon="8.37176456798792"><ele>275.5</ele><time>2026-05-01T09:41:56.001Z</time></trkpt><trkpt lat="45.09592823251609" lon="8.371638335637359"><ele>276.0</ele><time>2026-05-01T09:41:59.001Z</time></trkpt><trkpt lat="45.09593843276298" lon="8.371547595676198"><ele>276.0</ele><time>2026-05-01T09:42:01.001Z</time></trkpt><trkpt lat="45.09594895177656" lon="8.371453245791265"><ele>276.0</ele><time>2026-05-01T09:42:03.001Z</time></trkpt><trkpt lat="45.09596152427928" lon="8.371360647417031"><ele>276.0</ele><time>2026-05-01T09:42:05.001Z</time></trkpt><trkpt lat="45.095956068332036" lon="8.371229594748879"><ele>276.0</ele><time>2026-05-01T09:42:08.001Z</time></trkpt><trkpt lat="45.095955016642925" lon="8.371136291634983"><ele>276.0</ele><time>2026-05-01T09:42:10.001Z</time></trkpt><trkpt lat="45.0959451631628" lon="8.371033474577299"><ele>276.0</ele><time>2026-05-01T09:42:12.001Z</time></trkpt><trkpt lat="45.095935305645405" lon="8.370919383012493"><ele>276.0</ele><time>2026-05-01T09:42:14.001Z</time></trkpt><trkpt lat="45.09591558762344" lon="8.37079052354717"><ele>276.6666666666667</ele><time>2026-05-01T09:42:16.001Z</time></trkpt><trkpt lat="45.09590004127451" lon="8.370664236970116"><ele>277.3333333333333</ele><time>2026-05-01T09:42:18.001Z</time></trkpt><trkpt lat="45.09587627711703" lon="8.370548452960689"><ele>278.0</ele><time>2026-05-01T09:42:20.001Z</time></trkpt><trkpt lat="45.095845814981594" lon="8.370447335966782"><ele>278.66666666666663</ele><time>2026-05-01T09:42:22.001Z</time></trkpt><trkpt lat="45.09582093037274" lon="8.370356343938296"><ele>279.3333333333333</ele><time>2026-05-01T09:42:24.002Z</time></trkpt><trkpt lat="45.095796598189395" lon="8.370272935688869"><ele>280.0</ele><time>2026-05-01T09:42:26.002Z</time></trkpt><trkpt lat="45.0957701885992" lon="8.370186094707451"><ele>277.8333333333333</ele><time>2026-05-01T09:42:28.002Z</time></trkpt><trkpt lat="45.095741595939934" lon="8.370094756895044"><ele>275.66666666666663</ele><time>2026-05-01T09:42:30.002Z</time></trkpt><trkpt lat="45.09572160855904" lon="8.370002516875955"><ele>273.5</ele><time>2026-05-01T09:42:32.002Z</time></trkpt><trkpt lat="45.09567719694175" lon="8.369914546879258"><ele>271.3333333333333</ele><time>2026-05-01T09:42:34.002Z</time></trkpt><trkpt lat="45.095651586237906" lon="8.369813803246938"><ele>269.1666666666667</ele><time>2026-05-01T09:42:36.002Z</time></trkpt><trkpt lat="45.095640081270716" lon="8.369702570197434"><ele>267.0</ele><time>2026-05-01T09:42:38.002Z</time></trkpt><trkpt lat="45.095619086380886" lon="8.36959209893837"><ele>266.8571428571429</ele><time>2026-05-01T09:42:40.002Z</time></trkpt><trkpt lat="45.095599083650214" lon="8.369481590668354"><ele>266.7142857142857</ele><time>2026-05-01T09:42:42.002Z</time></trkpt><trkpt lat="45.09557965745244" lon="8.369370001976701"><ele>266.57142857142856</ele><time>2026-05-01T09:42:44.002Z</time></trkpt><trkpt lat="45.09556260168289" lon="8.36926717820446"><ele>266.42857142857144</ele><time>2026-05-01T09:42:46.002Z</time></trkpt><trkpt lat="45.09554702323772" lon="8.36917326070262"><ele>266.2857142857143</ele><time>2026-05-01T09:42:48.002Z</time></trkpt><trkpt lat="45.09553324275938" lon="8.369081895020896"><ele>266.14285714285717</ele><time>2026-05-01T09:42:50.002Z</time></trkpt><trkpt lat="45.09551988447012" lon="8.368993587218018"><ele>266.0</ele><time>2026-05-01T09:42:52.002Z</time></trkpt><trkpt lat="45.09549132941099" lon="8.3689026631855"><ele>266.85714285714283</ele><time>2026-05-01T09:42:54.002Z</time></trkpt><trkpt lat="45.09549214082147" lon="8.368810179901399"><ele>267.7142857142857</ele><time>2026-05-01T09:42:56.003Z</time></trkpt><trkpt lat="45.09545896887373" lon="8.36869997086437"><ele>268.57142857142856</ele><time>2026-05-01T09:42:58.003Z</time></trkpt><trkpt lat="45.09544744234539" lon="8.368600902384218"><ele>269.42857142857144</ele><time>2026-05-01T09:43:00.003Z</time></trkpt><trkpt lat="45.09543555575221" lon="8.368512227876248"><ele>270.2857142857143</ele><time>2026-05-01T09:43:02.003Z</time></trkpt><trkpt lat="45.09542368483843" lon="8.368405836094112"><ele>271.1428571428571</ele><time>2026-05-01T09:43:04.003Z</time></trkpt><trkpt lat="45.09541249175329" lon="8.368310590592436"><ele>272.0</ele><time>2026-05-01T09:43:06.003Z</time></trkpt><trkpt lat="45.095394171879136" lon="8.36820707329457"><ele>272.0</ele><time>2026-05-01T09:43:08.003Z</time></trkpt><trkpt lat="45.09538246555246" lon="8.368074486747814"><ele>272.0</ele><time>2026-05-01T09:43:11.003Z</time></trkpt><trkpt lat="45.09536824278144" lon="8.367960815969695"><ele>272.0</ele><time>2026-05-01T09:43:14.003Z</time></trkpt><trkpt lat="45.095352219576284" lon="8.367838894757467"><ele>272.0</ele><time>2026-05-01T09:43:17.003Z</time></trkpt><trkpt lat="45.09534678955761" lon="8.36771780432712"><ele>272.0</ele><time>2026-05-01T09:43:20.003Z</time></trkpt><trkpt lat="45.09534740835605" lon="8.367624037891451"><ele>272.0</ele><time>2026-05-01T09:43:23.003Z</time></trkpt><trkpt lat="45.09532290837962" lon="8.367533971627555"><ele>272.6666666666667</ele><time>2026-05-01T09:43:25.999Z</time></trkpt><trkpt lat="45.09532934219897" lon="8.367441961070169"><ele>273.33333333333337</ele><time>2026-05-01T09:43:28Z</time></trkpt><trkpt lat="45.09534463504148" lon="8.367344683029561"><ele>274.0</ele><time>2026-05-01T09:43:30Z</time></trkpt><trkpt lat="45.0953594274058" lon="8.367222320831111"><ele>274.6666666666667</ele><time>2026-05-01T09:43:32Z</time></trkpt><trkpt lat="45.095371608438384" lon="8.367087420937812"><ele>275.3333333333333</ele><time>2026-05-01T09:43:34Z</time></trkpt><trkpt lat="45.095414334522204" lon="8.366949744534425"><ele>276.0</ele><time>2026-05-01T09:43:36Z</time></trkpt><trkpt lat="45.09542391804321" lon="8.366816059426498"><ele>274.5</ele><time>2026-05-01T09:43:38Z</time></trkpt><trkpt lat="45.0954443523709" lon="8.366714678557722"><ele>273.0</ele><time>2026-05-01T09:43:40Z</time></trkpt><trkpt lat="45.095467265417355" lon="8.36662237958257"><ele>271.5</ele><time>2026-05-01T09:43:42Z</time></trkpt><trkpt lat="45.09547902082524" lon="8.366519959596046"><ele>270.0</ele><time>2026-05-01T09:43:45Z</time></trkpt><trkpt lat="45.09550568611291" lon="8.366425211977205"><ele>268.5</ele><time>2026-05-01T09:43:48Z</time></trkpt><trkpt lat="45.095527383118224" lon="8.366300548799343"><ele>267.0</ele><time>2026-05-01T09:43:51Z</time></trkpt><trkpt lat="45.09554317227693" lon="8.366170804031249"><ele>265.28571428571433</ele><time>2026-05-01T09:43:54Z</time></trkpt><trkpt lat="45.09557138720969" lon="8.366037281764745"><ele>263.57142857142856</ele><time>2026-05-01T09:43:56Z</time></trkpt><trkpt lat="45.09558267304317" lon="8.365949352128846"><ele>261.8571428571429</ele><time>2026-05-01T09:43:57Z</time></trkpt><trkpt lat="45.09559807606604" lon="8.365861895855861"><ele>260.14285714285717</ele><time>2026-05-01T09:43:58.001Z</time></trkpt><trkpt lat="45.095613442888784" lon="8.365768771909176"><ele>258.42857142857144</ele><time>2026-05-01T09:43:59.001Z</time></trkpt><trkpt lat="45.0956288393192" lon="8.365674150200354"><ele>256.7142857142857</ele><time>2026-05-01T09:44:00.001Z</time></trkpt><trkpt lat="45.09564548682922" lon="8.365575839324698"><ele>255.0</ele><time>2026-05-01T09:44:01.001Z</time></trkpt><trkpt lat="45.09566223247216" lon="8.365470763932104"><ele>253.83333333333334</ele><time>2026-05-01T09:44:02.001Z</time></trkpt><trkpt lat="45.09568235774213" lon="8.365365876362088"><ele>252.66666666666669</ele><time>2026-05-01T09:44:03.001Z</time></trkpt><trkpt lat="45.095699797753475" lon="8.365267051651673"><ele>251.5</ele><time>2026-05-01T09:44:04.001Z</time></trkpt><trkpt lat="45.095720801973975" lon="8.365179666305535"><ele>250.33333333333334</ele><time>2026-05-01T09:44:05.001Z</time></trkpt><trkpt lat="45.095743787462474" lon="8.36503337718297"><ele>249.16666666666669</ele><time>2026-05-01T09:44:07.001Z</time></trkpt><trkpt lat="45.09577323872212" lon="8.36489428897131"><ele>248.0</ele><time>2026-05-01T09:44:09.001Z</time></trkpt><trkpt lat="45.09579656989876" lon="8.36476772752152"><ele>246.8</ele><time>2026-05-01T09:44:11.001Z</time></trkpt><trkpt lat="45.0958169152677" lon="8.364623728798646"><ele>245.60000000000002</ele><time>2026-05-01T09:44:13.001Z</time></trkpt><trkpt lat="45.09576493237935" lon="8.364527907170478"><ele>244.39999999999998</ele><time>2026-05-01T09:44:14.001Z</time></trkpt><trkpt lat="45.09576341669622" lon="8.364369135219567"><ele>243.2</ele><time>2026-05-01T09:44:16.001Z</time></trkpt><trkpt lat="45.09574918435154" lon="8.364273610478584"><ele>242.0</ele><time>2026-05-01T09:44:17.001Z</time></trkpt><trkpt lat="45.0957083065425" lon="8.364099338364918"><ele>242.00000000000003</ele><time>2026-05-01T09:44:19.001Z</time></trkpt><trkpt lat="45.09568849379846" lon="8.363998472508946"><ele>242.0</ele><time>2026-05-01T09:44:20.001Z</time></trkpt><trkpt lat="45.09565874481611" lon="8.363900725021896"><ele>242.0</ele><time>2026-05-01T09:44:21.001Z</time></trkpt><trkpt lat="45.09562482504091" lon="8.363793139975641"><ele>242.0</ele><time>2026-05-01T09:44:22.001Z</time></trkpt><trkpt lat="45.095593399268104" lon="8.36368665935218"><ele>242.00000000000003</ele><time>2026-05-01T09:44:23.001Z</time></trkpt><trkpt lat="45.09556218605" lon="8.36356956566563"><ele>242.0</ele><time>2026-05-01T09:44:24.001Z</time></trkpt><trkpt lat="45.095527401481775" lon="8.363447992544927"><ele>242.8</ele><time>2026-05-01T09:44:25.001Z</time></trkpt><trkpt lat="45.09549475336185" lon="8.363324787880716"><ele>243.6</ele><time>2026-05-01T09:44:26.001Z</time></trkpt><trkpt lat="45.09546964009522" lon="8.363194217412588"><ele>244.40000000000003</ele><time>2026-05-01T09:44:27.001Z</time></trkpt><trkpt lat="45.09543788189301" lon="8.363058284483188"><ele>245.20000000000002</ele><time>2026-05-01T09:44:28.001Z</time></trkpt><trkpt lat="45.09540484145434" lon="8.36292098887025"><ele>246.0</ele><time>2026-05-01T09:44:29.001Z</time></trkpt><trkpt lat="45.095375899439844" lon="8.36277270775782"><ele>246.20000000000002</ele><time>2026-05-01T09:44:30.002Z</time></trkpt><trkpt lat="45.09534235639646" lon="8.362619890988219"><ele>246.40000000000003</ele><time>2026-05-01T09:44:31.002Z</time></trkpt><trkpt lat="45.09530736656138" lon="8.362463694076448"><ele>246.6</ele><time>2026-05-01T09:44:32.002Z</time></trkpt><trkpt lat="45.095277460059" lon="8.362338322796964"><ele>246.8</ele><time>2026-05-01T09:44:33.002Z</time></trkpt><trkpt lat="45.095255939998" lon="8.362230330326994"><ele>247.0</ele><time>2026-05-01T09:44:34.002Z</time></trkpt><trkpt lat="45.09522758311497" lon="8.36214308929818"><ele>246.2</ele><time>2026-05-01T09:44:35.002Z</time></trkpt><trkpt lat="45.09516169975406" lon="8.362016623153124"><ele>245.39999999999998</ele><time>2026-05-01T09:44:37.002Z</time></trkpt><trkpt lat="45.09510232428293" lon="8.361960451338058"><ele>244.60000000000002</ele><time>2026-05-01T09:44:38.002Z</time></trkpt><trkpt lat="45.09496953747436" lon="8.361847993290866"><ele>243.8</ele><time>2026-05-01T09:44:40.002Z</time></trkpt><trkpt lat="45.09490437908087" lon="8.361816912213847"><ele>243.0</ele><time>2026-05-01T09:44:41.002Z</time></trkpt><trkpt lat="45.094810239182806" lon="8.361757241004913"><ele>243.0</ele><time>2026-05-01T09:44:43.002Z</time></trkpt><trkpt lat="45.0947825415528" lon="8.361648598735552"><ele>243.0</ele><time>2026-05-01T09:44:45.002Z</time></trkpt><trkpt lat="45.09482697281025" lon="8.361583390697024"><ele>243.0</ele><time>2026-05-01T09:44:49.002Z</time></trkpt><trkpt lat="45.094914565458076" lon="8.361523547204376"><ele>243.0</ele><time>2026-05-01T09:45:17.003Z</time></trkpt><trkpt lat="45.09498218609866" lon="8.361495297808993"><ele>243.0</ele><time>2026-05-01T09:45:19.003Z</time></trkpt><trkpt lat="45.095047370696655" lon="8.361421614429815"><ele>243.0</ele><time>2026-05-01T09:45:21.003Z</time></trkpt><trkpt lat="45.09509529602343" lon="8.361279006780054"><ele>241.5</ele><time>2026-05-01T09:45:23.003Z</time></trkpt><trkpt lat="45.09511024164563" lon="8.361188310633617"><ele>240.0</ele><time>2026-05-01T09:45:24.003Z</time></trkpt><trkpt lat="45.09512700608386" lon="8.361093815300004"><ele>238.5</ele><time>2026-05-01T09:45:25.003Z</time></trkpt><trkpt lat="45.095136341073164" lon="8.360994288321534"><ele>237.0</ele><time>2026-05-01T09:45:27.003Z</time></trkpt><trkpt lat="45.09515581406859" lon="8.360876794561577"><ele>235.5</ele><time>2026-05-01T09:45:29.003Z</time></trkpt><trkpt lat="45.095192175595145" lon="8.360734563365419"><ele>234.0</ele><time>2026-05-01T09:45:31Z</time></trkpt><trkpt lat="45.09519745873739" lon="8.360558000068185"><ele>232.2</ele><time>2026-05-01T09:45:33Z</time></trkpt><trkpt lat="45.095209566609725" lon="8.360430178159959"><ele>230.39999999999998</ele><time>2026-05-01T09:45:35Z</time></trkpt><trkpt lat="45.0952170634667" lon="8.360310245278155"><ele>228.6</ele><time>2026-05-01T09:45:37Z</time></trkpt><trkpt lat="45.09522879172329" lon="8.360172519989236"><ele>226.8</ele><time>2026-05-01T09:45:39Z</time></trkpt><trkpt lat="45.09523355462673" lon="8.360003594154689"><ele>225.0</ele><time>2026-05-01T09:45:41Z</time></trkpt><trkpt lat="45.09523411874206" lon="8.359910131973914"><ele>225.0</ele><time>2026-05-01T09:45:42Z</time></trkpt><trkpt lat="45.09524109639238" lon="8.359815641845536"><ele>225.0</ele><time>2026-05-01T09:45:43Z</time></trkpt><trkpt lat="45.0952404217395" lon="8.359709047311023"><ele>225.0</ele><time>2026-05-01T09:45:44Z</time></trkpt><trkpt lat="45.095241445714024" lon="8.359596978767787"><ele>225.0</ele><time>2026-05-01T09:45:45Z</time></trkpt><trkpt lat="45.09525032912122" lon="8.359481308514248"><ele>225.0</ele><time>2026-05-01T09:45:46Z</time></trkpt><trkpt lat="45.0952656600729" lon="8.359360941380443"><ele>225.0</ele><time>2026-05-01T09:45:47Z</time></trkpt><trkpt lat="45.095289189780615" lon="8.359241500381312"><ele>223.2</ele><time>2026-05-01T09:45:48Z</time></trkpt><trkpt lat="45.09531729098545" lon="8.35911585725014"><ele>221.4</ele><time>2026-05-01T09:45:49Z</time></trkpt><trkpt lat="45.09533256397231" lon="8.358977841065364"><ele>219.60000000000002</ele><time>2026-05-01T09:45:50Z</time></trkpt><trkpt lat="45.09533256974452" lon="8.35882646262492"><ele>217.8</ele><time>2026-05-01T09:45:51Z</time></trkpt><trkpt lat="45.095309324984164" lon="8.358682917378967"><ele>216.0</ele><time>2026-05-01T09:45:52Z</time></trkpt><trkpt lat="45.095279778204144" lon="8.358533152000374"><ele>214.8</ele><time>2026-05-01T09:45:53Z</time></trkpt><trkpt lat="45.09525101189743" lon="8.358385884445793"><ele>213.60000000000002</ele><time>2026-05-01T09:45:54Z</time></trkpt><trkpt lat="45.095221071091885" lon="8.358233381382394"><ele>212.4</ele><time>2026-05-01T09:45:55Z</time></trkpt><trkpt lat="45.095186970279535" lon="8.358083233540789"><ele>211.2</ele><time>2026-05-01T09:45:56Z</time></trkpt><trkpt lat="45.09516480890247" lon="8.357929938594102"><ele>210.0</ele><time>2026-05-01T09:45:57Z</time></trkpt><trkpt lat="45.095153421479274" lon="8.35777592856529"><ele>210.0</ele><time>2026-05-01T09:45:58Z</time></trkpt><trkpt lat="45.09514603608303" lon="8.357622161288312"><ele>210.0</ele><time>2026-05-01T09:45:59Z</time></trkpt><trkpt lat="45.09514795371632" lon="8.357468348140383"><ele>210.0</ele><time>2026-05-01T09:46:00Z</time></trkpt><trkpt lat="45.09515357411925" lon="8.35731210988745"><ele>210.0</ele><time>2026-05-01T09:46:01Z</time></trkpt><trkpt lat="45.0951556641595" lon="8.357162055256348"><ele>210.0</ele><time>2026-05-01T09:46:02Z</time></trkpt><trkpt lat="45.09515568773698" lon="8.357018677494354"><ele>210.2</ele><time>2026-05-01T09:46:03Z</time></trkpt><trkpt lat="45.095149569409806" lon="8.356879662861171"><ele>210.4</ele><time>2026-05-01T09:46:04Z</time></trkpt><trkpt lat="45.09513810166177" lon="8.35674341623336"><ele>210.60000000000002</ele><time>2026-05-01T09:46:05.001Z</time></trkpt><trkpt lat="45.09511023035414" lon="8.356615087030802"><ele>210.8</ele><time>2026-05-01T09:46:06.001Z</time></trkpt><trkpt lat="45.095083752530535" lon="8.356483856024235"><ele>211.0</ele><time>2026-05-01T09:46:07.001Z</time></trkpt><trkpt lat="45.095016414988436" lon="8.356381969858981"><ele>211.33333333333331</ele><time>2026-05-01T09:46:08.001Z</time></trkpt><trkpt lat="45.09493988099836" lon="8.356310864507465"><ele>211.66666666666666</ele><time>2026-05-01T09:46:09.001Z</time></trkpt><trkpt lat="45.09486084050874" lon="8.356263142381874"><ele>212.0</ele><time>2026-05-01T09:46:10.001Z</time></trkpt><trkpt lat="45.094801026604785" lon="8.356180022781144"><ele>212.33333333333331</ele><time>2026-05-01T09:46:11.001Z</time></trkpt><trkpt lat="45.09473660566702" lon="8.356113374022556"><ele>212.66666666666666</ele><time>2026-05-01T09:46:12.001Z</time></trkpt><trkpt lat="45.09468312260803" lon="8.356037764301105"><ele>213.0</ele><time>2026-05-01T09:46:13.001Z</time></trkpt><trkpt lat="45.094624458205644" lon="8.355966175621925"><ele>211.0</ele><time>2026-05-01T09:46:14.001Z</time></trkpt><trkpt lat="45.09457999004691" lon="8.355872369401386"><ele>209.0</ele><time>2026-05-01T09:46:15.001Z</time></trkpt><trkpt lat="45.0945426936792" lon="8.355775493786638"><ele>207.0</ele><time>2026-05-01T09:46:16.001Z</time></trkpt><trkpt lat="45.09450742490236" lon="8.35567426135679"><ele>205.0</ele><time>2026-05-01T09:46:17.001Z</time></trkpt><trkpt lat="45.09447663865576" lon="8.355567544576083"><ele>203.0</ele><time>2026-05-01T09:46:18.001Z</time></trkpt><trkpt lat="45.094439907198016" lon="8.355453286800074"><ele>201.0</ele><time>2026-05-01T09:46:19.001Z</time></trkpt><trkpt lat="45.094414220845565" lon="8.355337506867622"><ele>201.0</ele><time>2026-05-01T09:46:20.001Z</time></trkpt><trkpt lat="45.094377780303674" lon="8.355217768179491"><ele>201.0</ele><time>2026-05-01T09:46:21.001Z</time></trkpt><trkpt lat="45.09433853315367" lon="8.355095945676087"><ele>201.0</ele><time>2026-05-01T09:46:22.001Z</time></trkpt><trkpt lat="45.09429756665609" lon="8.354973787060693"><ele>201.0</ele><time>2026-05-01T09:46:23.001Z</time></trkpt><trkpt lat="45.09425024437786" lon="8.354849317030428"><ele>201.0</ele><time>2026-05-01T09:46:24.001Z</time></trkpt><trkpt lat="45.094205926507506" lon="8.354719017982053"><ele>200.60000000000002</ele><time>2026-05-01T09:46:25.001Z</time></trkpt><trkpt lat="45.09415984604251" lon="8.354591235452322"><ele>200.2</ele><time>2026-05-01T09:46:26.001Z</time></trkpt><trkpt lat="45.09411291879161" lon="8.354457430601776"><ele>199.8</ele><time>2026-05-01T09:46:27.001Z</time></trkpt><trkpt lat="45.09406805457673" lon="8.35431543014863"><ele>199.39999999999998</ele><time>2026-05-01T09:46:28.001Z</time></trkpt><trkpt lat="45.09402440654521" lon="8.354175538741448"><ele>199.0</ele><time>2026-05-01T09:46:29.001Z</time></trkpt><trkpt lat="45.09397235415576" lon="8.354036272358764"><ele>195.79999999999998</ele><time>2026-05-01T09:46:30.001Z</time></trkpt><trkpt lat="45.09392194996782" lon="8.353892577470264"><ele>192.6</ele><time>2026-05-01T09:46:31.001Z</time></trkpt><trkpt lat="45.093871000786535" lon="8.353746850880508"><ele>189.4</ele><time>2026-05-01T09:46:32.001Z</time></trkpt><trkpt lat="45.09383310823877" lon="8.353607891820108"><ele>186.2</ele><time>2026-05-01T09:46:33.001Z</time></trkpt><trkpt lat="45.09380336870389" lon="8.353474261661969"><ele>183.0</ele><time>2026-05-01T09:46:34.001Z</time></trkpt><trkpt lat="45.093778389722" lon="8.353332542784726"><ele>183.0</ele><time>2026-05-01T09:46:35.001Z</time></trkpt><trkpt lat="45.09375491503782" lon="8.353207058151211"><ele>183.0</ele><time>2026-05-01T09:46:36.002Z</time></trkpt><trkpt lat="45.0937301204288" lon="8.353099626574265"><ele>183.0</ele><time>2026-05-01T09:46:37.002Z</time></trkpt><trkpt lat="45.09371304610218" lon="8.35299333487479"><ele>183.0</ele><time>2026-05-01T09:46:38.002Z</time></trkpt><trkpt lat="45.093690579889675" lon="8.352894961288557"><ele>183.0</ele><time>2026-05-01T09:46:39.002Z</time></trkpt><trkpt lat="45.09366579151255" lon="8.352803548073123"><ele>183.0</ele><time>2026-05-01T09:46:40.002Z</time></trkpt><trkpt lat="45.09364107278406" lon="8.352714363698146"><ele>182.5</ele><time>2026-05-01T09:46:41.002Z</time></trkpt><trkpt lat="45.09361301976912" lon="8.352613483168328"><ele>182.0</ele><time>2026-05-01T09:46:42.002Z</time></trkpt><trkpt lat="45.093584299418026" lon="8.352512610976282"><ele>181.5</ele><time>2026-05-01T09:46:43.002Z</time></trkpt><trkpt lat="45.09355223989826" lon="8.35240432073829"><ele>181.0</ele><time>2026-05-01T09:46:44.002Z</time></trkpt><trkpt lat="45.0935177850711" lon="8.352296627991521"><ele>180.5</ele><time>2026-05-01T09:46:45.002Z</time></trkpt><trkpt lat="45.093480267180766" lon="8.352187246973257"><ele>180.0</ele><time>2026-05-01T09:46:46.002Z</time></trkpt><trkpt lat="45.0934377734049" lon="8.35207113947105"><ele>179.2</ele><time>2026-05-01T09:46:47.002Z</time></trkpt><trkpt lat="45.09338315041875" lon="8.351951628009518"><ele>178.4</ele><time>2026-05-01T09:46:48.002Z</time></trkpt><trkpt lat="45.09332537261455" lon="8.351825020931978"><ele>177.60000000000002</ele><time>2026-05-01T09:46:49.002Z</time></trkpt><trkpt lat="45.09328387672407" lon="8.351691426205814"><ele>176.8</ele><time>2026-05-01T09:46:50.002Z</time></trkpt><trkpt lat="45.09326120137524" lon="8.351554370331877"><ele>176.0</ele><time>2026-05-01T09:46:51.002Z</time></trkpt><trkpt lat="45.093248633177005" lon="8.351419054248623"><ele>173.20000000000002</ele><time>2026-05-01T09:46:52.002Z</time></trkpt><trkpt lat="45.09324088305889" lon="8.351291666644684"><ele>170.4</ele><time>2026-05-01T09:46:53.002Z</time></trkpt><trkpt lat="45.09324691854674" lon="8.351154080479738"><ele>167.6</ele><time>2026-05-01T09:46:54.002Z</time></trkpt><trkpt lat="45.093245651534566" lon="8.351022044062697"><ele>164.8</ele><time>2026-05-01T09:46:55.002Z</time></trkpt><trkpt lat="45.09323600928828" lon="8.350907765948245"><ele>162.0</ele><time>2026-05-01T09:46:56.002Z</time></trkpt><trkpt lat="45.093210202541734" lon="8.350787148536964"><ele>162.0</ele><time>2026-05-01T09:46:57.002Z</time></trkpt><trkpt lat="45.09313148285882" lon="8.350708724151243"><ele>162.0</ele><time>2026-05-01T09:46:58.002Z</time></trkpt><trkpt lat="45.09307618218508" lon="8.3506499855943"><ele>162.0</ele><time>2026-05-01T09:46:59.002Z</time></trkpt><trkpt lat="45.0930156535734" lon="8.350579514281723"><ele>162.0</ele><time>2026-05-01T09:47:00.002Z</time></trkpt><trkpt lat="45.092964923934275" lon="8.350496922768441"><ele>162.0</ele><time>2026-05-01T09:47:01.002Z</time></trkpt><trkpt lat="45.09292850142756" lon="8.350393995526618"><ele>162.0</ele><time>2026-05-01T09:47:02.002Z</time></trkpt><trkpt lat="45.092897139675806" lon="8.350282735810945"><ele>161.66666666666666</ele><time>2026-05-01T09:47:03.002Z</time></trkpt><trkpt lat="45.092867293053885" lon="8.350169880934546"><ele>161.33333333333334</ele><time>2026-05-01T09:47:04.002Z</time></trkpt><trkpt lat="45.09284733511517" lon="8.350056541322022"><ele>161.0</ele><time>2026-05-01T09:47:05.002Z</time></trkpt><trkpt lat="45.092833993391174" lon="8.34994002544895"><ele>160.66666666666669</ele><time>2026-05-01T09:47:06.002Z</time></trkpt><trkpt lat="45.09282931135601" lon="8.349826931082104"><ele>160.33333333333334</ele><time>2026-05-01T09:47:07.002Z</time></trkpt><trkpt lat="45.09281525423684" lon="8.34971600807462"><ele>160.0</ele><time>2026-05-01T09:47:08.002Z</time></trkpt><trkpt lat="45.09282032578347" lon="8.349606027810749"><ele>160.0</ele><time>2026-05-01T09:47:09.003Z</time></trkpt><trkpt lat="45.09282329868975" lon="8.349497563576223"><ele>160.0</ele><time>2026-05-01T09:47:10.003Z</time></trkpt><trkpt lat="45.09282648766061" lon="8.349389415851379"><ele>160.0</ele><time>2026-05-01T09:47:11.003Z</time></trkpt><trkpt lat="45.0928346419761" lon="8.349286622071427"><ele>160.0</ele><time>2026-05-01T09:47:12.003Z</time></trkpt><trkpt lat="45.09284023503467" lon="8.349183833365238"><ele>160.0</ele><time>2026-05-01T09:47:13.003Z</time></trkpt><trkpt lat="45.09284453906061" lon="8.349086026215852"><ele>160.0</ele><time>2026-05-01T09:47:14.003Z</time></trkpt><trkpt lat="45.09284719377169" lon="8.348990222791809"><ele>160.0</ele><time>2026-05-01T09:47:15.003Z</time></trkpt><trkpt lat="45.09286400179298" lon="8.348868203165427"><ele>160.16666666666669</ele><time>2026-05-01T09:47:17.003Z</time></trkpt><trkpt lat="45.0928655914174" lon="8.348765083600195"><ele>160.33333333333334</ele><time>2026-05-01T09:47:19.003Z</time></trkpt><trkpt lat="45.092869363641874" lon="8.348669809257306"><ele>160.5</ele><time>2026-05-01T09:47:21.003Z</time></trkpt><trkpt lat="45.09287518288731" lon="8.348572430032936"><ele>160.66666666666666</ele><time>2026-05-01T09:48:17.001Z</time></trkpt><trkpt lat="45.0928810982992" lon="8.348462463912442"><ele>160.83333333333331</ele><time>2026-05-01T09:48:20.001Z</time></trkpt><trkpt lat="45.092876772120654" lon="8.348363271445713"><ele>161.0</ele><time>2026-05-01T09:48:22.001Z</time></trkpt><trkpt lat="45.092869293344854" lon="8.348227995625114"><ele>161.0</ele><time>2026-05-01T09:48:24.001Z</time></trkpt><trkpt lat="45.09286274314498" lon="8.348076516720926"><ele>161.0</ele><time>2026-05-01T09:48:26.001Z</time></trkpt><trkpt lat="45.0928596286843" lon="8.347915764317309"><ele>161.0</ele><time>2026-05-01T09:48:28.001Z</time></trkpt><trkpt lat="45.09284529108392" lon="8.347744806430358"><ele>161.0</ele><time>2026-05-01T09:48:30.001Z</time></trkpt><trkpt lat="45.09285494331488" lon="8.34759698578557"><ele>161.0</ele><time>2026-05-01T09:48:32.001Z</time></trkpt><trkpt lat="45.09284611993908" lon="8.347478624959273"><ele>160.83333333333331</ele><time>2026-05-01T09:48:34.001Z</time></trkpt><trkpt lat="45.09283749189905" lon="8.347371021625417"><ele>160.66666666666666</ele><time>2026-05-01T09:48:36.001Z</time></trkpt><trkpt lat="45.09282816419533" lon="8.347254199113145"><ele>160.5</ele><time>2026-05-01T09:48:38.001Z</time></trkpt><trkpt lat="45.092822707298396" lon="8.34714463159721"><ele>160.33333333333334</ele><time>2026-05-01T09:48:40.002Z</time></trkpt><trkpt lat="45.092822157863544" lon="8.347022646441175"><ele>160.16666666666669</ele><time>2026-05-01T09:48:42.002Z</time></trkpt><trkpt lat="45.09282004991988" lon="8.346894215048353"><ele>160.0</ele><time>2026-05-01T09:48:44.002Z</time></trkpt><trkpt lat="45.0928247053391" lon="8.34676202780488"><ele>159.6</ele><time>2026-05-01T09:48:46.002Z</time></trkpt><trkpt lat="45.0928129450388" lon="8.346617091403157"><ele>159.2</ele><time>2026-05-01T09:48:48.002Z</time></trkpt><trkpt lat="45.09280927242654" lon="8.346471819455235"><ele>158.8</ele><time>2026-05-01T09:48:50.002Z</time></trkpt><trkpt lat="45.09281586687155" lon="8.346312828934604"><ele>158.4</ele><time>2026-05-01T09:48:52.002Z</time></trkpt><trkpt lat="45.092823354609386" lon="8.346156087141376"><ele>158.0</ele><time>2026-05-01T09:48:54.002Z</time></trkpt><trkpt lat="45.09283482169795" lon="8.346004912404677"><ele>157.83333333333331</ele><time>2026-05-01T09:48:56.002Z</time></trkpt><trkpt lat="45.09284840127202" lon="8.345852310120366"><ele>157.66666666666666</ele><time>2026-05-01T09:48:58.002Z</time></trkpt><trkpt lat="45.09285846339075" lon="8.345738573730863"><ele>157.5</ele><time>2026-05-01T09:49:00.002Z</time></trkpt><trkpt lat="45.0928765188968" lon="8.34563096196938"><ele>157.33333333333334</ele><time>2026-05-01T09:49:02.002Z</time></trkpt><trkpt lat="45.09288333502381" lon="8.34553668192717"><ele>157.16666666666669</ele><time>2026-05-01T09:49:04.002Z</time></trkpt><trkpt lat="45.09288938677026" lon="8.34542824315301"><ele>157.0</ele><time>2026-05-01T09:49:06.002Z</time></trkpt><trkpt lat="45.092884081362385" lon="8.34530650243835"><ele>156.2</ele><time>2026-05-01T09:49:08.002Z</time></trkpt><trkpt lat="45.09285937568639" lon="8.345175395677321"><ele>155.39999999999998</ele><time>2026-05-01T09:49:10.002Z</time></trkpt><trkpt lat="45.09281628004084" lon="8.345045245755262"><ele>154.60000000000002</ele><time>2026-05-01T09:49:12.002Z</time></trkpt><trkpt lat="45.092765608582255" lon="8.344924713664074"><ele>153.8</ele><time>2026-05-01T09:49:14.003Z</time></trkpt><trkpt lat="45.09271516405014" lon="8.34480824232738"><ele>153.0</ele><time>2026-05-01T09:49:16.003Z</time></trkpt><trkpt lat="45.0926738482196" lon="8.344701986284432"><ele>152.57142857142856</ele><time>2026-05-01T09:49:18.003Z</time></trkpt><trkpt lat="45.09263877292932" lon="8.34460580854413"><ele>152.14285714285714</ele><time>2026-05-01T09:49:20.003Z</time></trkpt><trkpt lat="45.092597737762354" lon="8.344490493294519"><ele>151.71428571428572</ele><time>2026-05-01T09:49:23.003Z</time></trkpt><trkpt lat="45.0925685061586" lon="8.344408347904404"><ele>151.28571428571428</ele><time>2026-05-01T09:49:25.003Z</time></trkpt><trkpt lat="45.09252398271439" lon="8.344335540510954"><ele>150.85714285714286</ele><time>2026-05-01T09:49:27.003Z</time></trkpt><trkpt lat="45.09249779893279" lon="8.344248189726557"><ele>150.42857142857142</ele><time>2026-05-01T09:49:29.003Z</time></trkpt><trkpt lat="45.09246704089055" lon="8.34416844496235"><ele>150.0</ele><time>2026-05-01T09:49:31.003Z</time></trkpt><trkpt lat="45.09242541621916" lon="8.34404752188885"><ele>150.14285714285714</ele><time>2026-05-01T09:49:34.003Z</time></trkpt><trkpt lat="45.092398768208184" lon="8.343962578166183"><ele>150.28571428571428</ele><time>2026-05-01T09:49:36.003Z</time></trkpt><trkpt lat="45.09237881037694" lon="8.343872186012598"><ele>150.42857142857144</ele><time>2026-05-01T09:49:38.003Z</time></trkpt><trkpt lat="45.09236677347602" lon="8.343779570321532"><ele>150.57142857142856</ele><time>2026-05-01T09:49:40.003Z</time></trkpt><trkpt lat="45.0923574910577" lon="8.343690162471871"><ele>150.71428571428572</ele><time>2026-05-01T09:49:42.003Z</time></trkpt><trkpt lat="45.092371867396515" lon="8.34356902020982"><ele>150.85714285714286</ele><time>2026-05-01T09:49:44.999Z</time></trkpt><trkpt lat="45.0923758757139" lon="8.343452625797271"><ele>151.0</ele><time>2026-05-01T09:49:48Z</time></trkpt><trkpt lat="45.09237842355054" lon="8.343344332006772"><ele>151.16666666666669</ele><time>2026-05-01T09:49:51Z</time></trkpt><trkpt lat="45.09237616541822" lon="8.343238326409645"><ele>151.33333333333334</ele><time>2026-05-01T09:49:54Z</time></trkpt><trkpt lat="45.09237180140631" lon="8.343127670424199"><ele>151.5</ele><time>2026-05-01T09:49:57Z</time></trkpt><trkpt lat="45.092360143656045" lon="8.342993054765673"><ele>151.66666666666666</ele><time>2026-05-01T09:50:00Z</time></trkpt><trkpt lat="45.09234889606115" lon="8.342903051617762"><ele>151.83333333333331</ele><time>2026-05-01T09:50:02Z</time></trkpt><trkpt lat="45.09233272008237" lon="8.342802425172643"><ele>152.0</ele><time>2026-05-01T09:50:04Z</time></trkpt><trkpt lat="45.0923098722057" lon="8.342695814394286"><ele>152.83333333333331</ele><time>2026-05-01T09:50:06Z</time></trkpt><trkpt lat="45.09228170221038" lon="8.342594069173792"><ele>153.66666666666666</ele><time>2026-05-01T09:50:08Z</time></trkpt><trkpt lat="45.092245208267535" lon="8.342502165270261"><ele>154.5</ele><time>2026-05-01T09:50:10Z</time></trkpt><trkpt lat="45.092173269004554" lon="8.34237254029505"><ele>155.33333333333334</ele><time>2026-05-01T09:50:13Z</time></trkpt><trkpt lat="45.092110432392914" lon="8.342275663914297"><ele>156.16666666666669</ele><time>2026-05-01T09:50:16Z</time></trkpt><trkpt lat="45.0920615534332" lon="8.342200147533804"><ele>157.0</ele><time>2026-05-01T09:50:18.001Z</time></trkpt><trkpt lat="45.09201919734274" lon="8.34213296148626"><ele>156.99999999999997</ele><time>2026-05-01T09:50:20.001Z</time></trkpt><trkpt lat="45.09197305743653" lon="8.342054817629887"><ele>157.0</ele><time>2026-05-01T09:50:22.001Z</time></trkpt><trkpt lat="45.09192853466013" lon="8.341978920436965"><ele>157.0</ele><time>2026-05-01T09:50:24.001Z</time></trkpt><trkpt lat="45.09188358286736" lon="8.341900553011813"><ele>157.0</ele><time>2026-05-01T09:50:26.001Z</time></trkpt><trkpt lat="45.091832277109305" lon="8.341810460456484"><ele>157.0</ele><time>2026-05-01T09:50:28.001Z</time></trkpt><trkpt lat="45.091779041066964" lon="8.341726748888627"><ele>156.99999999999997</ele><time>2026-05-01T09:50:30.001Z</time></trkpt><trkpt lat="45.09172682415882" lon="8.34165930869297"><ele>157.0</ele><time>2026-05-01T09:50:32.001Z</time></trkpt><trkpt lat="45.09168178602034" lon="8.341577043503056"><ele>157.0</ele><time>2026-05-01T09:50:34.001Z</time></trkpt><trkpt lat="45.09163091136573" lon="8.341468744486933"><ele>157.0</ele><time>2026-05-01T09:50:37.001Z</time></trkpt><trkpt lat="45.091598877382765" lon="8.341390931378147"><ele>157.0</ele><time>2026-05-01T09:50:39.001Z</time></trkpt><trkpt lat="45.09153346451426" lon="8.34130660425695"><ele>157.0</ele><time>2026-05-01T09:50:42.001Z</time></trkpt><trkpt lat="45.091489718939656" lon="8.341192257350258"><ele>157.0</ele><time>2026-05-01T09:50:45.001Z</time></trkpt><trkpt lat="45.09142592866236" lon="8.341094225094476"><ele>157.0</ele><time>2026-05-01T09:50:48.002Z</time></trkpt><trkpt lat="45.09139984728556" lon="8.341010662657405"><ele>157.14285714285714</ele><time>2026-05-01T09:50:50.002Z</time></trkpt><trkpt lat="45.09139324372639" lon="8.340912050438043"><ele>157.28571428571428</ele><time>2026-05-01T09:50:52.002Z</time></trkpt><trkpt lat="45.091387329191896" lon="8.340783333168703"><ele>157.42857142857144</ele><time>2026-05-01T09:50:55.002Z</time></trkpt><trkpt lat="45.09140108507306" lon="8.34069223947877"><ele>157.57142857142856</ele><time>2026-05-01T09:50:57.002Z</time></trkpt><trkpt lat="45.09142171983273" lon="8.340589813290508"><ele>157.71428571428572</ele><time>2026-05-01T09:50:59.002Z</time></trkpt><trkpt lat="45.09143161899429" lon="8.34048891929397"><ele>157.85714285714286</ele><time>2026-05-01T09:51:01.002Z</time></trkpt><trkpt lat="45.09145349869307" lon="8.340386800264703"><ele>158.0</ele><time>2026-05-01T09:51:03.002Z</time></trkpt><trkpt lat="45.09147423956341" lon="8.340283027151477"><ele>158.5</ele><time>2026-05-01T09:51:05.002Z</time></trkpt><trkpt lat="45.09149319511243" lon="8.34018426651604"><ele>159.0</ele><time>2026-05-01T09:51:07.002Z</time></trkpt><trkpt lat="45.09151569600368" lon="8.340075157774473"><ele>159.5</ele><time>2026-05-01T09:51:09.002Z</time></trkpt><trkpt lat="45.091529722302944" lon="8.339972023556264"><ele>160.0</ele><time>2026-05-01T09:51:11.002Z</time></trkpt><trkpt lat="45.0915416535457" lon="8.33987060823074"><ele>160.5</ele><time>2026-05-01T09:51:13.002Z</time></trkpt><trkpt lat="45.091550901122254" lon="8.33976022868889"><ele>161.0</ele><time>2026-05-01T09:51:15.002Z</time></trkpt><trkpt lat="45.09154596052747" lon="8.339646331564676"><ele>161.83333333333331</ele><time>2026-05-01T09:51:17.002Z</time></trkpt><trkpt lat="45.09154408434963" lon="8.339531850037536"><ele>162.66666666666666</ele><time>2026-05-01T09:51:19.002Z</time></trkpt><trkpt lat="45.09153865961496" lon="8.339427790256089"><ele>163.5</ele><time>2026-05-01T09:51:21.003Z</time></trkpt><trkpt lat="45.09152916881114" lon="8.339309808839221"><ele>164.33333333333334</ele><time>2026-05-01T09:51:23.003Z</time></trkpt><trkpt lat="45.09151257784626" lon="8.33918670910866"><ele>165.16666666666669</ele><time>2026-05-01T09:51:25.003Z</time></trkpt><trkpt lat="45.091496451686865" lon="8.339072441406962"><ele>166.0</ele><time>2026-05-01T09:51:27.003Z</time></trkpt><trkpt lat="45.09147867709539" lon="8.338953763716539"><ele>167.5</ele><time>2026-05-01T09:51:29.003Z</time></trkpt><trkpt lat="45.0914592335821" lon="8.338832798448712"><ele>169.0</ele><time>2026-05-01T09:51:31.003Z</time></trkpt><trkpt lat="45.09142840798364" lon="8.338708760361003"><ele>170.5</ele><time>2026-05-01T09:51:33.003Z</time></trkpt><trkpt lat="45.09142139394828" lon="8.33857718479661"><ele>172.0</ele><time>2026-05-01T09:51:35.003Z</time></trkpt><trkpt lat="45.09139403408194" lon="8.33846988547721"><ele>173.5</ele><time>2026-05-01T09:51:37.003Z</time></trkpt><trkpt lat="45.09138482250964" lon="8.33835562906765"><ele>175.0</ele><time>2026-05-01T09:51:39.003Z</time></trkpt><trkpt lat="45.091383977506666" lon="8.338229520139173"><ele>175.0</ele><time>2026-05-01T09:51:41.003Z</time></trkpt><trkpt lat="45.09137657891138" lon="8.338113233355115"><ele>175.0</ele><time>2026-05-01T09:51:43.003Z</time></trkpt><trkpt lat="45.09137496948525" lon="8.337989608719399"><ele>175.0</ele><time>2026-05-01T09:51:45.003Z</time></trkpt><trkpt lat="45.09136424022613" lon="8.337865871446493"><ele>175.0</ele><time>2026-05-01T09:51:47.003Z</time></trkpt><trkpt lat="45.09135352613831" lon="8.337740881778615"><ele>175.0</ele><time>2026-05-01T09:51:48.998Z</time></trkpt><trkpt lat="45.09132423120094" lon="8.337617117194924"><ele>175.0</ele><time>2026-05-01T09:51:50.999Z</time></trkpt><trkpt lat="45.09126425015763" lon="8.337506678264852"><ele>176.0</ele><time>2026-05-01T09:51:52.999Z</time></trkpt><trkpt lat="45.0911786230314" lon="8.33742700859642"><ele>177.0</ele><time>2026-05-01T09:51:54.999Z</time></trkpt><trkpt lat="45.09108595432686" lon="8.337361264931793"><ele>178.0</ele><time>2026-05-01T09:51:56.999Z</time></trkpt><trkpt lat="45.090990962425394" lon="8.337293161936246"><ele>179.0</ele><time>2026-05-01T09:51:58.999Z</time></trkpt><trkpt lat="45.09089349489403" lon="8.337232586456057"><ele>180.0</ele><time>2026-05-01T09:52:00.999Z</time></trkpt><trkpt lat="45.09080187492259" lon="8.337176358403221"><ele>183.0</ele><time>2026-05-01T09:52:02.999Z</time></trkpt><trkpt lat="45.0907107189315" lon="8.337125154018413"><ele>186.0</ele><time>2026-05-01T09:52:04.999Z</time></trkpt><trkpt lat="45.09061863787734" lon="8.337075091691672"><ele>189.0</ele><time>2026-05-01T09:52:07Z</time></trkpt><trkpt lat="45.09052926911686" lon="8.3369911165965"><ele>192.0</ele><time>2026-05-01T09:52:09Z</time></trkpt><trkpt lat="45.09043384842076" lon="8.336923973218228"><ele>195.0</ele><time>2026-05-01T09:52:11Z</time></trkpt><trkpt lat="45.09033202359234" lon="8.336871153528152"><ele>195.0</ele><time>2026-05-01T09:52:13Z</time></trkpt><trkpt lat="45.09023809545049" lon="8.336798153249498"><ele>195.0</ele><time>2026-05-01T09:52:15Z</time></trkpt><trkpt lat="45.090142962376795" lon="8.33672834349496"><ele>195.0</ele><time>2026-05-01T09:52:17Z</time></trkpt><trkpt lat="45.09004542374587" lon="8.336671420763533"><ele>195.0</ele><time>2026-05-01T09:52:19Z</time></trkpt><trkpt lat="45.08994300572133" lon="8.336633762277723"><ele>195.0</ele><time>2026-05-01T09:52:21Z</time></trkpt><trkpt lat="45.08983881494404" lon="8.33664690036773"><ele>196.4</ele><time>2026-05-01T09:52:23Z</time></trkpt><trkpt lat="45.0897349344641" lon="8.336671395227473"><ele>197.8</ele><time>2026-05-01T09:52:25Z</time></trkpt><trkpt lat="45.08963437120215" lon="8.336686538222638"><ele>199.2</ele><time>2026-05-01T09:52:27.001Z</time></trkpt><trkpt lat="45.08953311091372" lon="8.336681424608148"><ele>200.6</ele><time>2026-05-01T09:52:29.001Z</time></trkpt><trkpt lat="45.089448530271596" lon="8.336622830231882"><ele>202.0</ele><time>2026-05-01T09:52:31.001Z</time></trkpt><trkpt lat="45.089384449981274" lon="8.336528069554324"><ele>202.0</ele><time>2026-05-01T09:52:33.001Z</time></trkpt><trkpt lat="45.08934518673571" lon="8.3363934600924"><ele>202.0</ele><time>2026-05-01T09:52:35.001Z</time></trkpt><trkpt lat="45.08929590073858" lon="8.336263070896244"><ele>202.0</ele><time>2026-05-01T09:52:37.001Z</time></trkpt><trkpt lat="45.08922361232012" lon="8.33616246712747"><ele>202.0</ele><time>2026-05-01T09:52:39.001Z</time></trkpt><trkpt lat="45.089149240103595" lon="8.33608110695671"><ele>202.0</ele><time>2026-05-01T09:52:41.001Z</time></trkpt><trkpt lat="45.089073809826104" lon="8.336005353135587"><ele>201.99999999999997</ele><time>2026-05-01T09:52:43.001Z</time></trkpt><trkpt lat="45.08902182637205" lon="8.335900494115755"><ele>202.0</ele><time>2026-05-01T09:52:45.001Z</time></trkpt><trkpt lat="45.08896203740517" lon="8.335804083005558"><ele>202.0</ele><time>2026-05-01T09:52:47.001Z</time></trkpt><trkpt lat="45.0889050312502" lon="8.335703267551096"><ele>202.0</ele><time>2026-05-01T09:52:49.001Z</time></trkpt><trkpt lat="45.08885468622324" lon="8.335608103188822"><ele>201.99999999999997</ele><time>2026-05-01T09:52:51.001Z</time></trkpt><trkpt lat="45.0888159303519" lon="8.335525936486517"><ele>202.0</ele><time>2026-05-01T09:52:53.001Z</time></trkpt><trkpt lat="45.088781856261164" lon="8.335445898417872"><ele>202.0</ele><time>2026-05-01T09:52:55.001Z</time></trkpt><trkpt lat="45.088749648581924" lon="8.335349771580939"><ele>202.0</ele><time>2026-05-01T09:52:57.002Z</time></trkpt><trkpt lat="45.08872201870035" lon="8.335232746447778"><ele>202.0</ele><time>2026-05-01T09:52:59.002Z</time></trkpt><trkpt lat="45.08869790044123" lon="8.335099761606003"><ele>202.0</ele><time>2026-05-01T09:53:01.002Z</time></trkpt><trkpt lat="45.08867041632517" lon="8.334948217777288"><ele>202.0</ele><time>2026-05-01T09:53:03.002Z</time></trkpt><trkpt lat="45.088649577846844" lon="8.334804782686996"><ele>202.39999999999998</ele><time>2026-05-01T09:53:05.002Z</time></trkpt><trkpt lat="45.088635891871036" lon="8.33463774505262"><ele>202.79999999999998</ele><time>2026-05-01T09:53:07.002Z</time></trkpt><trkpt lat="45.08863215116131" lon="8.334548042686341"><ele>203.2</ele><time>2026-05-01T09:53:08.002Z</time></trkpt><trkpt lat="45.088629961792876" lon="8.334374418177891"><ele>203.6</ele><time>2026-05-01T09:53:10.002Z</time></trkpt><trkpt lat="45.08862766769214" lon="8.334218448068107"><ele>204.0</ele><time>2026-05-01T09:53:12.002Z</time></trkpt><trkpt lat="45.08861346753434" lon="8.33409595711315"><ele>204.0</ele><time>2026-05-01T09:53:14.002Z</time></trkpt><trkpt lat="45.08861792229696" lon="8.333999600656915"><ele>204.0</ele><time>2026-05-01T09:53:16.002Z</time></trkpt><trkpt lat="45.088618541334185" lon="8.333898369848862"><ele>204.0</ele><time>2026-05-01T09:53:19.002Z</time></trkpt><trkpt lat="45.08861942409687" lon="8.333808514588162"><ele>204.0</ele><time>2026-05-01T09:53:21.002Z</time></trkpt><trkpt lat="45.08862352748505" lon="8.333705865505141"><ele>204.0</ele><time>2026-05-01T09:53:23.002Z</time></trkpt><trkpt lat="45.0886453348594" lon="8.333592224773456"><ele>204.0</ele><time>2026-05-01T09:53:26.002Z</time></trkpt><trkpt lat="45.08867684338982" lon="8.333493753999935"><ele>204.0</ele><time>2026-05-01T09:53:29.003Z</time></trkpt><trkpt lat="45.08870518945371" lon="8.333402217396166"><ele>204.5</ele><time>2026-05-01T09:54:50.001Z</time></trkpt><trkpt lat="45.08872390133866" lon="8.333297814647525"><ele>205.0</ele><time>2026-05-01T09:54:54.001Z</time></trkpt><trkpt lat="45.08875474199979" lon="8.33321460023297"><ele>205.5</ele><time>2026-05-01T09:54:56.001Z</time></trkpt><trkpt lat="45.08876243542086" lon="8.33311451148303"><ele>206.0</ele><time>2026-05-01T09:54:59.001Z</time></trkpt><trkpt lat="45.088763246416384" lon="8.333003268649131"><ele>206.5</ele><time>2026-05-01T09:55:02.002Z</time></trkpt><trkpt lat="45.0887541189017" lon="8.332873297543442"><ele>207.0</ele><time>2026-05-01T09:55:05.002Z</time></trkpt><trkpt lat="45.08873613047761" lon="8.332774119287771"><ele>207.14285714285717</ele><time>2026-05-01T09:55:07.002Z</time></trkpt><trkpt lat="45.08872512297338" lon="8.332682736776368"><ele>207.28571428571428</ele><time>2026-05-01T09:55:09.002Z</time></trkpt><trkpt lat="45.08871887815074" lon="8.332593296387481"><ele>207.42857142857144</ele><time>2026-05-01T09:55:11.002Z</time></trkpt><trkpt lat="45.088707773345156" lon="8.332490371639004"><ele>207.57142857142858</ele><time>2026-05-01T09:55:13.002Z</time></trkpt><trkpt lat="45.08870187374043" lon="8.332394774069794"><ele>207.71428571428572</ele><time>2026-05-01T09:55:15.002Z</time></trkpt><trkpt lat="45.08869242056808" lon="8.332304290021861"><ele>207.85714285714286</ele><time>2026-05-01T09:55:17.002Z</time></trkpt><trkpt lat="45.08868321337682" lon="8.332175218231907"><ele>208.0</ele><time>2026-05-01T09:55:20.002Z</time></trkpt><trkpt lat="45.08867441280732" lon="8.332085389625528"><ele>208.16666666666666</ele><time>2026-05-01T09:55:22.002Z</time></trkpt><trkpt lat="45.08866247385547" lon="8.331951924053342"><ele>208.33333333333331</ele><time>2026-05-01T09:55:25.002Z</time></trkpt><trkpt lat="45.08865791518033" lon="8.331816793287327"><ele>208.5</ele><time>2026-05-01T09:55:28.002Z</time></trkpt><trkpt lat="45.088642542159064" lon="8.331716469341208"><ele>208.66666666666669</ele><time>2026-05-01T09:55:30.002Z</time></trkpt><trkpt lat="45.08862155316452" lon="8.331611753059775"><ele>208.83333333333334</ele><time>2026-05-01T09:55:32.002Z</time></trkpt><trkpt lat="45.08860983121338" lon="8.33149861651908"><ele>209.0</ele><time>2026-05-01T09:55:34.003Z</time></trkpt><trkpt lat="45.08860781499084" lon="8.33139854908999"><ele>209.28571428571428</ele><time>2026-05-01T09:55:36.003Z</time></trkpt><trkpt lat="45.08859362191376" lon="8.331293753718265"><ele>209.57142857142856</ele><time>2026-05-01T09:55:38.003Z</time></trkpt><trkpt lat="45.08857783900981" lon="8.331191017344015"><ele>209.85714285714286</ele><time>2026-05-01T09:55:40.003Z</time></trkpt><trkpt lat="45.0885711620047" lon="8.331082630045344"><ele>210.14285714285714</ele><time>2026-05-01T09:55:42.003Z</time></trkpt><trkpt lat="45.088560041747265" lon="8.330981637981175"><ele>210.42857142857144</ele><time>2026-05-01T09:55:44.003Z</time></trkpt><trkpt lat="45.08855156910897" lon="8.330874985750508"><ele>210.71428571428572</ele><time>2026-05-01T09:55:46.003Z</time></trkpt><trkpt lat="45.088545382145256" lon="8.330777879706991"><ele>211.0</ele><time>2026-05-01T09:55:48.003Z</time></trkpt><trkpt lat="45.08853357469068" lon="8.330678083496664"><ele>211.0</ele><time>2026-05-01T09:55:50.003Z</time></trkpt><trkpt lat="45.08852274818777" lon="8.330577764853777"><ele>211.0</ele><time>2026-05-01T09:55:52.003Z</time></trkpt><trkpt lat="45.08851295609528" lon="8.330478704125316"><ele>211.0</ele><time>2026-05-01T09:55:54.003Z</time></trkpt><trkpt lat="45.08851510033072" lon="8.330383282328635"><ele>211.0</ele><time>2026-05-01T09:55:56.003Z</time></trkpt><trkpt lat="45.08850670743179" lon="8.330291459544913"><ele>211.0</ele><time>2026-05-01T09:55:58.003Z</time></trkpt><trkpt lat="45.08849751577357" lon="8.330202222293462"><ele>211.0</ele><time>2026-05-01T09:56:00.003Z</time></trkpt><trkpt lat="45.08847216018928" lon="8.33010785178835"><ele>211.0</ele><time>2026-05-01T09:56:01.998Z</time></trkpt><trkpt lat="45.08846314142657" lon="8.329993516560602"><ele>210.83333333333331</ele><time>2026-05-01T09:56:03.999Z</time></trkpt><trkpt lat="45.088404987896546" lon="8.329873730508426"><ele>210.66666666666666</ele><time>2026-05-01T09:56:05.999Z</time></trkpt><trkpt lat="45.08833742843242" lon="8.329733252217382"><ele>210.5</ele><time>2026-05-01T09:56:07.999Z</time></trkpt><trkpt lat="45.088292606670926" lon="8.32965860453551"><ele>210.33333333333331</ele><time>2026-05-01T09:56:08.999Z</time></trkpt><trkpt lat="45.088247906832386" lon="8.329575312982502"><ele>210.16666666666666</ele><time>2026-05-01T09:56:09.999Z</time></trkpt><trkpt lat="45.0882084845973" lon="8.329480302631179"><ele>210.0</ele><time>2026-05-01T09:56:10.999Z</time></trkpt><trkpt lat="45.088181720109716" lon="8.329372897007676"><ele>210.0</ele><time>2026-05-01T09:56:11.999Z</time></trkpt><trkpt lat="45.08815829291475" lon="8.329259368028996"><ele>210.0</ele><time>2026-05-01T09:56:12.999Z</time></trkpt><trkpt lat="45.088136609893304" lon="8.329140939103379"><ele>210.0</ele><time>2026-05-01T09:56:13.999Z</time></trkpt><trkpt lat="45.08811654125523" lon="8.329019165742968"><ele>210.0</ele><time>2026-05-01T09:56:14.999Z</time></trkpt><trkpt lat="45.08809725040567" lon="8.328890544279135"><ele>210.0</ele><time>2026-05-01T09:56:15.999Z</time></trkpt><trkpt lat="45.08808081853026" lon="8.32875891740034"><ele>210.0</ele><time>2026-05-01T09:56:16.999Z</time></trkpt><trkpt lat="45.0880789501102" lon="8.328633326256845"><ele>209.4</ele><time>2026-05-01T09:56:17.999Z</time></trkpt><trkpt lat="45.08810214922856" lon="8.328509841898965"><ele>208.8</ele><time>2026-05-01T09:56:19Z</time></trkpt><trkpt lat="45.08812839790219" lon="8.328373136306684"><ele>208.2</ele><time>2026-05-01T09:56:20Z</time></trkpt><trkpt lat="45.08815203263199" lon="8.328235186665163"><ele>207.6</ele><time>2026-05-01T09:56:21Z</time></trkpt><trkpt lat="45.08817280992617" lon="8.328095663304843"><ele>207.0</ele><time>2026-05-01T09:56:22Z</time></trkpt><trkpt lat="45.088191055971656" lon="8.327957532902206"><ele>206.6</ele><time>2026-05-01T09:56:23Z</time></trkpt><trkpt lat="45.08819543582311" lon="8.327805114066317"><ele>206.2</ele><time>2026-05-01T09:56:24Z</time></trkpt><trkpt lat="45.08821281188638" lon="8.327662960760442"><ele>205.8</ele><time>2026-05-01T09:56:25Z</time></trkpt><trkpt lat="45.088220666645995" lon="8.327517526125552"><ele>205.4</ele><time>2026-05-01T09:56:26Z</time></trkpt><trkpt lat="45.088212328707904" lon="8.3273698669885"><ele>205.0</ele><time>2026-05-01T09:56:27Z</time></trkpt><trkpt lat="45.08819730798571" lon="8.327222575049197"><ele>203.8</ele><time>2026-05-01T09:56:28Z</time></trkpt><trkpt lat="45.08819264559119" lon="8.327080867315399"><ele>202.6</ele><time>2026-05-01T09:56:29Z</time></trkpt><trkpt lat="45.08816974692184" lon="8.326932602099792"><ele>201.39999999999998</ele><time>2026-05-01T09:56:30Z</time></trkpt><trkpt lat="45.08814677655156" lon="8.326795527002686"><ele>200.2</ele><time>2026-05-01T09:56:31Z</time></trkpt><trkpt lat="45.08811231204915" lon="8.326663231627638"><ele>199.0</ele><time>2026-05-01T09:56:32Z</time></trkpt><trkpt lat="45.08805325591153" lon="8.326547548267813"><ele>199.0</ele><time>2026-05-01T09:56:33Z</time></trkpt><trkpt lat="45.08796795527695" lon="8.326457210464984"><ele>199.0</ele><time>2026-05-01T09:56:34Z</time></trkpt><trkpt lat="45.08787791899349" lon="8.326383259502919"><ele>199.0</ele><time>2026-05-01T09:56:35Z</time></trkpt><trkpt lat="45.08779698223667" lon="8.32631135259837"><ele>199.0</ele><time>2026-05-01T09:56:36Z</time></trkpt><trkpt lat="45.08773580626821" lon="8.326223240101413"><ele>199.0</ele><time>2026-05-01T09:56:37Z</time></trkpt><trkpt lat="45.08768237413693" lon="8.326115854714335"><ele>197.0</ele><time>2026-05-01T09:56:38Z</time></trkpt><trkpt lat="45.0876342621734" lon="8.326001057142832"><ele>195.0</ele><time>2026-05-01T09:56:39.001Z</time></trkpt><trkpt lat="45.087590285319656" lon="8.325884879163814"><ele>193.0</ele><time>2026-05-01T09:56:40.001Z</time></trkpt><trkpt lat="45.08754497470771" lon="8.325763043282251"><ele>191.0</ele><time>2026-05-01T09:56:41.001Z</time></trkpt><trkpt lat="45.087501483853195" lon="8.325645986410485"><ele>189.0</ele><time>2026-05-01T09:56:42.001Z</time></trkpt><trkpt lat="45.087458642174376" lon="8.32552760068398"><ele>189.33333333333334</ele><time>2026-05-01T09:56:43.001Z</time></trkpt><trkpt lat="45.087401245924625" lon="8.325420455481181"><ele>189.66666666666666</ele><time>2026-05-01T09:56:44.001Z</time></trkpt><trkpt lat="45.08737564925264" lon="8.325297138636017"><ele>190.0</ele><time>2026-05-01T09:56:45.001Z</time></trkpt><trkpt lat="45.08733636964915" lon="8.32518716317638"><ele>190.33333333333331</ele><time>2026-05-01T09:56:46.001Z</time></trkpt><trkpt lat="45.087297476858545" lon="8.325078270570337"><ele>190.66666666666666</ele><time>2026-05-01T09:56:47.001Z</time></trkpt><trkpt lat="45.08726066195683" lon="8.324973840681883"><ele>191.0</ele><time>2026-05-01T09:56:48.001Z</time></trkpt><trkpt lat="45.08722527285968" lon="8.324872735984759"><ele>191.0</ele><time>2026-05-01T09:56:49.001Z</time></trkpt><trkpt lat="45.08717633244756" lon="8.324785775899192"><ele>191.0</ele><time>2026-05-01T09:56:50.001Z</time></trkpt><trkpt lat="45.087159453168084" lon="8.324685398588576"><ele>191.0</ele><time>2026-05-01T09:56:51.001Z</time></trkpt><trkpt lat="45.08712887483232" lon="8.324599565142295"><ele>191.0</ele><time>2026-05-01T09:56:52.001Z</time></trkpt><trkpt lat="45.0870984438302" lon="8.324518426204026"><ele>191.0</ele><time>2026-05-01T09:56:53.001Z</time></trkpt><trkpt lat="45.087045266274494" lon="8.324380331561485"><ele>191.0</ele><time>2026-05-01T09:56:55.001Z</time></trkpt><trkpt lat="45.08699749406547" lon="8.324243159125936"><ele>191.16666666666666</ele><time>2026-05-01T09:56:57.001Z</time></trkpt><trkpt lat="45.0869620569187" lon="8.324107610827202"><ele>191.33333333333331</ele><time>2026-05-01T09:56:59.001Z</time></trkpt><trkpt lat="45.08696027170213" lon="8.323983011677575"><ele>191.5</ele><time>2026-05-01T09:57:01.001Z</time></trkpt><trkpt lat="45.08699384911264" lon="8.323871791320004"><ele>191.66666666666666</ele><time>2026-05-01T09:57:03.001Z</time></trkpt><trkpt lat="45.08702442418701" lon="8.323753993524825"><ele>191.83333333333334</ele><time>2026-05-01T09:57:05.001Z</time></trkpt><trkpt lat="45.08705259367647" lon="8.323640143999173"><ele>192.0</ele><time>2026-05-01T09:57:07.001Z</time></trkpt><trkpt lat="45.087055712625485" lon="8.32350937856662"><ele>193.16666666666666</ele><time>2026-05-01T09:57:09.002Z</time></trkpt><trkpt lat="45.08703495738358" lon="8.323394342611827"><ele>194.33333333333331</ele><time>2026-05-01T09:57:11.002Z</time></trkpt><trkpt lat="45.08700946889816" lon="8.323279953504299"><ele>195.5</ele><time>2026-05-01T09:57:13.002Z</time></trkpt><trkpt lat="45.08697206658274" lon="8.323171139439069"><ele>196.66666666666666</ele><time>2026-05-01T09:57:15.002Z</time></trkpt><trkpt lat="45.08693315804473" lon="8.323064537841272"><ele>197.83333333333331</ele><time>2026-05-01T09:57:17.002Z</time></trkpt><trkpt lat="45.086890850295866" lon="8.322972419623753"><ele>199.0</ele><time>2026-05-01T09:57:19.002Z</time></trkpt><trkpt lat="45.086851749781204" lon="8.322881861790197"><ele>199.14285714285714</ele><time>2026-05-01T09:57:21.002Z</time></trkpt><trkpt lat="45.08680945744842" lon="8.322787683402884"><ele>199.28571428571428</ele><time>2026-05-01T09:57:24.002Z</time></trkpt><trkpt lat="45.08677646182992" lon="8.3226952319353"><ele>199.42857142857144</ele><time>2026-05-01T09:57:28.002Z</time></trkpt><trkpt lat="45.086747484309356" lon="8.322614804432137"><ele>199.57142857142856</ele><time>2026-05-01T09:57:31.002Z</time></trkpt><trkpt lat="45.086723066973946" lon="8.322521019969784"><ele>199.71428571428572</ele><time>2026-05-01T09:57:34.002Z</time></trkpt><trkpt lat="45.08668989936504" lon="8.322433403426828"><ele>199.85714285714286</ele><time>2026-05-01T09:57:37.002Z</time></trkpt><trkpt lat="45.08666183811109" lon="8.322349661966566"><ele>200.0</ele><time>2026-05-01T09:57:40.002Z</time></trkpt><trkpt lat="45.08664051581996" lon="8.322261151597285"><ele>200.00000000000003</ele><time>2026-05-01T09:57:43.003Z</time></trkpt><trkpt lat="45.08665646481342" lon="8.322145791290714"><ele>200.0</ele><time>2026-05-01T09:57:47.003Z</time></trkpt><trkpt lat="45.08671071125019" lon="8.322053885908318"><ele>200.0</ele><time>2026-05-01T09:57:51.003Z</time></trkpt><trkpt lat="45.08676881099162" lon="8.321975113593178"><ele>200.0</ele><time>2026-05-01T09:57:55.003Z</time></trkpt><trkpt lat="45.0868099852134" lon="8.321885879848539"><ele>200.00000000000003</ele><time>2026-05-01T09:57:59.003Z</time></trkpt><trkpt lat="45.08686968379609" lon="8.321820811716675"><ele>200.0</ele><time>2026-05-01T09:58:03.003Z</time></trkpt><trkpt lat="45.08691357166103" lon="8.321754126477071"><ele>200.00000000000003</ele><time>2026-05-01T09:58:05.003Z</time></trkpt><trkpt lat="45.08696359222708" lon="8.321679905451303"><ele>200.0</ele><time>2026-05-01T09:58:06.998Z</time></trkpt><trkpt lat="45.08699797037241" lon="8.32159664741401"><ele>200.0</ele><time>2026-05-01T09:58:08.998Z</time></trkpt><trkpt lat="45.08707410595239" lon="8.321522122878411"><ele>200.0</ele><time>2026-05-01T09:58:11.999Z</time></trkpt><trkpt lat="45.087137878750454" lon="8.321437850380955"><ele>200.00000000000003</ele><time>2026-05-01T09:58:14.999Z</time></trkpt><trkpt lat="45.087194140156484" lon="8.321356772964121"><ele>200.0</ele><time>2026-05-01T09:58:18.999Z</time></trkpt><trkpt lat="45.08727063401742" lon="8.321420180336007"><ele>200.0</ele><time>2026-05-01T09:58:21.999Z</time></trkpt><trkpt lat="45.08732241131328" lon="8.321511997292701"><ele>200.0</ele><time>2026-05-01T09:58:23.999Z</time></trkpt><trkpt lat="45.087390521971486" lon="8.321601817726815"><ele>200.0</ele><time>2026-05-01T09:58:25.999Z</time></trkpt><trkpt lat="45.087464789196495" lon="8.32170158696086"><ele>200.0</ele><time>2026-05-01T09:58:28Z</time></trkpt><trkpt lat="45.0875562620482" lon="8.321799759077178"><ele>200.0</ele><time>2026-05-01T09:58:30Z</time></trkpt><trkpt lat="45.087647736139594" lon="8.321921456180082"><ele>199.83333333333334</ele><time>2026-05-01T09:58:32Z</time></trkpt><trkpt lat="45.087726893401204" lon="8.322022966195641"><ele>199.66666666666669</ele><time>2026-05-01T09:58:34Z</time></trkpt><trkpt lat="45.08777001425891" lon="8.322106263378517"><ele>199.5</ele><time>2026-05-01T09:58:36Z</time></trkpt><trkpt lat="45.087843400152515" lon="8.32219059098672"><ele>199.33333333333331</ele><time>2026-05-01T09:58:39Z</time></trkpt><trkpt lat="45.08790202512913" lon="8.32225585941313"><ele>199.16666666666666</ele><time>2026-05-01T09:58:41Z</time></trkpt><trkpt lat="45.087964531189186" lon="8.322351420054524"><ele>199.0</ele><time>2026-05-01T09:58:43Z</time></trkpt><trkpt lat="45.08803826015633" lon="8.322453473968363"><ele>198.39999999999998</ele><time>2026-05-01T09:58:45Z</time></trkpt><trkpt lat="45.088124473442335" lon="8.322549876151626"><ele>197.8</ele><time>2026-05-01T09:58:47.001Z</time></trkpt><trkpt lat="45.0882038227646" lon="8.322653287210564"><ele>197.2</ele><time>2026-05-01T09:58:49.001Z</time></trkpt><trkpt lat="45.08828014348694" lon="8.322772530967852"><ele>196.60000000000002</ele><time>2026-05-01T09:58:51.001Z</time></trkpt><trkpt lat="45.088331754855844" lon="8.322830852084557"><ele>196.0</ele><time>2026-05-01T09:58:52.001Z</time></trkpt><trkpt lat="45.08838017810459" lon="8.322892100437514"><ele>195.85714285714286</ele><time>2026-05-01T09:58:53.001Z</time></trkpt><trkpt lat="45.088433750374875" lon="8.322946865694131"><ele>195.71428571428572</ele><time>2026-05-01T09:58:54.001Z</time></trkpt><trkpt lat="45.08847066767368" lon="8.32302426663772"><ele>195.57142857142856</ele><time>2026-05-01T09:58:55.001Z</time></trkpt><trkpt lat="45.08852521507683" lon="8.323071163510665"><ele>195.42857142857144</ele><time>2026-05-01T09:58:56.001Z</time></trkpt><trkpt lat="45.088577842055614" lon="8.323133296229503"><ele>195.28571428571428</ele><time>2026-05-01T09:58:57.001Z</time></trkpt><trkpt lat="45.088616273987064" lon="8.323215904567528"><ele>195.14285714285714</ele><time>2026-05-01T09:58:58.001Z</time></trkpt><trkpt lat="45.088668103786226" lon="8.323283310224104"><ele>195.0</ele><time>2026-05-01T09:58:59.001Z</time></trkpt><trkpt lat="45.088721803656824" lon="8.323353147946387"><ele>194.33333333333334</ele><time>2026-05-01T09:59:00.001Z</time></trkpt><trkpt lat="45.088778184805285" lon="8.323426472721628"><ele>193.66666666666666</ele><time>2026-05-01T09:59:01.001Z</time></trkpt><trkpt lat="45.0888371364427" lon="8.323502393535247"><ele>193.0</ele><time>2026-05-01T09:59:02.001Z</time></trkpt><trkpt lat="45.08891172667591" lon="8.3235642919003"><ele>192.33333333333331</ele><time>2026-05-01T09:59:03.001Z</time></trkpt><trkpt lat="45.088966049005215" lon="8.323660594028295"><ele>191.66666666666666</ele><time>2026-05-01T09:59:04.001Z</time></trkpt><trkpt lat="45.08904896651031" lon="8.323719946569206"><ele>191.0</ele><time>2026-05-01T09:59:05.001Z</time></trkpt><trkpt lat="45.08912313847621" lon="8.323796185010766"><ele>191.0</ele><time>2026-05-01T09:59:06.001Z</time></trkpt><trkpt lat="45.08920195884093" lon="8.323886791511237"><ele>191.0</ele><time>2026-05-01T09:59:07.001Z</time></trkpt><trkpt lat="45.08929886412286" lon="8.323929569037597"><ele>191.0</ele><time>2026-05-01T09:59:08.001Z</time></trkpt><trkpt lat="45.08939228578626" lon="8.323994482637564"><ele>191.0</ele><time>2026-05-01T09:59:09.001Z</time></trkpt><trkpt lat="45.089488041769044" lon="8.32405155655465"><ele>191.0</ele><time>2026-05-01T09:59:10.001Z</time></trkpt><trkpt lat="45.08958375322061" lon="8.324114657183351"><ele>189.20000000000002</ele><time>2026-05-01T09:59:11.001Z</time></trkpt><trkpt lat="45.089685270647166" lon="8.324172812184532"><ele>187.4</ele><time>2026-05-01T09:59:12.001Z</time></trkpt><trkpt lat="45.08977816202234" lon="8.32425554002823"><ele>185.6</ele><time>2026-05-01T09:59:13.001Z</time></trkpt><trkpt lat="45.08988432376771" lon="8.324297723506405"><ele>183.8</ele><time>2026-05-01T09:59:14.001Z</time></trkpt><trkpt lat="45.08998098779902" lon="8.32438521795975"><ele>182.0</ele><time>2026-05-01T09:59:15.002Z</time></trkpt><trkpt lat="45.09008473312612" lon="8.324450879735933"><ele>181.75</ele><time>2026-05-01T09:59:16.002Z</time></trkpt><trkpt lat="45.09019689453129" lon="8.32449652124258"><ele>181.5</ele><time>2026-05-01T09:59:17.002Z</time></trkpt><trkpt lat="45.09030536843856" lon="8.32456351013669"><ele>181.25</ele><time>2026-05-01T09:59:18.002Z</time></trkpt><trkpt lat="45.09041434266625" lon="8.32462895960352"><ele>181.0</ele><time>2026-05-01T09:59:19.002Z</time></trkpt><trkpt lat="45.09052500113783" lon="8.324699500542687"><ele>179.0</ele><time>2026-05-01T09:59:20.002Z</time></trkpt><trkpt lat="45.090636510233864" lon="8.324763081434327"><ele>177.0</ele><time>2026-05-01T09:59:21.002Z</time></trkpt><trkpt lat="45.09074924604487" lon="8.32482789184241"><ele>175.0</ele><time>2026-05-01T09:59:22.002Z</time></trkpt><trkpt lat="45.09086114019251" lon="8.324896084749163"><ele>173.0</ele><time>2026-05-01T09:59:23.002Z</time></trkpt><trkpt lat="45.09096758647035" lon="8.324972473438487"><ele>172.25</ele><time>2026-05-01T09:59:24.002Z</time></trkpt><trkpt lat="45.09107945536548" lon="8.32503370114741"><ele>171.5</ele><time>2026-05-01T09:59:25.002Z</time></trkpt><trkpt lat="45.09118906932118" lon="8.325090338210092"><ele>170.75</ele><time>2026-05-01T09:59:26.002Z</time></trkpt><trkpt lat="45.09129327046886" lon="8.325152678094634"><ele>170.0</ele><time>2026-05-01T09:59:27.002Z</time></trkpt><trkpt lat="45.0913968897839" lon="8.32521603198027"><ele>170.0</ele><time>2026-05-01T09:59:28.002Z</time></trkpt><trkpt lat="45.09150322052658" lon="8.325276609675075"><ele>170.0</ele><time>2026-05-01T09:59:29.002Z</time></trkpt><trkpt lat="45.09160232148389" lon="8.325337928730251"><ele>170.0</ele><time>2026-05-01T09:59:30.002Z</time></trkpt><trkpt lat="45.091702646395454" lon="8.325395968154668"><ele>170.0</ele><time>2026-05-01T09:59:31.002Z</time></trkpt><trkpt lat="45.09179841377968" lon="8.325453789431414"><ele>170.0</ele><time>2026-05-01T09:59:32.002Z</time></trkpt><trkpt lat="45.09189320957761" lon="8.325509577877021"><ele>170.2</ele><time>2026-05-01T09:59:33.002Z</time></trkpt><trkpt lat="45.091985556602246" lon="8.325562874561456"><ele>170.4</ele><time>2026-05-01T09:59:34.002Z</time></trkpt><trkpt lat="45.09207575061041" lon="8.325611951429455"><ele>170.60000000000002</ele><time>2026-05-01T09:59:35.002Z</time></trkpt><trkpt lat="45.092164682818066" lon="8.325662770765817"><ele>170.8</ele><time>2026-05-01T09:59:36.002Z</time></trkpt><trkpt lat="45.09224799609562" lon="8.325712236770626"><ele>171.0</ele><time>2026-05-01T09:59:37.002Z</time></trkpt><trkpt lat="45.092329492737306" lon="8.325764330819398"><ele>171.0</ele><time>2026-05-01T09:59:38.002Z</time></trkpt><trkpt lat="45.09241037551006" lon="8.325808001883004"><ele>171.0</ele><time>2026-05-01T09:59:39.002Z</time></trkpt><trkpt lat="45.092488975256344" lon="8.325848415001197"><ele>171.0</ele><time>2026-05-01T09:59:40.002Z</time></trkpt><trkpt lat="45.0925643968335" lon="8.32589899804294"><ele>171.0</ele><time>2026-05-01T09:59:41.002Z</time></trkpt><trkpt lat="45.09263971367461" lon="8.325940788889715"><ele>171.0</ele><time>2026-05-01T09:59:42.002Z</time></trkpt><trkpt lat="45.0927056855084" lon="8.325992368991486"><ele>171.0</ele><time>2026-05-01T09:59:43.002Z</time></trkpt><trkpt lat="45.092776294389516" lon="8.32602863104356"><ele>170.85714285714283</ele><time>2026-05-01T09:59:44.002Z</time></trkpt><trkpt lat="45.0928414850348" lon="8.326071825697408"><ele>170.71428571428572</ele><time>2026-05-01T09:59:45.002Z</time></trkpt><trkpt lat="45.09290928153802" lon="8.326106226734373"><ele>170.57142857142856</ele><time>2026-05-01T09:59:46.002Z</time></trkpt><trkpt lat="45.0929737161347" lon="8.326147214883443"><ele>170.42857142857142</ele><time>2026-05-01T09:59:47.003Z</time></trkpt><trkpt lat="45.09303534709923" lon="8.326189038580731"><ele>170.28571428571428</ele><time>2026-05-01T09:59:48.003Z</time></trkpt><trkpt lat="45.093096670378046" lon="8.32622641036685"><ele>170.14285714285714</ele><time>2026-05-01T09:59:49.003Z</time></trkpt><trkpt lat="45.09315870855735" lon="8.326260056563203"><ele>170.0</ele><time>2026-05-01T09:59:50.003Z</time></trkpt><trkpt lat="45.093217070993084" lon="8.326295095801482"><ele>169.75</ele><time>2026-05-01T09:59:51.003Z</time></trkpt><trkpt lat="45.093334451347815" lon="8.326354799577542"><ele>169.5</ele><time>2026-05-01T09:59:53.003Z</time></trkpt><trkpt lat="45.093451153902656" lon="8.326413462293983"><ele>169.25</ele><time>2026-05-01T09:59:55.003Z</time></trkpt><trkpt lat="45.09355420101356" lon="8.326481265436156"><ele>169.0</ele><time>2026-05-01T09:59:57.003Z</time></trkpt><trkpt lat="45.093658954484546" lon="8.326547274544003"><ele>168.2</ele><time>2026-05-01T09:59:59.003Z</time></trkpt><trkpt lat="45.093757592871725" lon="8.326590830607898"><ele>167.39999999999998</ele><time>2026-05-01T10:00:01.003Z</time></trkpt><trkpt lat="45.09384930394134" lon="8.326645866243139"><ele>166.6</ele><time>2026-05-01T10:00:03.003Z</time></trkpt><trkpt lat="45.09393781742491" lon="8.326696430960318"><ele>165.8</ele><time>2026-05-01T10:00:05.003Z</time></trkpt><trkpt lat="45.094021455994415" lon="8.32674654065419"><ele>165.0</ele><time>2026-05-01T10:00:07.003Z</time></trkpt><trkpt lat="45.094099828997294" lon="8.32679930201574"><ele>164.4</ele><time>2026-05-01T10:00:09.003Z</time></trkpt><trkpt lat="45.09418042161636" lon="8.326848231107574"><ele>163.8</ele><time>2026-05-01T10:00:11.003Z</time></trkpt><trkpt lat="45.094274007142275" lon="8.326903854776027"><ele>163.2</ele><time>2026-05-01T10:00:12.998Z</time></trkpt><trkpt lat="45.09437604646348" lon="8.326963906781279"><ele>162.6</ele><time>2026-05-01T10:00:14.998Z</time></trkpt><trkpt lat="45.09448828814019" lon="8.327027048696307"><ele>162.0</ele><time>2026-05-01T10:00:16.998Z</time></trkpt><trkpt lat="45.094548898511924" lon="8.327055906557856"><ele>162.0</ele><time>2026-05-01T10:00:17.999Z</time></trkpt><trkpt lat="45.0946090988823" lon="8.327092042691213"><ele>162.0</ele><time>2026-05-01T10:00:18.999Z</time></trkpt><trkpt lat="45.09466720098372" lon="8.327130341160965"><ele>162.0</ele><time>2026-05-01T10:00:19.999Z</time></trkpt><trkpt lat="45.094778340244616" lon="8.327196807053285"><ele>162.0</ele><time>2026-05-01T10:00:21.999Z</time></trkpt><trkpt lat="45.094884278287324" lon="8.327259048298584"><ele>162.0</ele><time>2026-05-01T10:00:23.999Z</time></trkpt><trkpt lat="45.09497783416468" lon="8.327329478250933"><ele>162.2</ele><time>2026-05-01T10:00:25.999Z</time></trkpt><trkpt lat="45.09507570868699" lon="8.327378117137123"><ele>162.39999999999998</ele><time>2026-05-01T10:00:27.999Z</time></trkpt><trkpt lat="45.095162773636794" lon="8.327437524999313"><ele>162.60000000000002</ele><time>2026-05-01T10:00:29.999Z</time></trkpt><trkpt lat="45.09525504926945" lon="8.327495600045708"><ele>162.8</ele><time>2026-05-01T10:00:31.999Z</time></trkpt><trkpt lat="45.09533978833079" lon="8.327543999342602"><ele>163.0</ele><time>2026-05-01T10:00:34Z</time></trkpt><trkpt lat="45.095416848519676" lon="8.32758893994415"><ele>163.0</ele><time>2026-05-01T10:00:36Z</time></trkpt><trkpt lat="45.09549386140606" lon="8.32761731390887"><ele>163.0</ele><time>2026-05-01T10:00:38Z</time></trkpt><trkpt lat="45.09556792054914" lon="8.327641750549324"><ele>163.0</ele><time>2026-05-01T10:00:40Z</time></trkpt><trkpt lat="45.09563790076278" lon="8.327653600549366"><ele>163.0</ele><time>2026-05-01T10:00:42Z</time></trkpt><trkpt lat="45.09570197437626" lon="8.32766003615253"><ele>163.0</ele><time>2026-05-01T10:00:44Z</time></trkpt><trkpt lat="45.09579328735171" lon="8.32765908244203"><ele>163.0</ele><time>2026-05-01T10:00:47Z</time></trkpt><trkpt lat="45.095856825740135" lon="8.327665805741617"><ele>163.0</ele><time>2026-05-01T10:00:49Z</time></trkpt><trkpt lat="45.095937949870645" lon="8.327656174252796"><ele>162.85714285714286</ele><time>2026-05-01T10:00:52.001Z</time></trkpt><trkpt lat="45.096015608549415" lon="8.327627467655136"><ele>162.7142857142857</ele><time>2026-05-01T10:00:55.001Z</time></trkpt><trkpt lat="45.09608925859235" lon="8.327592577669083"><ele>162.57142857142856</ele><time>2026-05-01T10:00:58.001Z</time></trkpt><trkpt lat="45.096152579034815" lon="8.327564397834003"><ele>162.42857142857144</ele><time>2026-05-01T10:01:00.001Z</time></trkpt><trkpt lat="45.09621421975381" lon="8.327526568052006"><ele>162.28571428571428</ele><time>2026-05-01T10:01:02.001Z</time></trkpt><trkpt lat="45.096285480803125" lon="8.327471947843778"><ele>162.14285714285714</ele><time>2026-05-01T10:01:04.001Z</time></trkpt><trkpt lat="45.09634483665241" lon="8.327410186072113"><ele>162.0</ele><time>2026-05-01T10:01:06.001Z</time></trkpt><trkpt lat="45.09641388151565" lon="8.327350371381767"><ele>162.0</ele><time>2026-05-01T10:01:08.001Z</time></trkpt><trkpt lat="45.096489228160344" lon="8.327283368729113"><ele>162.0</ele><time>2026-05-01T10:01:10.001Z</time></trkpt><trkpt lat="45.09657244479571" lon="8.327223742599639"><ele>162.0</ele><time>2026-05-01T10:01:12.001Z</time></trkpt><trkpt lat="45.096647681705534" lon="8.327151255888348"><ele>162.0</ele><time>2026-05-01T10:01:14.001Z</time></trkpt><trkpt lat="45.09672631552448" lon="8.327073043659896"><ele>162.0</ele><time>2026-05-01T10:01:16.001Z</time></trkpt><trkpt lat="45.09680441379742" lon="8.326995364098753"><ele>161.66666666666666</ele><time>2026-05-01T10:01:18.001Z</time></trkpt><trkpt lat="45.096877008381476" lon="8.326908679825136"><ele>161.33333333333334</ele><time>2026-05-01T10:01:20.002Z</time></trkpt><trkpt lat="45.096958008491676" lon="8.326839910828598"><ele>161.0</ele><time>2026-05-01T10:01:22.002Z</time></trkpt><trkpt lat="45.097024746451886" lon="8.326770144672539"><ele>160.66666666666669</ele><time>2026-05-01T10:01:24.002Z</time></trkpt><trkpt lat="45.09708995156347" lon="8.32673112432544"><ele>160.33333333333334</ele><time>2026-05-01T10:01:26.002Z</time></trkpt><trkpt lat="45.09716445471458" lon="8.326663820220634"><ele>160.0</ele><time>2026-05-01T10:01:28.002Z</time></trkpt><trkpt lat="45.097235187182626" lon="8.326574650425222"><ele>160.0</ele><time>2026-05-01T10:01:30.002Z</time></trkpt><trkpt lat="45.097315761343644" lon="8.326473547709078"><ele>160.0</ele><time>2026-05-01T10:01:32.002Z</time></trkpt><trkpt lat="45.09741685315864" lon="8.326372102495766"><ele>160.0</ele><time>2026-05-01T10:01:34.002Z</time></trkpt><trkpt lat="45.09747654732928" lon="8.32632510247192"><ele>160.0</ele><time>2026-05-01T10:01:35.002Z</time></trkpt><trkpt lat="45.097529331816745" lon="8.326273463793301"><ele>160.0</ele><time>2026-05-01T10:01:36.002Z</time></trkpt><trkpt lat="45.09763294090046" lon="8.326179302149889"><ele>160.0</ele><time>2026-05-01T10:01:38.002Z</time></trkpt><trkpt lat="45.09773186661602" lon="8.326086250333562"><ele>160.0</ele><time>2026-05-01T10:01:40.002Z</time></trkpt><trkpt lat="45.097812723163074" lon="8.325981027176956"><ele>160.0</ele><time>2026-05-01T10:01:42.002Z</time></trkpt><trkpt lat="45.09791065788725" lon="8.325904861833413"><ele>160.0</ele><time>2026-05-01T10:01:44.002Z</time></trkpt><trkpt lat="45.09800033587506" lon="8.325821991348711"><ele>160.0</ele><time>2026-05-01T10:01:46.002Z</time></trkpt><trkpt lat="45.09808159193329" lon="8.325725953003317"><ele>160.0</ele><time>2026-05-01T10:01:48.002Z</time></trkpt><trkpt lat="45.09817263418722" lon="8.325645233842613"><ele>160.0</ele><time>2026-05-01T10:01:50.002Z</time></trkpt><trkpt lat="45.09825922331528" lon="8.325570049654836"><ele>160.0</ele><time>2026-05-01T10:01:52.003Z</time></trkpt><trkpt lat="45.09833928222903" lon="8.325496226164786"><ele>160.0</ele><time>2026-05-01T10:01:54.003Z</time></trkpt><trkpt lat="45.09842322911436" lon="8.325406630287516"><ele>160.0</ele><time>2026-05-01T10:01:56.003Z</time></trkpt><trkpt lat="45.09852165946154" lon="8.325306358986321"><ele>159.2</ele><time>2026-05-01T10:01:58.003Z</time></trkpt><trkpt lat="45.09861783964305" lon="8.325215716746152"><ele>158.4</ele><time>2026-05-01T10:02:00.003Z</time></trkpt><trkpt lat="45.09871129536862" lon="8.325127003789005"><ele>157.6</ele><time>2026-05-01T10:02:02.003Z</time></trkpt><trkpt lat="45.09879930311085" lon="8.325043745507225"><ele>156.8</ele><time>2026-05-01T10:02:04.003Z</time></trkpt><trkpt lat="45.098884273174946" lon="8.324963714843948"><ele>156.0</ele><time>2026-05-01T10:02:06.003Z</time></trkpt><trkpt lat="45.09896742428101" lon="8.324882122876023"><ele>156.0</ele><time>2026-05-01T10:02:08.003Z</time></trkpt><trkpt lat="45.0990476181779" lon="8.324790741863351"><ele>156.0</ele><time>2026-05-01T10:02:10.003Z</time></trkpt><trkpt lat="45.09914589542323" lon="8.324710962224982"><ele>156.0</ele><time>2026-05-01T10:02:12.003Z</time></trkpt><trkpt lat="45.09924451733214" lon="8.32461756284366"><ele>156.0</ele><time>2026-05-01T10:02:14.003Z</time></trkpt><trkpt lat="45.09933891512311" lon="8.324526818785664"><ele>156.0</ele><time>2026-05-01T10:02:16.003Z</time></trkpt><trkpt lat="45.09942745108477" lon="8.324436826729759"><ele>156.4</ele><time>2026-05-01T10:02:18.003Z</time></trkpt><trkpt lat="45.09951915456193" lon="8.32435127529163"><ele>156.8</ele><time>2026-05-01T10:02:19.998Z</time></trkpt><trkpt lat="45.09960524570371" lon="8.324264960781296"><ele>157.20000000000002</ele><time>2026-05-01T10:02:21.998Z</time></trkpt><trkpt lat="45.09969595144199" lon="8.324174776463522"><ele>157.6</ele><time>2026-05-01T10:02:23.999Z</time></trkpt><trkpt lat="45.099788875582384" lon="8.324097964006224"><ele>158.0</ele><time>2026-05-01T10:02:25.999Z</time></trkpt><trkpt lat="45.09987506675868" lon="8.32401662494764"><ele>157.4</ele><time>2026-05-01T10:02:27.999Z</time></trkpt><trkpt lat="45.09996040661192" lon="8.323931869365"><ele>156.8</ele><time>2026-05-01T10:02:29.999Z</time></trkpt><trkpt lat="45.100051849555456" lon="8.323842215563381"><ele>156.2</ele><time>2026-05-01T10:02:31.999Z</time></trkpt><trkpt lat="45.10013804321877" lon="8.323751820722611"><ele>155.6</ele><time>2026-05-01T10:02:33.999Z</time></trkpt><trkpt lat="45.10022526379434" lon="8.323667529255635"><ele>155.0</ele><time>2026-05-01T10:02:35.999Z</time></trkpt><trkpt lat="45.10030457189239" lon="8.323565237257158"><ele>154.8</ele><time>2026-05-01T10:02:37.999Z</time></trkpt><trkpt lat="45.10039330445721" lon="8.323463638902627"><ele>154.6</ele><time>2026-05-01T10:02:40Z</time></trkpt><trkpt lat="45.10047455647865" lon="8.32336107143259"><ele>154.4</ele><time>2026-05-01T10:02:42Z</time></trkpt><trkpt lat="45.10054491653061" lon="8.3232536056651"><ele>154.2</ele><time>2026-05-01T10:02:44Z</time></trkpt><trkpt lat="45.10062915200576" lon="8.323161330640005"><ele>154.0</ele><time>2026-05-01T10:02:46Z</time></trkpt><trkpt lat="45.10070855072485" lon="8.323056345087707"><ele>153.8</ele><time>2026-05-01T10:02:48Z</time></trkpt><trkpt lat="45.10079057876979" lon="8.322947459399995"><ele>153.60000000000002</ele><time>2026-05-01T10:02:50Z</time></trkpt><trkpt lat="45.10087032831514" lon="8.322841807371779"><ele>153.4</ele><time>2026-05-01T10:02:52Z</time></trkpt><trkpt lat="45.10094825339133" lon="8.322744821615068"><ele>153.20000000000002</ele><time>2026-05-01T10:02:54Z</time></trkpt><trkpt lat="45.10102897528652" lon="8.322646464699114"><ele>153.0</ele><time>2026-05-01T10:02:56Z</time></trkpt><trkpt lat="45.10111260455202" lon="8.322547898291742"><ele>153.0</ele><time>2026-05-01T10:02:58.001Z</time></trkpt><trkpt lat="45.10119698795132" lon="8.322453024607647"><ele>153.0</ele><time>2026-05-01T10:03:00.001Z</time></trkpt><trkpt lat="45.1012832577388" lon="8.322358516215175"><ele>153.0</ele><time>2026-05-01T10:03:02.001Z</time></trkpt><trkpt lat="45.10137361262973" lon="8.322263862930377"><ele>153.0</ele><time>2026-05-01T10:03:04.001Z</time></trkpt><trkpt lat="45.101457638162614" lon="8.322180770907298"><ele>153.0</ele><time>2026-05-01T10:03:06.001Z</time></trkpt><trkpt lat="45.10154306935216" lon="8.322081578114894"><ele>152.20000000000002</ele><time>2026-05-01T10:03:08.001Z</time></trkpt><trkpt lat="45.10163564728989" lon="8.321997336247573"><ele>151.4</ele><time>2026-05-01T10:03:10.001Z</time></trkpt><trkpt lat="45.1017269138451" lon="8.321909709523426"><ele>150.60000000000002</ele><time>2026-05-01T10:03:12.001Z</time></trkpt><trkpt lat="45.101821116250335" lon="8.321833255819861"><ele>149.8</ele><time>2026-05-01T10:03:14.001Z</time></trkpt><trkpt lat="45.10190961866034" lon="8.321747982694458"><ele>149.0</ele><time>2026-05-01T10:03:16.001Z</time></trkpt><trkpt lat="45.10199426233955" lon="8.321674645970322"><ele>149.0</ele><time>2026-05-01T10:03:18.001Z</time></trkpt><trkpt lat="45.102083959706086" lon="8.321604078971934"><ele>149.0</ele><time>2026-05-01T10:03:20.001Z</time></trkpt><trkpt lat="45.10217950289441" lon="8.321530622529604"><ele>149.0</ele><time>2026-05-01T10:03:22.001Z</time></trkpt><trkpt lat="45.10226823162616" lon="8.321447942585559"><ele>149.0</ele><time>2026-05-01T10:03:24.001Z</time></trkpt><trkpt lat="45.102365463224395" lon="8.321364207055925"><ele>149.0</ele><time>2026-05-01T10:03:26.002Z</time></trkpt><trkpt lat="45.10245557981112" lon="8.32128614344187"><ele>149.0</ele><time>2026-05-01T10:03:28.002Z</time></trkpt><trkpt lat="45.102546090395016" lon="8.321204546698315"><ele>149.0</ele><time>2026-05-01T10:03:30.002Z</time></trkpt><trkpt lat="45.102643907095256" lon="8.321124206018569"><ele>149.0</ele><time>2026-05-01T10:03:32.002Z</time></trkpt><trkpt lat="45.10274363340881" lon="8.321046921100999"><ele>149.0</ele><time>2026-05-01T10:03:34.002Z</time></trkpt><trkpt lat="45.10283629432244" lon="8.320959281417306"><ele>149.0</ele><time>2026-05-01T10:03:36.002Z</time></trkpt><trkpt lat="45.10293621484076" lon="8.320899676917136"><ele>149.0</ele><time>2026-05-01T10:03:38.002Z</time></trkpt><trkpt lat="45.10302259489683" lon="8.32081058021872"><ele>149.0</ele><time>2026-05-01T10:03:40.002Z</time></trkpt><trkpt lat="45.10311674097345" lon="8.320725670460568"><ele>149.0</ele><time>2026-05-01T10:03:42.002Z</time></trkpt><trkpt lat="45.10320689982875" lon="8.320652028115052"><ele>149.0</ele><time>2026-05-01T10:03:44.002Z</time></trkpt><trkpt lat="45.10329428299745" lon="8.32057819471912"><ele>149.0</ele><time>2026-05-01T10:03:46.002Z</time></trkpt><trkpt lat="45.10337975573301" lon="8.320510471356576"><ele>148.4</ele><time>2026-05-01T10:03:48.002Z</time></trkpt><trkpt lat="45.103466725695604" lon="8.32042944835273"><ele>147.8</ele><time>2026-05-01T10:03:50.002Z</time></trkpt><trkpt lat="45.103551454303634" lon="8.32035411337167"><ele>147.2</ele><time>2026-05-01T10:03:52.002Z</time></trkpt><trkpt lat="45.10363566143389" lon="8.320279643431538"><ele>146.6</ele><time>2026-05-01T10:03:54.002Z</time></trkpt><trkpt lat="45.10372857507351" lon="8.3202099524026"><ele>146.0</ele><time>2026-05-01T10:03:56.002Z</time></trkpt><trkpt lat="45.10382539333328" lon="8.320128324517455"><ele>146.0</ele><time>2026-05-01T10:03:58.003Z</time></trkpt><trkpt lat="45.10392277329252" lon="8.320037797171986"><ele>146.0</ele><time>2026-05-01T10:04:00.003Z</time></trkpt><trkpt lat="45.1040327328076" lon="8.319969056237866"><ele>146.0</ele><time>2026-05-01T10:04:02.003Z</time></trkpt><trkpt lat="45.10412858045009" lon="8.319878508581878"><ele>146.0</ele><time>2026-05-01T10:04:04.003Z</time></trkpt><trkpt lat="45.10422190349795" lon="8.319786101746596"><ele>145.0</ele><time>2026-05-01T10:04:06.003Z</time></trkpt><trkpt lat="45.104320032821995" lon="8.319705973703545"><ele>144.0</ele><time>2026-05-01T10:04:08.003Z</time></trkpt><trkpt lat="45.1044173670108" lon="8.319624061172691"><ele>143.0</ele><time>2026-05-01T10:04:10.003Z</time></trkpt><trkpt lat="45.10450995970203" lon="8.31953304466059"><ele>142.0</ele><time>2026-05-01T10:04:12.003Z</time></trkpt><trkpt lat="45.104608658556245" lon="8.319457214249038"><ele>142.0</ele><time>2026-05-01T10:04:14.003Z</time></trkpt><trkpt lat="45.10469666831567" lon="8.319380311236609"><ele>142.0</ele><time>2026-05-01T10:04:16.003Z</time></trkpt><trkpt lat="45.104787815068484" lon="8.319322543534327"><ele>142.0</ele><time>2026-05-01T10:04:18.003Z</time></trkpt><trkpt lat="45.10486762382816" lon="8.319261891457172"><ele>142.0</ele><time>2026-05-01T10:04:20.003Z</time></trkpt><trkpt lat="45.1049416767675" lon="8.319211621271767"><ele>142.0</ele><time>2026-05-01T10:04:22.003Z</time></trkpt><trkpt lat="45.10499775915246" lon="8.318975702444442"><ele>142.0</ele><time>2026-05-01T10:04:24.998Z</time></trkpt><trkpt lat="45.10496907798262" lon="8.318840553928212"><ele>142.0</ele><time>2026-05-01T10:04:26.998Z</time></trkpt><trkpt lat="45.1049416453411" lon="8.31871128910233"><ele>142.0</ele><time>2026-05-01T10:04:28.998Z</time></trkpt><trkpt lat="45.10491798414147" lon="8.318599797475379"><ele>142.0</ele><time>2026-05-01T10:04:30.999Z</time></trkpt><trkpt lat="45.10477271909178" lon="8.318560851273494"><ele>142.0</ele><time>2026-05-01T10:04:31.999Z</time></trkpt><trkpt lat="45.10468811146552" lon="8.318479361568258"><ele>142.0</ele><time>2026-05-01T10:04:33.999Z</time></trkpt><trkpt lat="45.10460452933662" lon="8.318398859589342"><ele>142.0</ele><time>2026-05-01T10:04:35.999Z</time></trkpt><trkpt lat="45.104514322630386" lon="8.318311131860098"><ele>142.0</ele><time>2026-05-01T10:04:37.999Z</time></trkpt><trkpt lat="45.10442036735733" lon="8.318246715089064"><ele>142.0</ele><time>2026-05-01T10:04:39.999Z</time></trkpt><trkpt lat="45.10433476624931" lon="8.318160691147792"><ele>142.0</ele><time>2026-05-01T10:04:41.999Z</time></trkpt></trkseg></trk></gpx>